[[{"header":{"parameterUnit":"m.s-1","parameterCategory":1,"la1":31.0,"la2":29.5877,"lo1":-88.7671,"lo2":-86.6584,"dy":0.0162,"dx":0.0185,"nx":115,"ny":88,"refTime":"2024-02-08T18:00:00:Z","depth":0,"parameterNumber":2,"parameterNumberName":"U-component_of_WINDS"},"data":[0.0,0.0,0.0,0.0,0.0,0.0,0.0,0.0,0.0,0.0,0.0,0.0,0.0,0.0,0.0,0.0,0.0,0.0,0.0,0.0,0.0,0.0,0.0,0.0,0.0,0.0,0.0,0.0,0.0,0.0,0.0,0.0,0.0,0.0,0.0,0.0,0.0,0.0,0.0,0.0,0.0,0.0,0.0,0.0,0.0,0.0,0.0,0.0,0.0,0.0,0.0,0.0,0.0,0.0,0.0,0.0,0.0,0.0,0.0,0.0,0.0,0.0,0.0,0.0,0.0,0.0,0.0,0.0,0.0,0.0,0.0,0.0,0.0,0.0,0.0,0.0,0.0,0.0,0.0,0.0,0.0,0.0,0.0,0.0,0.0,0.0,0.0,0.0,0.0,0.0,0.0,0.0,0.0,0.0,0.0,0.0,0.0,0.0,0.0,0.0,0.0,0.0,0.0,0.0,0.0,0.0,0.0,0.0,0.0,0.0,0.0,0.0,0.0,0.0,0.0,0.0,0.0,0.0,0.0,0.0,0.0,0.0,0.0,0.0,0.0,0.0,0.0,0.0,0.0,0.0,0.0,0.0,0.0,0.0,0.0,0.0,0.0,0.0,0.0,0.0,0.0,0.0,0.0,0.0,0.0,0.0,0.0,0.0,0.0,0.0,0.0,0.0,0.0,0.0,0.0,0.0,0.0,0.0,0.0,0.0,0.0,0.0,0.0,0.0,0.0,0.0,0.0,0.0,0.0,0.0,0.0,0.0,0.0,0.0,0.0,0.0,0.0,0.0,0.0,0.0,0.0,0.0,0.0,0.0,0.0,0.0,0.0,0.0,0.0,0.0,0.0,0.0,0.0,0.0,0.0,0.0,0.0,0.0,0.0,0.0,0.0,0.0,0.0,0.0,0.0,0.0,0.0,0.0,0.0,0.0,0.0,0.0,0.0,0.0,0.0,0.0,0.0,0.0,0.0,0.0,0.0,0.0,0.0,0.0,0.0,0.0,0.0,0.0,0.0,0.0,0.0,0.0,0.0,0.0,0.0,0.0,0.0,0.0,0.0,0.0,0.0,0.0,0.0,0.0,0.0,0.0,0.0,0.0,0.0,0.0,0.0,0.0,0.0,0.0,0.0,0.0,0.0,0.0,0.0,0.0,0.0,0.0,0.0,0.0,0.0,0.0,0.0,0.0,0.0,0.0,0.0,0.0,0.0,0.0,0.0,0.0,0.0,0.0,0.0,0.0,0.0,0.0,0.0,0.0,0.0,0.0,0.0,0.0,0.0,0.0,0.0,0.0,0.0,0.0,0.0,0.0,0.0,0.0,0.0,0.0,0.0,0.0,0.0,0.0,0.0,0.0,0.0,0.0,0.0,0.0,0.0,0.0,0.0,0.0,0.0,0.0,0.0,0.0,0.0,0.0,0.0,0.0,0.0,0.0,0.0,0.0,0.0,0.0,0.0,0.0,0.0,0.0,0.0,0.0,0.0,0.0,0.0,0.0,0.0,0.0,0.0,0.0,0.0,0.0,0.0,0.0,0.0,0.0,0.0,0.0,0.0,0.0,0.0,0.0,0.0,0.0,0.0,0.0,0.0,0.0,0.0,0.0,0.0,0.0,0.0,0.0,0.0,0.0,0.0,0.0,0.0,0.0,0.0,0.0,0.0,0.0,0.0,0.0,0.0,0.0,0.0,0.0,0.0,0.0,0.0,0.0,0.0,0.0,0.0,0.0,0.0,0.0,0.0,0.0,0.0,0.0,0.0,0.0,0.0,0.0,0.0,0.0,0.0,0.0,0.0,0.0,0.0,0.0,0.0,0.0,0.0,0.0,0.0,0.0,0.0,0.0,0.0,0.0,0.0,0.0,0.0,0.0,0.0,0.0,0.0,0.0,0.0,0.0,0.0,0.0,0.0,0.0,0.0,0.0,0.0,0.0,0.0,0.0,0.0,0.0,0.0,0.0,0.0,0.0,0.0,0.0,0.0,0.0,0.0,0.0,0.0,0.0,0.0,0.0,0.0,0.0,0.0,0.0,0.0,0.0,0.0,0.0,0.0,0.0,0.0,0.0,0.0,0.0,0.0,0.0,0.0,0.0,0.0,0.0,0.0,0.0,0.0,0.0,0.0,0.0,0.0,0.0,0.0,0.0,0.0,0.0,0.0,0.0,0.0,0.0,0.0,0.0,0.0,0.0,0.0,0.0,0.0,0.0,0.0,0.0,0.0,0.0,0.0,0.0,0.0,0.0,0.0,0.0,0.0,0.0,0.0,0.0,0.0,0.0,0.0,0.0,0.0,0.0,0.0,0.0,0.0,0.0,0.0,0.0,0.0,0.0,0.0,0.0,0.0,0.0,0.0,0.0,0.0,0.0,0.0,0.0,0.0,0.0,0.0,0.0,0.0,0.0,0.0,0.0,0.0,0.0,0.0,0.0,0.0,0.0,0.0,0.0,0.0,0.0,0.0,0.0,0.0,0.0,0.0,0.0,0.0,0.0,0.0,0.0,0.0,0.0,0.0,0.0,0.0,0.0,0.0,0.0,0.0,0.0,0.0,0.0,0.0,0.0,0.0,0.0,0.0,0.0,0.0,0.0,0.0,0.0,0.0,0.0,0.0,0.0,0.0,0.0,0.0,0.0,0.0,0.0,0.0,0.0,0.0,0.0,0.0,0.0,0.0,0.0,0.0,0.0,0.0,0.0,0.0,0.0,0.0,0.0,0.0,0.0,0.0,0.0,0.0,0.0,0.0,0.0,0.0,0.0,0.0,0.0,0.0,0.0,0.0,0.0,0.0,0.0,0.0,0.0,0.0,0.0,0.0,0.0,0.0,0.0,0.0,0.0,0.0,0.0,0.0,0.0,0.0,0.0,0.0,0.0,0.0,0.0,0.0,0.0,0.0,0.0,0.0,0.0,0.0,0.0,0.0,0.0,0.0,0.0,0.0,0.0,0.0,0.0,0.0,0.0,0.0,0.0,0.0,0.0,0.0,0.0,0.0,0.0,0.0,0.0,0.0,0.0,0.0,0.0,0.0,0.0,0.0,0.0,0.0,0.0,0.0,0.0,0.0,0.0,0.0,0.0,0.0,0.0,0.0,0.0,0.0,0.0,0.0,0.0,0.0,0.0,0.0,0.0,0.0,0.0,0.0,0.0,0.0,0.0,0.0,0.0,0.0,0.0,0.0,0.0,0.0,0.0,0.0,0.0,0.0,0.0,0.0,0.0,0.0,0.0,0.0,0.0,0.0,0.0,0.0,0.0,0.0,0.0,0.0,0.0,0.0,0.0,0.0,0.0,0.0,0.0,0.0,0.0,0.0,0.0,0.0,0.0,0.0,0.0,0.0,0.0,0.0,0.0,0.0,0.0,0.0,0.0,0.0,0.0,0.0,0.0,0.0,0.0,0.0,0.0,0.0,0.0,0.0,0.0,0.0,0.0,0.0,0.0,0.0,0.0,0.0,0.0,0.0,0.0,0.0,0.0,0.0,0.0,0.0,0.0,0.0,0.0,0.0,0.0,0.0,0.0,0.0,0.0,0.0,0.0,0.0,0.0,0.0,0.0,0.0,0.0,0.0,0.0,0.0,0.0,0.0,0.0,0.0,0.0,0.0,0.0,0.0,0.0,0.0,0.0,0.0,0.0,0.0,0.0,0.0,0.0,0.0,0.0,0.0,0.0,0.0,0.0,0.0,0.0,0.0,0.0,0.0,0.0,0.0,0.0,0.0,0.0,0.0,0.0,0.0,0.0,0.0,0.0,0.0,0.0,0.0,0.0,0.0,0.0,0.0,0.0,0.0,0.0,0.0,0.0,0.0,0.0,0.0,0.0,0.0,0.0,0.0,0.0,0.0,0.0,0.0,0.0,0.0,0.0,0.0,0.0,0.0,0.0,0.0,0.0,0.0,0.0,0.0,0.0,0.0,0.0,0.0,0.0,0.0,0.0,0.0,0.0,0.0,0.0,0.0,0.0,0.0,0.0,0.0,0.0,0.0,0.0,0.0,0.0,0.0,0.0,0.0,0.0,0.0,0.0,0.0,0.0,0.0,0.0,0.0,0.0,0.0,0.0,0.0,0.0,0.0,0.0,0.0,0.0,0.0,0.0,0.0,0.0,0.0,0.0,0.0,0.0,0.0,0.0,0.0,0.0,0.0,0.0,0.0,0.0,0.0,0.0,0.0,0.0,0.0,0.0,0.0,0.0,0.0,0.0,0.0,0.0,0.0,0.0,0.0,0.0,0.0,0.0,0.0,0.0,0.0,0.0,0.0,0.0,0.0,0.0,0.0,0.0,3.902,0.0,0.0,0.0,0.0,0.0,0.0,0.0,0.0,0.0,0.0,0.0,0.0,0.0,0.0,0.0,0.0,0.0,0.0,0.0,0.0,0.0,0.0,0.0,0.0,0.0,0.0,0.0,0.0,0.0,0.0,0.0,0.0,0.0,0.0,0.0,0.0,0.0,0.0,0.0,0.0,0.0,0.0,0.0,0.0,0.0,0.0,0.0,0.0,0.0,0.0,0.0,0.0,0.0,0.0,0.0,0.0,0.0,0.0,0.0,0.0,0.0,0.0,0.0,0.0,0.0,0.0,0.0,0.0,0.0,0.0,0.0,0.0,0.0,0.0,0.0,0.0,0.0,0.0,0.0,0.0,0.0,0.0,0.0,0.0,0.0,0.0,0.0,0.0,0.0,0.0,0.0,0.0,0.0,0.0,0.0,0.0,0.0,0.0,0.0,0.0,0.0,0.0,0.0,0.0,0.0,0.0,0.0,0.0,0.0,0.0,4.1414,3.9559,4.324,4.312,3.8661,0.0,0.0,0.0,0.0,0.0,0.0,0.0,0.0,0.0,0.0,0.0,0.0,0.0,0.0,0.0,0.0,0.0,0.0,0.0,0.0,0.0,0.0,0.0,0.0,0.0,0.0,0.0,0.0,0.0,0.0,0.0,0.0,0.0,0.0,0.0,0.0,0.0,0.0,0.0,0.0,0.0,0.0,0.0,0.0,0.0,0.0,0.0,0.0,0.0,0.0,0.0,0.0,0.0,0.0,0.0,0.0,0.0,0.0,0.0,0.0,0.0,0.0,0.0,0.0,0.0,0.0,0.0,0.0,0.0,0.0,0.0,0.0,0.0,0.0,0.0,0.0,0.0,0.0,0.0,0.0,0.0,0.0,0.0,0.0,0.0,0.0,0.0,0.0,0.0,0.0,0.0,0.0,0.0,0.0,0.0,0.0,0.0,0.0,0.0,0.0,0.0,0.0,0.0,0.0,0.0,0.0,0.0,0.0,0.0,0.0,0.0,0.0,4.303,4.297,3.9499,0.0,0.0,0.0,0.0,0.0,0.0,0.0,0.0,0.0,0.0,0.0,0.0,0.0,0.0,0.0,0.0,0.0,0.0,0.0,0.0,0.0,0.0,0.0,0.0,0.0,0.0,0.0,0.0,0.0,0.0,0.0,0.0,0.0,0.0,0.0,0.0,0.0,0.0,0.0,0.0,0.0,0.0,0.0,0.0,0.0,0.0,0.0,0.0,0.0,0.0,0.0,0.0,0.0,0.0,0.0,0.0,0.0,0.0,0.0,0.0,0.0,0.0,0.0,0.0,0.0,0.0,0.0,0.0,0.0,0.0,0.0,0.0,0.0,0.0,0.0,0.0,0.0,0.0,0.0,0.0,0.0,0.0,0.0,0.0,0.0,0.0,0.0,0.0,0.0,0.0,0.0,0.0,0.0,0.0,0.0,0.0,0.0,0.0,0.0,0.0,0.0,0.0,0.0,0.0,0.0,0.0,0.0,0.0,0.0,0.0,4.0457,4.2043,4.2462,0.0,4.1953,0.0,0.0,0.0,0.0,0.0,0.0,0.0,0.0,0.0,0.0,0.0,0.0,0.0,0.0,0.0,0.0,0.0,0.0,0.0,0.0,0.0,0.0,0.0,0.0,0.0,0.0,0.0,0.0,0.0,0.0,0.0,0.0,0.0,0.0,0.0,0.0,0.0,0.0,0.0,0.0,0.0,0.0,0.0,0.0,0.0,0.0,0.0,0.0,0.0,0.0,0.0,0.0,0.0,0.0,0.0,0.0,0.0,0.0,0.0,0.0,0.0,0.0,0.0,0.0,0.0,0.0,0.0,0.0,0.0,0.0,0.0,0.0,0.0,0.0,0.0,0.0,0.0,0.0,0.0,0.0,0.0,0.0,0.0,0.0,0.0,0.0,0.0,0.0,0.0,0.0,0.0,0.0,0.0,0.0,0.0,0.0,0.0,0.0,0.0,0.0,0.0,0.0,0.0,0.0,0.0,0.0,0.0,0.0,0.0,0.0,4.0756,4.2342,4.2342,4.1833,0.0,0.0,0.0,0.0,0.0,0.0,0.0,0.0,0.0,0.0,0.0,0.0,0.0,0.0,0.0,0.0,0.0,0.0,0.0,0.0,0.0,0.0,0.0,0.0,0.0,0.0,0.0,0.0,0.0,0.0,0.0,0.0,0.0,0.0,0.0,0.0,0.0,0.0,0.0,0.0,0.0,0.0,0.0,0.0,0.0,0.0,0.0,0.0,0.0,0.0,0.0,0.0,0.0,0.0,0.0,0.0,0.0,0.0,0.0,0.0,0.0,0.0,0.0,0.0,0.0,0.0,0.0,0.0,0.0,0.0,0.0,0.0,0.0,0.0,0.0,0.0,0.0,0.0,0.0,0.0,0.0,0.0,0.0,0.0,0.0,0.0,0.0,0.0,0.0,0.0,0.0,0.0,0.0,0.0,0.0,0.0,0.0,0.0,0.0,0.0,0.0,0.0,0.0,0.0,0.0,0.0,0.0,0.0,0.0,0.0,4.0965,4.1654,4.303,4.2462,4.1414,4.0008,0.0,0.0,0.0,0.0,0.0,0.0,0.0,0.0,0.0,0.0,0.0,0.0,0.0,0.0,0.0,0.0,0.0,0.0,0.0,0.0,0.0,0.0,0.0,0.0,0.0,0.0,0.0,0.0,0.0,0.0,0.0,0.0,0.0,0.0,0.0,0.0,0.0,0.0,0.0,0.0,0.0,0.0,0.0,0.0,0.0,0.0,0.0,0.0,0.0,0.0,0.0,0.0,0.0,0.0,0.0,0.0,0.0,0.0,0.0,0.0,0.0,0.0,0.0,0.0,0.0,0.0,0.0,0.0,0.0,0.0,0.0,0.0,0.0,0.0,0.0,0.0,0.0,0.0,0.0,0.0,0.0,0.0,0.0,0.0,0.0,0.0,0.0,0.0,0.0,0.0,0.0,0.0,0.0,0.0,0.0,0.0,0.0,0.0,0.0,0.0,0.0,0.0,0.0,0.0,0.0,0.0,0.0,0.0,4.4676,4.321,4.321,4.5005,4.2731,4.1384,0.0,0.0,0.0,0.0,0.0,0.0,0.0,0.0,0.0,0.0,0.0,0.0,0.0,0.0,0.0,0.0,0.0,0.0,0.0,0.0,0.0,0.0,0.0,0.0,0.0,0.0,0.0,0.0,0.0,0.0,0.0,0.0,0.0,0.0,0.0,0.0,0.0,0.0,0.0,0.0,0.0,0.0,0.0,0.0,0.0,0.0,0.0,0.0,0.0,0.0,0.0,0.0,0.0,0.0,0.0,0.0,0.0,0.0,0.0,0.0,0.0,0.0,0.0,0.0,0.0,0.0,0.0,0.0,0.0,0.0,0.0,0.0,0.0,0.0,0.0,0.0,0.0,0.0,0.0,0.0,0.0,0.0,0.0,0.0,0.0,0.0,0.0,0.0,0.0,0.0,0.0,0.0,0.0,0.0,0.0,0.0,0.0,0.0,0.0,0.0,0.0,0.0,0.0,0.0,0.0,0.0,0.0,0.0,0.0,4.0905,4.3479,4.5035,4.5274,4.4377,4.3509,0.0,0.0,0.0,0.0,0.0,0.0,0.0,0.0,0.0,0.0,0.0,0.0,0.0,0.0,0.0,0.0,0.0,0.0,0.0,0.0,0.0,0.0,0.0,0.0,0.0,0.0,0.0,0.0,0.0,0.0,0.0,0.0,0.0,0.0,0.0,0.0,0.0,0.0,0.0,0.0,0.0,0.0,0.0,0.0,0.0,0.0,0.0,0.0,0.0,0.0,0.0,0.0,0.0,0.0,0.0,0.0,0.0,0.0,0.0,0.0,0.0,0.0,0.0,0.0,0.0,0.0,0.0,0.0,0.0,0.0,0.0,0.0,0.0,0.0,0.0,0.0,0.0,0.0,0.0,0.0,0.0,0.0,0.0,0.0,0.0,0.0,0.0,0.0,0.0,0.0,0.0,0.0,0.0,0.0,0.0,0.0,0.0,0.0,0.0,0.0,0.0,0.0,0.0,0.0,0.0,0.0,0.0,0.0,0.0,4.0696,0.0,4.7369,4.686,4.5424,4.4047,0.0,0.0,0.0,0.0,0.0,0.0,0.0,0.0,0.0,0.0,0.0,0.0,0.0,0.0,0.0,0.0,0.0,0.0,0.0,0.0,0.0,0.0,0.0,0.0,0.0,0.0,0.0,0.0,0.0,0.0,0.0,0.0,0.0,0.0,0.0,0.0,0.0,0.0,0.0,0.0,0.0,0.0,0.0,0.0,0.0,0.0,0.0,0.0,0.0,0.0,0.0,0.0,0.0,0.0,0.0,0.0,0.0,0.0,0.0,0.0,0.0,0.0,0.0,0.0,0.0,0.0,0.0,0.0,0.0,0.0,0.0,0.0,0.0,0.0,0.0,0.0,0.0,0.0,0.0,0.0,0.0,0.0,0.0,0.0,0.0,0.0,0.0,0.0,0.0,0.0,0.0,0.0,0.0,0.0,0.0,0.0,0.0,0.0,0.0,0.0,0.0,0.0,0.0,0.0,0.0,0.0,0.0,0.0,4.0068,4.5035,4.8416,5.0092,5.0122,4.5843,4.2851,0.0,0.0,0.0,0.0,0.0,0.0,0.0,0.0,0.0,0.0,0.0,0.0,0.0,0.0,0.0,0.0,0.0,0.0,0.0,0.0,0.0,0.0,0.0,0.0,0.0,0.0,0.0,0.0,0.0,0.0,0.0,0.0,0.0,0.0,0.0,0.0,0.0,0.0,0.0,0.0,0.0,0.0,0.0,0.0,0.0,0.0,0.0,0.0,0.0,0.0,0.0,0.0,0.0,0.0,0.0,0.0,0.0,0.0,0.0,0.0,0.0,0.0,0.0,0.0,0.0,0.0,0.0,0.0,0.0,0.0,0.0,0.0,0.0,0.0,0.0,0.0,0.0,0.0,0.0,0.0,0.0,0.0,0.0,0.0,0.0,0.0,0.0,0.0,0.0,0.0,0.0,0.0,0.0,0.0,0.0,0.0,0.0,0.0,0.0,0.0,0.0,0.0,0.0,0.0,0.0,0.0,0.0,0.0,0.0,4.4018,4.8506,5.09,5.081,4.7339,4.5424,0.0,0.0,0.0,0.0,0.0,0.0,0.0,0.0,0.0,0.0,0.0,0.0,0.0,0.0,0.0,0.0,0.0,0.0,0.0,0.0,0.0,0.0,0.0,0.0,0.0,0.0,0.0,0.0,0.0,0.0,0.0,0.0,0.0,0.0,0.0,0.0,0.0,0.0,0.0,0.0,0.0,0.0,0.0,0.0,0.0,0.0,0.0,0.0,0.0,0.0,0.0,0.0,0.0,0.0,0.0,0.0,0.0,0.0,0.0,0.0,0.0,0.0,0.0,0.0,0.0,0.0,0.0,0.0,0.0,0.0,0.0,0.0,0.0,0.0,0.0,0.0,0.0,0.0,0.0,0.0,0.0,0.0,0.0,0.0,0.0,0.0,0.0,0.0,0.0,0.0,0.0,0.0,0.0,0.0,0.0,0.0,0.0,0.0,0.0,0.0,0.0,0.0,0.0,0.0,0.0,0.0,0.0,0.0,0.0,4.7189,5.1199,5.3414,5.3414,4.9284,4.713,4.7189,0.0,0.0,0.0,0.0,0.0,0.0,0.0,0.0,0.0,0.0,0.0,0.0,0.0,0.0,0.0,0.0,0.0,0.0,0.0,0.0,0.0,0.0,0.0,0.0,0.0,0.0,0.0,0.0,0.0,0.0,0.0,0.0,0.0,0.0,0.0,0.0,0.0,0.0,0.0,0.0,0.0,0.0,0.0,0.0,0.0,0.0,0.0,0.0,0.0,0.0,0.0,0.0,0.0,0.0,0.0,0.0,0.0,0.0,0.0,0.0,0.0,0.0,0.0,0.0,0.0,0.0,0.0,0.0,0.0,0.0,0.0,0.0,0.0,0.0,0.0,0.0,0.0,0.0,0.0,0.0,0.0,0.0,0.0,0.0,0.0,0.0,0.0,0.0,0.0,0.0,0.0,0.0,0.0,0.0,0.0,0.0,0.0,0.0,0.0,0.0,0.0,0.0,0.0,0.0,0.0,0.0,0.0,0.0,5.3234,5.5837,5.7124,5.6944,5.1379,4.8057,0.0,0.0,0.0,0.0,0.0,0.0,0.0,0.0,0.0,0.0,0.0,0.0,0.0,0.0,0.0,0.0,0.0,0.0,0.0,0.0,0.0,0.0,0.0,0.0,0.0,0.0,0.0,0.0,0.0,0.0,0.0,0.0,0.0,0.0,0.0,0.0,0.0,0.0,0.0,0.0,0.0,0.0,0.0,0.0,0.0,0.0,0.0,0.0,0.0,0.0,0.0,0.0,0.0,0.0,0.0,0.0,0.0,0.0,0.0,0.0,0.0,0.0,0.0,0.0,0.0,0.0,0.0,0.0,0.0,0.0,0.0,0.0,0.0,0.0,0.0,0.0,0.0,0.0,0.0,0.0,0.0,0.0,0.0,0.0,0.0,0.0,0.0,0.0,0.0,0.0,0.0,0.0,0.0,0.0,0.0,0.0,0.0,0.0,0.0,0.0,0.0,0.0,0.0,0.0,0.0,0.0,0.0,0.0,0.0,5.4581,5.7214,5.8112,5.7034,5.1858,4.8925,0.0,0.0,0.0,0.0,0.0,0.0,0.0,0.0,0.0,0.0,0.0,0.0,0.0,0.0,0.0,0.0,0.0,0.0,0.0,0.0,0.0,0.0,0.0,0.0,0.0,0.0,0.0,0.0,0.0,0.0,0.0,0.0,0.0,0.0,0.0,0.0,0.0,0.0,0.0,0.0,0.0,0.0,0.0,0.0,0.0,0.0,0.0,0.0,0.0,0.0,0.0,0.0,0.0,0.0,0.0,0.0,0.0,0.0,0.0,0.0,0.0,0.0,0.0,0.0,0.0,0.0,0.0,0.0,0.0,0.0,0.0,0.0,0.0,0.0,0.0,0.0,0.0,0.0,0.0,0.0,0.0,0.0,0.0,0.0,0.0,0.0,0.0,0.0,0.0,0.0,0.0,0.0,0.0,0.0,0.0,0.0,0.0,0.0,0.0,0.0,0.0,0.0,0.0,0.0,0.0,0.0,0.0,0.0,5.2396,5.6735,5.8321,5.874,5.7962,5.3922,5.1079,0.0,0.0,0.0,0.0,0.0,0.0,0.0,0.0,0.0,0.0,0.0,0.0,0.0,0.0,0.0,0.0,0.0,0.0,0.0,0.0,0.0,0.0,0.0,0.0,0.0,0.0,0.0,0.0,0.0,0.0,0.0,0.0,0.0,0.0,0.0,0.0,0.0,0.0,0.0,0.0,0.0,0.0,0.0,0.0,0.0,0.0,0.0,0.0,0.0,0.0,0.0,0.0,0.0,0.0,0.0,0.0,0.0,0.0,0.0,0.0,0.0,0.0,0.0,0.0,0.0,0.0,0.0,0.0,0.0,0.0,0.0,0.0,0.0,0.0,0.0,0.0,0.0,0.0,0.0,0.0,0.0,0.0,0.0,0.0,0.0,0.0,0.0,0.0,0.0,0.0,0.0,0.0,0.0,0.0,0.0,0.0,0.0,0.0,0.0,0.0,0.0,0.0,0.0,0.0,0.0,0.0,0.0,0.0,5.3264,5.8949,5.9099,5.9099,5.9039,5.6555,5.3653,0.0,0.0,0.0,0.0,0.0,0.0,0.0,0.0,0.0,0.0,0.0,0.0,0.0,0.0,0.0,0.0,0.0,0.0,0.0,0.0,0.0,0.0,0.0,0.0,0.0,0.0,0.0,0.0,0.0,0.0,0.0,0.0,0.0,0.0,0.0,0.0,0.0,0.0,0.0,0.0,0.0,0.0,0.0,0.0,0.0,0.0,0.0,0.0,0.0,0.0,0.0,0.0,0.0,0.0,0.0,0.0,0.0,0.0,0.0,0.0,0.0,0.0,0.0,0.0,0.0,0.0,0.0,0.0,0.0,0.0,0.0,0.0,0.0,0.0,0.0,0.0,0.0,0.0,0.0,0.0,0.0,0.0,0.0,0.0,0.0,0.0,0.0,0.0,0.0,0.0,0.0,0.0,0.0,0.0,0.0,0.0,0.0,0.0,0.0,0.0,0.0,0.0,0.0,0.0,0.0,0.0,0.0,0.0,5.4162,5.8949,5.9099,5.9099,5.9099,5.6555,5.3892,0.0,0.0,0.0,0.0,0.0,0.0,0.0,0.0,0.0,0.0,0.0,0.0,0.0,0.0,0.0,0.0,0.0,0.0,0.0,0.0,0.0,0.0,0.0,0.0,0.0,0.0,0.0,0.0,0.0,0.0,0.0,0.0,0.0,0.0,0.0,0.0,0.0,0.0,0.0,0.0,0.0,0.0,0.0,0.0,0.0,0.0,0.0,0.0,3.7039,0.0,0.0,0.0,0.0,0.0,0.0,0.0,0.0,0.0,0.0,0.0,0.0,0.0,0.0,0.0,0.0,0.0,0.0,0.0,0.0,0.0,0.0,0.0,0.0,0.0,0.0,0.0,0.0,0.0,0.0,0.0,0.0,0.0,0.0,0.0,0.0,0.0,0.0,0.0,0.0,0.0,0.0,0.0,0.0,0.0,0.0,0.0,0.0,0.0,0.0,0.0,0.0,0.0,0.0,0.0,0.0,0.0,0.0,0.0,5.5388,5.8949,5.9099,5.9249,5.9488,5.8201,5.5538,0.0,0.0,0.0,0.0,0.0,0.0,0.0,0.0,0.0,0.0,0.0,0.0,0.0,0.0,0.0,0.0,0.0,0.0,0.0,0.0,0.0,0.0,0.0,0.0,0.0,0.0,0.0,0.0,0.0,0.0,0.0,0.0,0.0,0.0,0.0,0.0,0.0,0.0,0.0,0.0,0.0,0.0,0.0,0.0,0.0,0.0,0.0,0.0,0.0,0.0,0.0,0.0,0.0,0.0,0.0,0.0,0.0,0.0,0.0,0.0,0.0,0.0,0.0,0.0,0.0,0.0,0.0,0.0,0.0,0.0,0.0,0.0,0.0,0.0,0.0,0.0,0.0,0.0,0.0,0.0,0.0,0.0,0.0,0.0,0.0,0.0,0.0,0.0,0.0,0.0,0.0,0.0,0.0,0.0,0.0,0.0,0.0,0.0,0.0,0.0,0.0,0.0,0.0,0.0,0.0,0.0,0.0,5.3473,5.6316,5.9099,5.9368,5.9697,6.0236,6.0236,5.7483,5.1798,0.0,0.0,0.0,0.0,0.0,0.0,0.0,0.0,0.0,0.0,0.0,0.0,0.0,0.0,0.0,0.0,0.0,0.0,0.0,0.0,0.0,0.0,0.0,0.0,0.0,0.0,0.0,0.0,0.0,0.0,0.0,0.0,0.0,0.0,0.0,0.0,0.0,0.0,3.5269,3.8868,0.0,0.0,0.0,0.0,0.0,0.0,0.0,0.0,4.108,0.0,0.0,0.0,0.0,0.0,0.0,0.0,0.0,0.0,0.0,0.0,0.0,0.0,0.0,0.0,0.0,0.0,0.0,0.0,0.0,0.0,0.0,0.0,0.0,0.0,0.0,0.0,0.0,0.0,0.0,0.0,0.0,0.0,0.0,0.0,0.0,0.0,0.0,0.0,0.0,0.0,0.0,0.0,0.0,0.0,0.0,0.0,0.0,0.0,0.0,0.0,0.0,0.0,0.0,0.0,0.0,5.2923,5.3331,5.5598,5.9817,6.0475,6.0835,6.0954,6.0954,5.8411,5.3174,0.0,0.0,0.0,0.0,0.0,0.0,0.0,0.0,0.0,0.0,0.0,0.0,0.0,0.0,0.0,0.0,0.0,0.0,0.0,0.0,0.0,0.0,0.0,0.0,0.0,0.0,0.0,0.0,0.0,0.0,0.0,0.0,0.0,0.0,0.0,0.0,0.0,0.0,0.0,4.3797,4.5047,0.0,0.0,0.0,0.0,0.0,0.0,0.0,0.0,4.2034,0.0,0.0,0.0,0.0,0.0,0.0,0.0,0.0,0.0,0.0,0.0,0.0,0.0,0.0,0.0,0.0,0.0,0.0,0.0,0.0,0.0,0.0,0.0,0.0,0.0,0.0,0.0,0.0,0.0,0.0,0.0,0.0,0.0,0.0,0.0,0.0,0.0,0.0,0.0,0.0,0.0,0.0,0.0,0.0,0.0,0.0,0.0,0.0,0.0,0.0,0.0,0.0,0.0,0.0,0.0,5.2798,5.5718,5.8381,6.0535,6.0954,6.1283,6.1613,6.1642,5.9129,0.0,0.0,0.0,0.0,0.0,0.0,0.0,0.0,0.0,0.0,0.0,0.0,0.0,0.0,0.0,0.0,0.0,0.0,0.0,0.0,0.0,0.0,0.0,0.0,0.0,0.0,0.0,0.0,0.0,0.0,0.0,0.0,0.0,0.0,0.0,0.0,0.0,0.0,0.0,0.0,4.5443,4.654,4.7534,0.0,0.0,0.0,0.0,0.0,0.0,4.4439,4.3979,0.0,0.0,0.0,0.0,0.0,0.0,0.0,0.0,0.0,0.0,0.0,0.0,0.0,0.0,0.0,0.0,0.0,0.0,0.0,0.0,0.0,0.0,0.0,0.0,0.0,0.0,0.0,0.0,0.0,0.0,0.0,0.0,0.0,0.0,0.0,0.0,0.0,0.0,0.0,0.0,0.0,0.0,0.0,0.0,0.0,0.0,0.0,0.0,0.0,0.0,0.0,0.0,0.0,0.0,0.0,5.2402,5.7693,6.0775,6.1283,6.1433,6.1762,6.2271,6.2271,5.9817,0.0,0.0,0.0,0.0,0.0,0.0,0.0,0.0,0.0,0.0,0.0,0.0,0.0,0.0,0.0,0.0,0.0,0.0,0.0,0.0,0.0,0.0,0.0,0.0,0.0,0.0,0.0,0.0,0.0,0.0,0.0,0.0,0.0,0.0,0.0,0.0,0.0,0.0,0.0,0.0,0.0,4.7947,4.9281,4.812,0.0,0.0,0.0,0.0,4.7002,4.724,0.0,0.0,0.0,0.0,0.0,0.0,0.0,0.0,0.0,0.0,0.0,0.0,0.0,0.0,0.0,0.0,0.0,0.0,0.0,0.0,0.0,0.0,0.0,0.0,0.0,0.0,0.0,0.0,0.0,0.0,0.0,0.0,0.0,0.0,0.0,0.0,0.0,0.0,0.0,0.0,0.0,0.0,0.0,0.0,0.0,0.0,0.0,0.0,0.0,0.0,0.0,0.0,0.0,0.0,0.0,0.0,5.2725,5.6522,5.9608,6.1882,6.254,6.2899,6.2989,6.2959,6.0475,0.0,0.0,0.0,0.0,0.0,0.0,0.0,0.0,0.0,0.0,0.0,0.0,0.0,0.0,0.0,0.0,0.0,0.0,0.0,0.0,0.0,0.0,0.0,0.0,0.0,0.0,0.0,0.0,0.0,0.0,0.0,0.0,0.0,0.0,0.0,0.0,0.0,0.0,0.0,0.0,0.0,5.0324,4.8288,4.8107,4.7664,0.0,0.0,4.9847,5.0932,5.2512,0.0,0.0,0.0,0.0,0.0,0.0,0.0,0.0,0.0,0.0,0.0,0.0,0.0,0.0,0.0,0.0,0.0,0.0,0.0,0.0,0.0,0.0,0.0,0.0,0.0,0.0,0.0,0.0,0.0,0.0,0.0,0.0,0.0,0.0,0.0,0.0,0.0,0.0,0.0,0.0,0.0,0.0,0.0,0.0,0.0,0.0,0.0,0.0,0.0,0.0,0.0,0.0,0.0,0.0,0.0,5.1031,5.3839,5.8534,6.1493,6.26,6.2929,6.3079,6.3079,6.3079,6.0416,0.0,0.0,0.0,0.0,0.0,0.0,0.0,0.0,0.0,0.0,0.0,0.0,0.0,0.0,0.0,0.0,0.0,0.0,0.0,0.0,0.0,0.0,0.0,0.0,0.0,0.0,0.0,0.0,0.0,0.0,0.0,0.0,0.0,0.0,0.0,0.0,0.0,0.0,0.0,0.0,0.0,0.0,5.1471,5.0376,0.0,0.0,0.0,5.2086,5.3274,0.0,0.0,0.0,0.0,0.0,0.0,0.0,0.0,0.0,0.0,0.0,0.0,0.0,0.0,0.0,0.0,0.0,0.0,0.0,0.0,0.0,0.0,0.0,0.0,0.0,0.0,0.0,0.0,0.0,0.0,0.0,0.0,0.0,0.0,0.0,0.0,0.0,0.0,0.0,0.0,0.0,0.0,0.0,0.0,0.0,0.0,0.0,0.0,0.0,0.0,0.0,0.0,0.0,0.0,0.0,0.0,0.0,5.4586,6.0136,6.3079,6.3079,6.3079,6.3079,6.3079,6.3079,0.0,0.0,0.0,0.0,0.0,0.0,0.0,0.0,0.0,0.0,0.0,0.0,0.0,0.0,0.0,0.0,0.0,0.0,0.0,0.0,0.0,0.0,0.0,0.0,0.0,0.0,0.0,3.7198,0.0,0.0,0.0,0.0,0.0,0.0,0.0,0.0,0.0,0.0,0.0,0.0,0.0,0.0,5.191,5.3347,5.2223,5.1936,0.0,0.0,5.4162,5.5394,5.7173,5.7751,0.0,0.0,0.0,0.0,0.0,0.0,0.0,0.0,0.0,0.0,0.0,0.0,0.0,0.0,0.0,0.0,0.0,0.0,0.0,0.0,0.0,0.0,0.0,0.0,0.0,0.0,0.0,0.0,0.0,0.0,0.0,0.0,0.0,0.0,0.0,0.0,0.0,0.0,0.0,0.0,0.0,0.0,0.0,0.0,0.0,0.0,0.0,0.0,0.0,0.0,0.0,0.0,0.0,0.0,5.2786,5.4873,6.0276,6.3079,6.3079,6.3079,6.3079,6.3079,6.3079,6.0296,0.0,0.0,0.0,0.0,0.0,0.0,0.0,0.0,0.0,0.0,0.0,0.0,0.0,0.0,0.0,0.0,0.0,0.0,0.0,0.0,0.0,0.0,0.0,0.0,0.0,0.0,0.0,0.0,0.0,0.0,0.0,0.0,0.0,0.0,0.0,0.0,0.0,0.0,0.0,0.0,0.0,5.1073,5.1701,5.2119,5.3255,0.0,5.6232,5.6641,5.7828,6.0137,6.15,6.0723,0.0,0.0,0.0,0.0,0.0,0.0,0.0,0.0,0.0,0.0,0.0,0.0,0.0,0.0,0.0,0.0,0.0,0.0,0.0,0.0,0.0,0.0,0.0,0.0,0.0,0.0,0.0,0.0,0.0,0.0,0.0,0.0,0.0,0.0,0.0,0.0,0.0,0.0,0.0,0.0,0.0,0.0,0.0,0.0,0.0,0.0,0.0,0.0,0.0,0.0,0.0,0.0,0.0,5.2967,5.5387,6.0486,6.3079,6.3079,6.3079,6.3079,6.3079,6.3079,6.1044,0.0,0.0,0.0,0.0,0.0,0.0,0.0,0.0,0.0,0.0,0.0,0.0,0.0,0.0,0.0,0.0,0.0,0.0,0.0,0.0,0.0,0.0,0.0,0.0,0.0,0.0,0.0,0.0,4.6661,4.6903,4.5836,0.0,0.0,0.0,0.0,0.0,0.0,0.0,0.0,0.0,0.0,5.3605,5.4313,5.3598,0.0,0.0,5.7338,5.7277,5.9585,6.1124,6.2032,6.1762,6.2271,0.0,0.0,0.0,0.0,0.0,0.0,0.0,0.0,0.0,0.0,0.0,0.0,0.0,0.0,0.0,0.0,0.0,0.0,0.0,0.0,0.0,0.0,0.0,0.0,0.0,0.0,0.0,0.0,0.0,0.0,0.0,0.0,0.0,0.0,0.0,0.0,0.0,0.0,0.0,0.0,0.0,0.0,0.0,0.0,0.0,0.0,0.0,0.0,0.0,0.0,0.0,0.0,5.3395,5.5948,6.0716,6.3079,6.3194,6.3194,6.3079,6.3079,6.3079,6.1523,0.0,0.0,0.0,0.0,0.0,0.0,0.0,0.0,0.0,0.0,0.0,0.0,0.0,0.0,0.0,0.0,0.0,0.0,0.0,0.0,0.0,0.0,0.0,0.0,0.0,0.0,0.0,0.0,4.9494,4.9284,4.8027,0.0,0.0,0.0,0.0,0.0,0.0,0.0,0.0,0.0,0.0,5.5862,5.6949,5.5826,5.6085,5.9558,5.8631,5.8406,6.0707,6.1672,6.2151,6.2361,0.0,0.0,0.0,0.0,0.0,0.0,0.0,0.0,0.0,0.0,0.0,0.0,0.0,0.0,0.0,0.0,0.0,0.0,0.0,0.0,0.0,0.0,0.0,0.0,0.0,0.0,0.0,0.0,0.0,0.0,3.6538,0.0,0.0,0.0,0.0,0.0,0.0,0.0,0.0,0.0,0.0,0.0,0.0,0.0,0.0,0.0,0.0,0.0,0.0,0.0,0.0,0.0,0.0,5.3914,5.6274,6.0826,6.3194,6.3424,6.3194,6.3079,6.3079,6.3079,6.1523,5.8201,0.0,0.0,0.0,0.0,0.0,0.0,0.0,0.0,0.0,0.0,0.0,0.0,0.0,0.0,0.0,0.0,0.0,0.0,0.0,0.0,0.0,0.0,0.0,0.0,0.0,0.0,4.6561,4.6501,4.7369,0.0,0.0,0.0,0.0,0.0,0.0,0.0,0.0,0.0,0.0,5.6495,5.6894,5.8828,5.8379,5.8503,6.0001,6.0061,6.0209,6.0999,6.1702,6.2331,0.0,0.0,0.0,0.0,0.0,0.0,0.0,0.0,0.0,0.0,0.0,0.0,0.0,0.0,0.0,0.0,0.0,0.0,0.0,0.0,0.0,0.0,0.0,0.0,0.0,0.0,0.0,3.9739,3.9493,0.0,0.0,0.0,0.0,0.0,0.0,0.0,0.0,0.0,0.0,0.0,6.0794,6.1255,0.0,0.0,0.0,0.0,0.0,0.0,0.0,0.0,0.0,0.0,0.0,0.0,5.404,5.61,6.0826,6.3309,6.3194,6.3194,6.3079,6.3079,6.3079,6.1313,5.7543,0.0,0.0,0.0,0.0,0.0,0.0,0.0,0.0,0.0,0.0,0.0,0.0,0.0,0.0,0.0,0.0,0.0,0.0,0.0,0.0,0.0,0.0,0.0,0.0,0.0,5.1917,0.0,0.0,0.0,0.0,0.0,0.0,0.0,0.0,0.0,0.0,0.0,5.6704,5.8272,5.8272,5.8716,6.0173,5.9513,5.9615,0.0,0.0,0.0,0.0,0.0,0.0,0.0,0.0,0.0,0.0,0.0,0.0,0.0,0.0,6.0984,6.0775,6.0715,6.0864,6.1313,0.0,0.0,0.0,0.0,0.0,0.0,0.0,0.0,0.0,0.0,0.0,0.0,0.0,0.0,4.4633,0.0,4.3156,0.0,0.0,0.0,0.0,0.0,0.0,0.0,0.0,5.8824,6.184,6.3533,6.3995,6.3964,0.0,6.3749,6.144,0.0,0.0,0.0,0.0,0.0,0.0,0.0,0.0,5.6091,5.7669,6.1607,6.3538,6.3424,6.3309,6.3284,6.3378,6.3647,6.2421,5.9578,5.8411,5.6585,0.0,0.0,0.0,0.0,0.0,0.0,0.0,0.0,0.0,0.0,0.0,0.0,0.0,0.0,0.0,0.0,0.0,0.0,0.0,0.0,0.0,0.0,0.0,5.5777,0.0,0.0,0.0,0.0,0.0,0.0,0.0,0.0,0.0,5.7507,5.8184,5.9143,5.9939,6.0119,6.0725,6.2228,0.0,0.0,0.0,0.0,0.0,0.0,0.0,6.4425,6.4665,6.4874,6.5024,6.5024,6.5024,6.5024,6.5024,0.0,0.0,6.4755,6.4695,6.4844,6.5293,6.5562,6.5652,6.5413,6.5562,6.5712,0.0,0.0,0.0,0.0,0.0,0.0,0.0,0.0,5.1067,5.1097,0.0,4.8266,0.0,0.0,0.0,0.0,0.0,5.159,0.0,0.0,6.2733,6.4795,6.4857,6.4888,6.4888,6.4857,6.418,6.418,6.4487,6.0855,0.0,0.0,0.0,0.0,0.0,0.0,5.9808,6.069,6.2957,6.4023,6.4023,6.3713,6.367,6.4036,6.4665,6.4665,6.3917,6.0984,5.865,5.7184,5.1169,0.0,0.0,0.0,0.0,0.0,0.0,0.0,0.0,0.0,0.0,0.0,0.0,0.0,0.0,0.0,0.0,0.0,0.0,0.0,0.0,5.6915,0.0,0.0,0.0,0.0,0.0,0.0,0.0,0.0,0.0,0.0,6.0413,5.9194,5.9257,6.171,0.0,0.0,0.0,0.0,6.4066,6.4066,6.4066,6.4096,6.4126,6.4665,6.5323,6.5922,0.0,0.0,6.5114,6.5084,6.5144,6.5114,6.5144,6.5293,6.5922,6.5951,6.5981,6.6041,6.649,6.6729,6.6251,6.646,6.6879,5.5899,0.0,0.0,0.0,0.0,5.1898,5.2944,5.4545,5.436,5.4114,5.3806,5.2852,0.0,0.0,0.0,0.0,0.0,0.0,5.67,5.9532,6.1225,6.301,6.4888,6.4888,6.4888,6.4888,6.4703,6.4703,6.4826,6.3718,6.1071,5.7131,0.0,0.0,0.0,0.0,5.9911,6.0665,6.3305,6.4546,6.4347,6.445,6.4545,6.4725,6.4934,6.4934,6.4725,6.3827,6.2061,5.9338,5.7004,0.0,0.0,0.0,0.0,0.0,0.0,0.0,0.0,0.0,0.0,0.0,0.0,0.0,0.0,0.0,0.0,0.0,0.0,0.0,6.0745,6.0835,5.9697,0.0,0.0,0.0,0.0,0.0,0.0,0.0,0.0,0.0,6.303,6.2559,6.2588,0.0,0.0,6.4129,6.4336,6.4934,6.5443,6.5443,6.5832,0.0,6.6131,6.6311,6.649,6.667,6.655,6.643,6.643,6.643,6.643,6.643,6.643,6.649,6.661,6.6311,6.6221,6.661,6.6879,6.6939,6.6789,6.6879,6.6999,6.0332,5.6423,5.5345,5.553,5.6515,5.6515,5.7592,5.9347,5.9347,5.9131,5.867,5.7592,5.6392,5.5037,5.3991,0.0,0.0,0.0,5.9193,6.184,6.224,6.3318,6.4826,6.4888,6.4888,6.4888,6.4611,6.4641,6.4888,6.4611,6.3379,6.1317,0.0,0.0,5.9285,6.1471,6.2564,6.2733,6.4657,6.5589,6.5243,6.544,6.5652,6.5532,6.5652,6.5682,6.5413,6.5413,6.4366,6.2151,6.0416,5.8471,0.0,0.0,0.0,0.0,0.0,0.0,0.0,0.0,0.0,0.0,0.0,5.1678,5.5598,0.0,0.0,0.0,5.8082,6.0446,6.2869,6.272,0.0,0.0,0.0,0.0,0.0,0.0,0.0,6.3887,6.4545,6.4994,6.4814,6.4814,6.4784,6.4784,6.5144,6.5353,6.5203,0.0,6.649,6.6759,6.7119,6.7478,6.7747,6.7777,6.7777,6.7807,6.7777,6.7777,6.7777,6.7807,6.7777,6.7777,6.7777,6.7777,6.7777,6.7448,6.7178,6.7358,6.7388,6.7448,6.7717,6.7807,6.7777,6.3349,6.3687,6.1225,6.0547,6.1101,6.1132,6.2548,6.4857,6.4857,6.4888,6.4703,6.224,6.0424,5.9131,5.6669,0.0,6.0209,6.0855,6.2456,6.4888,6.4888,6.4888,6.4888,6.4888,6.4888,6.4888,6.421,6.4272,6.4918,6.4334,6.4364,6.5134,6.575,6.5996,6.5965,6.655,6.6611,6.5996,6.6642,6.6752,6.6583,6.6607,6.6583,6.6552,6.6913,6.67,6.6131,6.6071,6.5802,6.5144,6.2271,6.0356,5.9668,0.0,0.0,0.0,0.0,0.0,0.0,0.0,0.0,0.0,0.0,0.0,0.0,0.0,0.0,0.0,6.3228,0.0,6.3228,6.3228,0.0,0.0,0.0,6.4336,6.4964,6.5054,6.5114,6.5114,0.0,0.0,6.6011,6.6131,6.6161,6.6161,6.6161,6.637,6.6909,6.7059,6.7358,6.7926,6.8046,6.8286,6.8764,6.8884,6.8884,6.8884,6.9004,6.8914,6.8914,6.8914,6.8974,6.8914,6.8974,6.8974,6.8974,6.8884,6.8824,6.8226,6.8106,6.8256,6.8764,6.8884,6.8884,6.4487,6.458,6.3933,6.3779,6.3903,6.3933,6.4303,6.4888,6.4888,6.4888,6.4857,6.421,6.3749,6.341,6.2764,6.2918,6.3687,6.3841,6.4272,6.4888,6.4888,6.4888,6.4888,6.4888,6.4888,6.4888,6.4734,6.498,6.5626,6.5503,6.6027,6.7165,6.7381,6.695,6.5965,6.6581,6.6858,6.6673,6.7089,6.7439,6.7603,6.7636,6.7487,6.7246,6.7396,6.7153,6.6759,6.6759,6.67,6.652,6.5772,6.5293,6.5084,6.1044,0.0,0.0,0.0,0.0,0.0,0.0,0.0,0.0,0.0,5.9548,6.3468,0.0,6.3498,0.0,6.4575,6.4575,6.4575,6.4575,0.0,0.0,6.4784,6.4844,6.5024,6.5473,6.5772,6.5772,6.6221,6.658,6.6729,6.7178,6.7508,6.7508,6.7508,6.7388,6.7089,6.7897,6.8585,6.8704,6.8764,6.8824,6.9004,6.9004,6.9034,6.9004,6.9004,6.9004,6.9004,6.9004,6.9004,6.9004,6.9004,6.9004,6.9064,6.9004,6.9183,6.9363,6.9123,6.8794,6.8974,6.9004,6.9004,6.4888,6.4888,6.4888,6.4703,6.4457,6.4764,6.4888,6.4888,6.4888,6.4888,6.4888,6.4888,6.4888,6.4888,6.4888,6.4888,6.4888,6.4888,6.4888,6.4888,6.4888,6.4888,6.4888,6.4888,6.5042,6.5349,6.5349,6.5688,6.6334,6.6365,6.6735,6.7473,6.7781,6.7566,6.6888,6.7473,6.7658,6.7381,6.788,6.829,6.8845,6.8756,6.8667,6.8576,6.8606,6.8484,6.8114,6.7814,6.7814,6.8084,6.7421,6.7119,6.7358,6.4725,6.4006,0.0,0.0,0.0,0.0,0.0,0.0,0.0,0.0,0.0,0.0,0.0,6.4246,6.4964,6.5024,6.5024,6.5024,6.5024,6.5144,6.5443,6.5473,6.5592,6.5862,6.6221,6.643,6.646,6.7029,6.7418,6.7448,6.8016,6.8435,6.8435,6.8675,6.8615,6.8076,6.8555,6.9093,6.9393,6.9423,6.9542,6.9782,6.9842,6.9871,6.9842,6.9842,6.9842,6.9842,6.9842,6.9931,7.0201,7.029,7.041,7.0649,7.0739,7.0889,7.1098,7.1009,7.053,6.9961,6.9871,6.9901,6.4888,6.4888,6.4888,6.4549,6.4026,6.4641,6.4795,6.4641,6.4641,6.4672,6.4764,6.4857,6.4888,6.4888,6.4888,6.4888,6.4888,6.4888,6.4888,6.4888,6.498,6.5042,6.5042,6.5103,6.5442,6.6027,6.6027,6.6365,6.7042,6.7042,6.7135,6.7319,6.7873,6.8212,6.8335,6.8858,6.8858,6.8335,6.8858,6.9443,6.9997,6.9758,6.9702,7.0036,7.0097,6.9973,6.9571,6.9027,6.8967,6.9386,6.8114,6.7631,6.8046,6.7567,6.6999,0.0,6.6849,0.0,0.0,0.0,0.0,0.0,0.0,0.0,0.0,6.5233,6.5263,6.5173,6.5233,6.5263,6.5263,6.5293,6.5503,6.6071,6.6131,6.64,6.7029,6.7119,6.7148,6.7238,6.7747,6.8106,6.8136,6.8704,6.9123,6.9183,6.9662,6.9812,6.9393,6.9303,6.9542,7.0021,7.0171,7.047,7.0889,7.1098,7.1158,7.1158,7.1158,7.1158,7.1158,7.1158,7.1338,7.1846,7.1936,7.2146,7.2834,7.2834,7.2834,7.2774,7.2714,7.2385,7.1457,7.1158,7.1338,6.4888,6.4888,6.4888,6.4826,6.4703,6.4857,6.4241,6.3225,6.3195,6.3502,6.4057,6.4641,6.4888,6.4888,6.4888,6.4888,6.4888,6.4888,6.4888,6.4918,6.5472,6.5719,6.575,6.6273,6.6611,6.6735,6.6704,6.7073,6.772,6.772,6.8274,6.932,6.9474,6.9782,7.0305,0.0,0.0,0.0,7.0459,7.0582,7.0705,7.0705,7.0556,7.0465,7.0465,0.0,6.9973,6.9822,6.9698,6.9446,6.9205,0.0,0.0,0.0,0.0,0.0,0.0,0.0,0.0,0.0,0.0,0.0,6.67,6.64,6.5892,6.6311,6.64,6.5892,6.6311,6.661,6.661,6.661,6.667,6.6789,6.6819,6.7059,6.7687,6.7777,6.7986,6.8555,6.8734,6.8824,6.8854,6.9393,6.9782,6.9842,7.035,7.0649,7.056,7.05,7.059,7.0739,7.1158,7.1547,7.1667,7.2146,7.2415,7.2535,7.2535,7.2505,7.2475,7.2475,7.2505,7.2714,7.2714,7.2744,7.2924,7.2924,7.3013,7.2924,7.2954,7.2834,7.2595,7.2535,7.2565,6.5903,0.0,6.5903,6.5503,0.0,6.5257,6.4611,6.3349,6.3687,6.4026,6.4364,6.4734,6.4888,6.4888,6.4518,6.4364,6.4364,6.4026,6.4241,6.4918,6.5257,6.575,6.6427,6.6765,6.7258,6.7873,6.7904,6.8397,6.9351,6.9382,6.9751,7.0398,7.0398,7.0582,7.089,7.1259,7.1259,7.089,7.089,7.1075,7.1413,7.1444,7.1476,7.1443,7.1691,0.0,0.0,0.0,0.0,0.0,0.0,0.0,0.0,6.931,0.0,6.9004,6.8675,6.8495,6.8465,6.8166,6.7986,6.7986,6.7986,6.7567,6.658,6.6789,6.6999,6.6999,6.7298,6.7627,6.7926,6.7986,6.7986,6.7986,6.7986,6.8106,6.8405,6.8465,6.8615,6.8944,6.9273,6.9482,6.9482,7.0051,7.041,7.047,7.0979,7.1398,7.1398,7.1398,7.1487,7.1816,7.2146,7.2385,7.2415,7.2654,7.2924,7.2924,7.2924,7.2924,7.2924,7.2924,7.2984,7.3283,7.3402,7.3462,7.3821,7.3881,7.3881,7.3881,7.3881,7.3881,7.3851,7.3373,7.3013,6.6919,6.6919,6.6919,6.6273,6.5288,6.5842,6.5442,6.4395,0.0,0.0,0.0,6.5195,6.5257,6.5195,6.4641,6.4364,6.4334,6.381,6.418,6.5257,6.5503,6.618,6.7258,6.7504,6.8181,6.9197,6.9259,6.9813,7.0859,7.089,7.0982,7.1075,7.1105,7.1167,7.129,7.1875,7.1875,7.1321,7.1259,7.1567,7.2121,7.2152,7.2275,7.2578,7.2859,7.2859,7.2608,7.2057,7.2027,7.2296,7.0789,7.0079,7.0464,6.9759,6.9333,6.9333,6.9243,6.9183,6.9153,6.9064,6.9004,6.9004,6.9004,6.8525,6.7418,6.7328,6.7567,6.8106,6.8166,6.8375,6.8944,6.9004,6.9004,6.9004,6.9004,6.9034,6.9153,6.9153,6.9243,6.9363,6.9842,7.0141,7.0171,7.0679,7.1068,7.1158,7.1637,7.2146,7.2176,7.2176,7.2235,7.2684,7.2924,7.3073,7.3103,7.3283,7.3253,7.3373,7.3343,7.3253,7.3253,7.3253,7.3492,7.3971,7.4061,7.427,7.4719,7.4779,7.4869,7.4869,7.4869,7.4869,7.4779,7.4031,7.3522,6.6919,6.6919,6.6919,6.6796,6.6642,6.6735,6.6673,6.6457,6.5996,6.578,6.5811,6.6365,6.6642,6.6611,6.6519,6.6488,6.6488,6.6396,6.6457,6.6704,6.7812,6.8427,6.8674,6.9813,7.0428,7.0613,7.0613,7.0705,7.089,7.0921,7.1198,7.1752,7.1813,7.2091,7.2645,7.2798,7.2798,7.2675,7.2706,7.2737,7.2829,7.2829,7.2891,7.2983,7.2983,7.2983,7.2983,7.2891,7.2517,7.2104,7.1825,7.1352,7.0899,7.0679,7.062,7.062,7.0141,6.9842,6.9842,6.9333,6.9004,6.9004,6.9004,6.8914,6.8734,6.8704,6.8764,6.8854,6.8854,6.8884,6.9004,6.9064,6.9093,6.9034,6.9034,6.9213,6.9752,6.9842,7.0051,7.053,7.0709,7.0769,7.0889,7.1368,7.1757,7.1846,7.2325,7.2954,7.3343,7.3133,7.2834,7.2984,7.3402,7.3702,7.3791,7.424,7.442,7.4599,7.451,7.445,7.445,7.442,7.448,7.4689,7.4659,7.4749,7.4869,7.4869,7.4869,7.4869,7.4869,7.4869,7.4869,7.4629,7.4569,6.7997,6.7997,6.7997,6.7781,6.7504,6.7843,6.8397,6.9043,6.8766,6.7781,6.655,6.6765,6.7104,6.7412,6.7073,6.6919,6.6919,6.655,6.6765,6.7473,6.8089,6.8951,6.9967,7.0613,7.1105,7.1444,7.1475,7.166,7.1998,7.2029,7.2183,7.2521,7.2521,7.2675,7.2952,7.2983,7.3168,7.3506,7.3168,7.2983,7.2983,7.2983,7.2983,7.2983,7.2983,7.2983,7.2983,7.2983,7.2859,7.2608,7.2357,7.2073,7.1819,7.1435,7.1148,7.1148,7.0779,7.047,7.047,7.0201,7.0021,7.0051,7.0021,7.0051,7.0021,6.9393,6.9153,6.9482,6.9542,6.9662,6.9991,7.0021,7.0051,7.0021,7.0021,7.0171,7.041,7.047,7.0739,7.1308,7.1427,7.1577,7.1936,7.2265,7.2445,7.2505,7.3043,7.3702,7.433,7.418,7.3971,7.4001,7.424,7.439,7.445,7.4659,7.4869,7.4869,7.4869,7.4869,7.4869,7.4869,7.4869,7.4869,7.4869,7.4869,7.4869,7.4869,7.4869,7.4869,7.4869,7.4869,7.4869,7.4869,7.4869,6.932,6.9351,6.9351,6.9043,6.8643,6.9135,6.9936,7.0859,7.0859,6.9751,6.7966,6.7812,6.812,6.852,6.8027,6.7812,6.775,6.7258,6.7627,6.852,6.8766,6.969,7.1044,7.129,7.166,7.2152,7.2214,7.2491,7.2922,7.2983,7.2983,7.3014,7.3137,7.3199,7.3229,7.3383,7.3691,7.4153,7.3691,7.3445,7.3445,7.3445,7.3445,7.3445,7.3445,7.3445,7.3445,7.3445,7.3445,7.332,7.3068,7.2911,7.2815,7.2244,7.1857,7.1857,7.1468,7.1338,7.1368,7.1368,7.1368,7.1368,7.1368,7.1368,7.1278,7.047,6.9931,7.0171,7.0201,7.038,7.0739,7.0859,7.0919,7.0919,7.1038,7.1098,7.1128,7.1248,7.1547,7.2026,7.2116,7.2325,7.2774,7.3043,7.3223,7.3432,7.3821,7.433,7.4779,7.4869,7.4869,7.4869,7.4869,7.4839,7.4869,7.4869,7.4869,7.4869,7.4869,7.4869,7.4869,7.4869,7.4869,7.4869,7.4869,7.4869,7.4869,7.4869,7.4869,7.4869,7.4869,7.4869,7.4869,7.4869,7.4869,7.0705,7.0705,7.0644,7.0705,7.0613,7.0675,7.0798,7.0952,7.0921,7.0798,7.049,7.0521,7.0521,7.0613,7.049,7.0428,7.0428,7.0459,7.0459,7.0613,7.129,7.169,7.1906,7.2491,7.2829,7.286,7.286,7.286,7.2983,7.3014,7.3014,7.3045,7.3599,7.3907,7.3968,7.4491,7.483,7.4892,7.4861,7.483,7.4799,7.483,7.483,7.483,7.4799,7.483,7.4738,7.483,7.4672,7.4415,7.4256,7.4127,7.3868,7.3476,7.3214,7.3184,7.295,7.2744,7.2714,7.2744,7.2684,7.2744,7.2654,7.2654,7.2654,7.2565,7.2026,7.1188,7.0829,7.0919,7.0889,7.0979,7.1038,7.1128,7.1487,7.1787,7.1846,7.2355,7.2774,7.2804,7.2804,7.2864,7.3073,7.3492,7.4001,7.442,7.4569,7.4689,7.4839,7.4869,7.4869,7.4869,7.4869,7.4869,7.4869,7.4869,7.4869,7.4869,7.4869,7.4869,7.4869,7.4869,7.4869,7.4869,7.4869,7.4869,7.4869,7.4869,7.4869,7.4869,7.4869,7.4869,7.4869,7.4869,7.4869,7.089,7.089,7.089,7.1167,7.1506,7.1536,7.1752,7.2121,7.2121,7.2121,7.2152,7.2152,7.1906,7.1536,7.1536,7.1536,7.1536,7.1536,7.1536,7.1567,7.1844,7.2183,7.2583,7.2829,7.2983,7.2983,7.2983,7.2983,7.3045,7.3383,7.3783,7.4153,7.4461,7.4584,7.4615,7.4861,7.5199,7.56,7.56,7.5784,7.6061,7.5415,7.5015,7.5015,7.5015,7.5015,7.5015,7.5015,7.4887,7.4887,7.4728,7.4758,7.4599,7.4211,7.4081,7.405,7.3557,7.316,7.316,7.3027,7.2924,7.2924,7.2924,7.2924,7.2924,7.2924,7.2654,7.2235,7.2086,7.2086,7.2056,7.2086,7.2116,7.2146,7.2355,7.2505,7.2505,7.2744,7.3043,7.3402,7.3492,7.3672,7.4001,7.43,7.4569,7.4839,7.4869,7.4869,7.4869,7.4869,7.4869,7.4869,7.4869,7.4869,7.4869,7.4869,7.4869,7.4869,7.4869,7.4869,7.4869,7.4869,7.4869,7.4899,7.4929,7.4929,7.4869,7.4869,7.4869,7.4929,7.4899,7.4869,7.4869,7.4869,7.4869,7.1752,7.1783,7.1937,7.2306,7.2798,7.2798,7.2983,7.3229,7.326,7.3168,7.2983,7.2983,7.2829,7.2521,7.2337,7.2244,7.2244,7.2244,7.2244,7.2244,7.2244,7.2614,7.3199,7.326,7.3353,7.3506,7.3568,7.3568,7.3599,7.3999,7.4522,7.4953,7.5199,7.5292,7.5292,7.5415,7.5784,7.6246,7.6277,7.6523,7.68,7.6061,7.5569,7.5569,7.5538,7.5569,7.5569,7.5538,7.5569,7.5569,7.5538,7.5538,7.5569,7.528,7.502,7.489,7.4365,7.41,7.3937,7.3701,7.3567,7.3462,7.3462,7.3432,7.3462,7.3462,7.3462,7.3432,7.3462,7.3373,7.2924,7.2924,7.2924,7.2924,7.3043,7.3193,7.3193,7.3313,7.3672,7.4061,7.4151,7.433,7.4749,7.4839,7.4839,7.4869,7.4869,7.4869,7.4869,7.4869,7.4869,7.4869,7.4869,7.4869,7.4869,7.4869,7.4869,7.4869,7.4869,7.4869,7.4869,7.4869,7.5078,7.5198,7.5138,7.5318,7.5647,7.5557,7.5377,7.5407,7.5407,7.5407,7.5587,7.5437,7.5437,7.3876,7.3907,7.4522,7.4676,7.483,7.4769,7.4461,7.3937,7.3937,7.3599,7.3106,7.3076,7.3353,7.3814,7.326,7.2952,7.2952,7.2983,7.2983,7.2983,7.2983,7.3322,7.3907,7.3968,7.4276,7.4707,7.4707,7.4799,7.4861,7.4922,7.4984,7.5076,7.5692,7.5969,7.6031,7.6523,7.6923,7.6892,7.6892,7.6985,7.7016,7.6923,7.6831,7.68,7.6892,7.6831,7.6862,7.6892,7.6892,7.6892,7.6831,7.6862,7.6892,7.6599,7.6172,7.5905,7.5832,7.5698,7.5368,7.5203,7.5098,7.4856,7.4766,7.4719,7.4599,7.4599,7.4599,7.4719,7.4629,7.421,7.3253,7.3163,7.3103,7.3103,7.3522,7.3791,7.3851,7.43,7.4719,7.4779,7.4749,7.4749,7.4869,7.4869,7.4869,7.4869,7.4869,7.4869,7.4869,7.4869,7.4869,7.4869,7.4869,7.4869,7.4869,7.4869,7.4869,7.4929,7.4958,7.4958,7.4899,7.4929,7.5318,7.5617,7.5766,7.6066,7.6514,7.6664,7.6544,7.6485,7.6425,7.6455,7.6245,7.6574,7.6544,7.4645,7.4676,7.4892,7.5015,7.5015,7.5015,7.4861,7.4645,7.4645,7.4522,7.4307,7.4276,7.4399,7.4645,7.4399,7.4276,7.4276,7.4276,7.4276,7.4276,7.4276,7.4399,7.4615,7.4645,7.4738,7.4953,7.5015,7.523,7.563,7.563,7.5877,7.6277,7.6523,7.6646,7.6708,7.6892,7.7016,7.7016,7.7016,7.7016,7.7016,7.7016,7.7016,7.7016,7.7016,7.7016,7.7016,7.7016,7.7016,7.7016,7.7016,7.7016,7.7016,7.6884,7.6752,7.662,7.6221,7.5954,7.6088,7.5685,7.5414,7.5519,7.5278,7.5278,7.5142,7.5006,7.4869,7.4869,7.4869,7.4569,7.436,7.418,7.4151,7.421,7.436,7.451,7.454,7.4749,7.4869,7.4869,7.4869,7.4869,7.4869,7.4869,7.4869,7.4869,7.4869,7.4869,7.4869,7.4869,7.4869,7.4869,7.4869,7.4869,7.4869,7.4869,7.4899,7.5048,7.5138,7.5467,7.5557,7.5856,7.6245,7.6365,7.6485,7.6604,7.7023,7.7083,7.7083,7.7023,7.6993,7.7113,7.6814,7.7113,7.7023,7.5446,7.5661,7.5661,7.5661,7.5661,7.563,7.5507,7.5353,7.5323,7.5199,7.5046,7.5015,7.5107,7.5292,7.5323,7.5476,7.5569,7.523,7.5015,7.5015,7.5015,7.5107,7.5292,7.5323,7.5446,7.563,7.5661,7.5907,7.6277,7.6338,7.6585,7.6985,7.7016,7.7016,7.7016,7.7016,7.7016,7.7016,7.7016,7.7016,7.7016,7.7016,7.7016,7.7016,7.7016,7.7016,7.7016,7.7016,7.7016,7.7016,7.7016,7.7016,7.7016,7.7016,7.7016,7.6884,7.6589,7.6324,7.6457,7.6088,7.5819,7.5923,7.5685,7.5414,7.555,7.5308,7.5142,7.5142,7.5142,7.5006,7.5006,7.5006,7.4869,7.4869,7.4869,7.4869,7.4869,7.4869,7.4869,7.4869,7.4869,7.4869,7.4869,7.4869,7.4869,7.4869,7.4869,7.4869,7.4869,7.4869,7.4869,7.4899,7.5108,7.5228,7.5407,7.5557,7.5467,7.5557,7.5826,7.6096,7.6305,7.6664,7.6963,7.7083,7.7203,7.7263,7.7352,7.7412,7.7412,7.7382,7.7622,7.7831,7.7682,7.7562,7.7592,7.64,7.6862,7.7016,7.6892,7.6831,7.6831,7.6585,7.6061,7.6031,7.5723,7.5323,7.5138,7.5538,7.5938,7.6031,7.6338,7.6554,7.5723,7.523,7.523,7.5199,7.5476,7.6,7.6031,7.6277,7.68,7.6923,7.6954,7.6923,7.6923,7.6954,7.7016,7.7016,7.7016,7.7016,7.7016,7.7016,7.7016,7.7016,7.7016,7.7016,7.7016,7.7016,7.7016,7.7016,7.7016,7.7016,7.7016,7.7016,7.7016,7.7016,7.7016,7.7016,7.7016,7.7016,7.7016,7.6884,7.6752,7.662,7.6488,7.6221,7.6088,7.5685,7.5685,7.5819,7.5685,7.555,7.5654,7.555,7.5414,7.5278,7.5142,7.4869,7.4869,7.4869,7.4869,7.4869,7.4869,7.4869,7.4869,7.4869,7.4869,7.4869,7.4869,7.4869,7.4869,7.4869,7.4929,7.5018,7.5048,7.4958,7.5108,7.5527,7.5856,7.6125,7.6365,7.6245,7.6215,7.6574,7.6844,7.6933,7.7173,7.7532,7.7711,7.7801,7.7891,7.81,7.819,7.828,7.831,7.8519,7.846,7.834,7.822,7.84,7.7676,7.7016,7.7016,7.7016,7.7016,7.7016,7.6892,7.6708,7.6708,7.6585,7.64,7.64,7.6523,7.6646,7.6708,7.68,7.6985,7.6554,7.6369,7.6338,7.6369,7.6461,7.6646,7.6708,7.6831,7.6985,7.7016,7.7016,7.7016,7.7016,7.7016,7.7016,7.7016,7.7016,7.7016,7.7016,7.7016,7.7016,7.7016,7.7016,7.7016,7.7016,7.7016,7.7016,7.7016,7.7016,7.7016,7.7016,7.7016,7.7016,7.7016,7.7016,7.7016,7.7016,7.7016,7.7016,7.6752,7.6752,7.6884,7.662,7.662,7.662,7.6355,7.6221,7.6221,7.5954,7.5819,7.5923,7.5819,7.5715,7.5414,7.5278,7.5142,7.4869,7.4869,7.4869,7.4869,7.4869,7.4869,7.4869,7.4869,7.4869,7.4869,7.4899,7.4929,7.4958,7.4958,7.5078,7.5467,7.5587,7.5796,7.6155,7.6455,7.6544,7.6724,7.7023,7.7203,7.7113,7.7352,7.7502,7.7562,7.7711,7.8041,7.822,7.834,7.846,7.8699,7.8789,7.8789,7.8789,7.8699,7.8699,7.8759,7.8789,7.8789,7.8785,7.7734,7.7734,7.7377,7.7016,7.7016,7.7016,7.7016,7.7016,7.7016,7.7016,7.7016,7.7016,7.7016,7.7016,7.7016,7.7016,7.7016,7.7016,7.7016,7.7016,7.7016,7.7016,7.7016,7.7016,7.7016,7.7016,7.7016,7.7016,7.7016,7.7016,7.7016,7.7016,7.7016,7.7016,7.7016,7.7016,7.7016,7.7016,7.7016,7.7016,7.7016,7.7016,7.7016,7.7016,7.7016,7.7016,7.7016,7.7016,7.7016,7.7016,7.7016,7.7016,7.7016,7.7016,7.7016,7.6884,7.6752,7.7016,7.6752,7.6752,7.6884,7.6752,7.662,7.662,7.6355,7.6221,7.6324,7.6221,7.6118,7.5685,7.558,7.5444,7.5142,7.5006,7.4869,7.4869,7.4869,7.4869,7.4869,7.4869,7.4869,7.4869,7.5168,7.5228,7.5288,7.5467,7.5677,7.6125,7.6215,7.6544,7.6844,7.7023,7.7143,7.7233,7.7622,7.81,7.813,7.813,7.819,7.822,7.834,7.8579,7.8549,7.8639,7.8609,7.8789,7.8789,7.8789,7.8789,7.8789,7.8789,7.8789,7.8789,7.8789,8.011,7.8942,7.8817,7.796,7.7016,7.7016,7.7016,7.7016,7.7016,7.7016,7.7016,7.7016,7.7016,7.7016,7.7016,7.7016,7.7016,7.7016,7.7016,7.7016,7.7016,7.7016,7.7016,7.7016,7.7016,7.7016,7.7016,7.7016,7.7016,7.7016,7.7016,7.7016,7.7016,7.7016,7.7016,7.7016,7.7016,7.7016,7.7016,7.7016,7.7016,7.7016,7.7016,7.7016,7.7016,7.7016,7.7016,7.7016,7.7016,7.7016,7.7016,7.7016,7.7016,7.7016,7.7016,7.7016,7.7016,7.7016,7.7016,7.7016,7.7016,7.7016,7.6752,7.662,7.6884,7.6752,7.662,7.6884,7.662,7.6385,7.6209,7.6105,7.6001,7.5595,7.5382,7.5185,7.4958,7.5018,7.5228,7.5138,7.5018,7.5018,7.5198,7.5647,7.5886,7.6036,7.6365,7.6574,7.6844,7.6904,7.6933,7.7233,7.7682,7.7771,7.7891,7.8071,7.8489,7.8489,7.8519,7.8549,7.8579,7.8699,7.8789,7.8789,7.8789,7.8789,7.8789,7.8789,7.8789,7.8789,7.8789,7.8789,7.8789,7.8819,7.8849,8.011,7.8817,7.7863,7.7246,7.7016,7.7016,7.7016,7.7016,7.7016,7.7016,7.7016,7.7016,7.7016,7.7016,7.7016,7.7016,7.7016,7.7016,7.7016,7.7016,7.7016,7.7016,7.7016,7.7016,7.7016,7.7016,7.7016,7.7016,7.7016,7.7016,7.7016,7.7016,7.7016,7.7016,7.7016,7.7016,7.7016,7.7016,7.7016,7.7016,7.7016,7.7046,7.7016,7.7016,7.7077,7.7077,7.7046,7.7016,7.7016,7.7016,7.7016,7.7016,7.7016,7.7016,7.7016,7.7016,7.7016,7.7016,7.7016,7.7016,7.7016,7.7016,7.6884,7.6884,7.7016,7.6884,7.6884,7.7016,7.6884,7.6998,7.7099,7.7087,7.7166,7.7153,7.6606,7.5923,7.5845,7.6036,7.6305,7.6305,7.6245,7.6215,7.6245,7.6395,7.6574,7.6604,7.6814,7.7083,7.7412,7.7562,7.7592,7.81,7.8489,7.8489,7.8549,7.8669,7.8759,7.8729,7.8729,7.8699,7.8729,7.8759,7.8789,7.8789,7.8789,7.8789,7.8789,7.8789,7.8789,7.8849,7.8908,7.8968,7.8878,7.8849,7.8968,8.032,7.9622,7.8343,7.7863,7.7734,7.7277,7.7016,7.7016,7.7016,7.7016,7.7016,7.7016,7.7016,7.7016,7.7016,7.7016,7.7016,7.7016,7.7016,7.7016,7.7016,7.7016,7.7016,7.7016,7.7016,7.7016,7.7016,7.7016,7.7016,7.7016,7.7016,7.7016,7.7016,7.7016,7.7016,7.7016,7.7016,7.7016,7.7016,7.7016,7.7016,7.7323,7.7447,7.7539,7.7693,7.7908,7.7908,7.7908,7.7662,7.72,7.7016,7.7016,7.7016,7.7016,7.7016,7.7016,7.7016,7.7016,7.7016,7.7016,7.7016,7.7016,7.7016,7.7016,7.7108,7.7231,7.7447,7.7477,7.7693,7.7929,7.7906,7.7894,7.7942,7.808,7.7836,7.7379,7.6921,7.7132,7.7204,7.7094,7.7094,7.6984,7.6844,7.7053,7.7203,7.7322,7.7562,7.7861,7.816,7.819,7.828,7.8609,7.8789,7.8729,7.8699,7.8759,7.8789,7.8789,7.8789,7.8789,7.8789,7.8789,7.8789,7.8789,7.8789,7.8789,7.8789,7.8849,7.9028,7.9088,7.9118,7.9327,7.9417,7.9327,7.9387,8.1036,8.0917,7.9622,7.9067,7.8691,7.7734,7.7116,7.7016,7.7016,7.7016,7.7016,7.7016,7.7016,7.7016,7.7016,7.7016,7.7016,7.7016,7.7016,7.7016,7.7016,7.7016,7.7016,7.7016,7.7016,7.7016,7.7016,7.7016,7.7016,7.7016,7.7016,7.7016,7.7016,7.7016,7.7016,7.7016,7.7046,7.72,7.7231,7.7354,7.7539,7.7908,7.8124,7.8216,7.8585,7.8862,7.8924,7.8924,7.8493,7.7323,7.7231,7.7385,7.7323,7.7293,7.7323,7.7385,7.7447,7.7416,7.7323,7.7447,7.7354,7.7416,7.7385,7.7231,7.7477,7.7877,7.8154,7.8154,7.8739,7.8789,7.8733,7.8794,7.8947,7.9131,7.9331,7.9132,7.8628,7.8308,7.8001,7.7724,7.7645,7.7475,7.7314,7.7472,7.7921,7.7921,7.816,7.834,7.8519,7.8519,7.8579,7.8699,7.8789,7.8789,7.8789,7.8789,7.8789,7.8789,7.8789,7.8789,7.8789,7.8789,7.8789,7.8789,7.8789,7.8789,7.8789,7.8938,7.9238,7.9507,7.9686,8.0105,8.0494,8.0285,8.0225,8.223,8.223,8.0917,7.9745,7.8911,7.8565,7.7992,7.7147,7.7016,7.7147,7.7016,7.7016,7.7016,7.7016,7.7016,7.7016,7.7016,7.7016,7.7016,7.7016,7.7016,7.7016,7.7016,7.7016,7.7016,7.7016,7.7016,7.7016,7.7016,7.7016,7.7016,7.7016,7.7108,7.7046,7.7077,7.72,7.7323,7.7693,7.7816,7.8093,7.8493,7.8709,7.8893,7.8955,7.9109,7.9109,7.9109,7.9109,7.8955,7.8739,7.8647,7.8616,7.8524,7.8524,7.8524,7.8493,7.8555,7.8585,7.8616,7.8524,7.8616,7.8524,7.8462,7.8647,7.8647,7.8739,7.8862,7.8893,7.9047,7.9417,7.968,8.0203,8.0295,8.0356,8.051,8.0602,8.0372,7.9864,7.9384,7.8992,7.885,7.8798,7.831,7.831,7.8519,7.8579,7.8639,7.8759,7.8789,7.8789,7.8789,7.8789,7.8789,7.8789,7.8789,7.8789,7.8789,7.8789,7.8789,7.8789,7.8789,7.8789,7.8789,7.8789,7.8789,7.8819,7.8938,7.9297,7.9627,7.9926,8.0285,8.0704,8.1033,8.0973,8.1093,8.2116,8.2605,8.1271,8.0799,8.0592,7.9989,7.9376,7.866,7.8088,7.7863,7.7734,7.7377,7.7016,7.7016,7.7016,7.7016,7.7016,7.7016,7.7016,7.7016,7.7016,7.7016,7.7016,7.7016,7.7016,7.7046,7.7016,7.7016,7.7016,7.7046,7.7016,7.7077,7.7323,7.7508,7.76,7.7785,7.8185,7.8432,7.8524,7.8739,7.9047,7.9417,7.9786,7.9971,8.0032,8.0001,8.0063,8.0032,8.0032,8.0032,8.0001,7.9694,7.9201,7.9109,7.9109,7.9109,7.9109,7.9109,7.9078,7.9109,7.9047,7.9139,7.9109,7.9109,7.9201,7.9355,7.957,7.9632,7.9847,8.0217,8.0525,8.0771,8.1048,8.1048,8.1048,8.1048,8.1048,8.0771,8.0212,7.9789,7.9557,7.9272,7.9046,7.8933,7.8789,7.8669,7.8699,7.8789,7.8789,7.8789,7.8789,7.8789,7.8789,7.8789,7.8789,7.8789,7.8789,7.8789,7.8789,7.8789,7.8789,7.8789,7.8789,7.8819,7.8849,7.9118,7.9267,7.9656,8.0195,8.0764,8.1183,8.1392,8.1601,8.1841,8.1931,8.2001,8.2942,8.1886,8.1886,8.2458,8.1505,8.0799,8.0199,7.9408,7.8565,7.847,7.7377,7.7016,7.7016,7.7016,7.7016,7.7016,7.7016,7.7016,7.7016,7.7231,7.7262,7.7293,7.7447,7.7539,7.7323,7.7293,7.7262,7.7262,7.7293,7.76,7.7508,7.7908,7.8185,7.8339,7.8709,7.9047,7.9201,7.9263,7.9386,7.957,8.0032,8.0494,8.0771,8.0863,8.0863,8.0863,8.0894,8.0956,8.1048,8.1048,8.0463,7.9755,7.9417,7.9417,7.9447,7.957,7.9632,7.9663,7.954,7.9509,7.9386,7.9447,7.9447,7.9601,7.994,8.0186,8.0402,8.0617,8.0894,8.1048,8.1048,8.1048,8.1048,8.1048,8.1048,8.1048,8.1048,8.0632,8.0041,7.99,7.9617,7.922,7.8933,7.8933,7.8933,7.8933,7.8933,7.8933,7.8789,7.8789,7.8789,7.8789,7.8789,7.8789,7.8789,7.8789,7.8789,7.8789,7.8789,7.8789,7.8789,7.8789,7.8878,7.8968,7.9297,7.9716,8.0195,8.0823,8.1572,8.1961,8.205,8.235,8.2709,8.2649,8.4143,8.4285,8.4035,8.3531,8.2718,8.2491,8.1154,7.9408,7.916,7.8343,7.7507,7.7147,7.7016,7.7016,7.7016,7.7016,7.7077,7.72,7.72,7.7293,7.76,7.7877,7.7939,7.8278,7.8585,7.8585,7.8247,7.7939,7.8031,7.8432,7.8493,7.8709,7.8832,7.8924,7.8924,7.9109,7.954,7.9878,7.994,8.0124,8.0494,8.0709,8.0863,8.1048,8.1048,8.1048,8.1048,8.1048,8.1048,8.1048,8.1048,8.0925,8.0648,8.0586,8.0586,8.0586,8.0555,8.0494,8.0525,8.0617,8.0709,8.074,8.0617,8.0648,8.0679,8.0771,8.0771,8.0832,8.0925,8.1048,8.1048,8.1048,8.1048,8.1048,8.1048,8.1048,8.1048,8.1048,8.0771,8.0182,8.0041,8.0041,7.9617,7.922,7.9363,7.922,7.922,7.922,7.922,7.8933,7.8789,7.8789,7.8789,7.8789,7.8789,7.8789,7.8789,7.8789,7.8789,7.8789,7.8789,7.8789,7.8819,7.9028,7.9327,7.9686,8.0165,8.0734,8.1272,8.1901,8.229,8.2619,8.2679,8.2769,8.2769,8.4606,8.4606,8.4606,8.4285,8.3674,8.2942,8.2001,8.0831,7.9531,7.8565,7.7992,7.7377,7.7016,7.7016,7.7016,7.72,7.7539,7.8001,7.8062,7.8216,7.8432,7.8585,7.8585,7.8986,7.9047,7.9109,7.9047,7.8862,7.8647,7.8893,7.917,7.917,7.9417,7.9632,7.9724,8.0001,8.0217,8.0555,8.0586,8.0709,8.1048,8.1048,8.1048,8.1048,8.1048,8.1048,8.1048,8.1048,8.1048,8.1048,8.1048,8.1048,8.1048,8.1048,8.1048,8.1048,8.1048,8.1048,8.1048,8.1048,8.1017,8.1048,8.1048,8.1048,8.1048,8.1017,8.1048,8.1048,8.1048,8.1048,8.1048,8.1048,8.1048,8.1048,8.1048,8.1048,8.1048,8.1048,8.0771,8.0352,8.0352,8.0182,7.9759,7.9617,7.9759,7.9647,7.9505,7.9505,7.9505,7.922,7.8933,7.8933,7.9076,7.8933,7.8933,7.8789,7.8789,7.8789,7.8908,7.8908,7.9028,7.9118,7.9267,7.9417,7.9746,8.0165,8.0764,8.1392,8.1841,8.22,8.2469,8.2709,8.2739,8.2769,8.2769,8.4606,8.4606,8.4606,8.4606,8.4392,8.3199,8.2458,8.1886,7.9867,7.8691,7.8343,7.7662,7.7262,7.7293,7.7477,7.7785,7.8308,7.8862,7.8955,7.9016,7.9201,7.9293,7.9324,7.9447,7.9632,7.9817,7.9971,7.994,7.9447,7.957,7.954,7.9724,8.0124,8.0309,8.0402,8.0679,8.1017,8.1048,8.1048,8.1048,8.1048,8.1048,8.1048,8.1048,8.1048,8.1048,8.1048,8.1048,8.1048,8.1048,8.1048,8.1048,8.1048,8.1048,8.1048,8.1048,8.1048,8.1048,8.1048,8.1048,8.1048,8.1048,8.1048,8.1048,8.1048,8.1048,8.1048,8.1048,8.1048,8.1048,8.1048,8.1048,8.1048,8.1048,8.1048,8.1048,8.1048,8.1048,8.091,8.0771,8.0632,8.0322,7.99,8.0041,8.0352,7.99,7.9789,7.9789,7.9647,7.9505,7.922,7.9363,7.922,7.9076,7.8933,7.8789,7.8789,7.8789,7.9058,7.9238,7.9417,7.9597,7.9836,8.0165,8.0375,8.0823,8.1452,8.1931,8.223,8.2499,8.2679,8.2769,8.2769,8.2769,8.2769,8.4606,8.4606,8.4606,8.4606,8.4392,8.3199,8.2116,8.1068,7.9718,7.8216,7.7952,7.7763,7.8041,7.8031,7.8585,7.8862,7.9016,7.9201,7.9355,7.9417,7.9786,7.9971,8.0063,8.0617,8.0586,8.0555,8.0771,8.0586,8.0217,8.0463,8.0709,8.074,8.0709,8.0925,8.0832,8.0986,8.1048,8.1048,8.1048,8.1048,8.1048,8.1048,8.1048,8.1048,8.1048,8.1048,8.1048,8.1048,8.1048,8.1048,8.1048,8.1048,8.1048,8.1048,8.1048,8.1048,8.1048,8.1048,8.1048,8.1048,8.1048,8.1048,8.1048,8.1048,8.1048,8.1048,8.1048,8.1048,8.1048,8.1048,8.1048,8.1048,8.1048,8.1048,8.1048,8.1048,8.1048,8.1048,8.1048,8.1048,8.091,8.0492,8.0182,8.0492,8.0771,8.0352,8.0041,8.0041,7.99,7.9759,7.9475,7.9363,7.9505,7.9363,7.9083,7.8908,7.9028,7.8968,7.9357,7.9686,7.9926,8.0225,8.0823,8.1123,8.1272,8.1392,8.1841,8.226,8.2559,8.2709,8.2739,8.2769,8.2769,8.2769,8.2769,8.4606,8.4606,8.4606,8.4606,8.4392,8.3199,8.2723,8.2327,8.1206,8.0608,8.0365,7.9914,7.9351,7.8904,7.9355,7.9663,7.9755,8.0001,8.0217,8.0155,8.0463,8.0617,8.0679,8.0925,8.1048,8.1048,8.1048,8.0956,8.0802,8.0863,8.1048,8.1048,8.1048,8.1017,8.1048,8.1048,8.1048,8.1048,8.1048,8.1048,8.1048,8.1048,8.1048,8.1048,8.1048,8.1048,8.1048,8.1048,8.1048,8.1048,8.1048,8.1048,8.1048,8.1048,8.1048,8.1048,8.1048,8.1048,8.1048,8.1048,8.1048,8.1048,8.1048,8.1048,8.1048,8.1048,8.1048,8.1048,8.1048,8.1048,8.1048,8.1048,8.1048,8.1048,8.1048,8.1048,8.1048,8.1048,8.1048,8.1048,8.1048,8.0771,8.0492,8.0771,8.091,8.0632,8.0492,8.0322,8.0322,8.0182,7.9789,7.9363,7.9505,7.9505,7.9287,7.9148,7.9477,7.9597,8.0045,8.0345,8.0494,8.0883,8.1452,8.1841,8.1961,8.211,8.232,8.2469,8.2679,8.2739,8.2769,8.2769,8.2769,8.2769,8.2769,8.4606,8.4606,8.4606,8.4708,8.4804,8.361,8.3413,8.3961,8.2758,8.2361,8.2197,8.1346,8.0293,7.9903,8.0094,8.0371,8.0402,8.0863,8.1017,8.1048,8.1048,8.1017,8.0986,8.1048,8.1048,8.1048,8.1048,8.1017,8.1017,8.1048,8.1048,8.1048,8.1048,8.1048,8.1048,8.1048,8.1048,8.1048,8.1048,8.1048,8.1048,8.1048,8.1048,8.1048,8.1048,8.1048,8.1048,8.1048,8.1048,8.1048,8.1048,8.1048,8.1048,8.1048,8.1048,8.1048,8.1048,8.1048,8.1048,8.1048,8.1048,8.1048,8.1048,8.1048,8.1048,8.1048,8.1048,8.1048,8.1048,8.1048,8.1048,8.1048,8.1048,8.1048,8.1048,8.1048,8.1079,8.1202,8.1171,8.1048,8.1048,8.1048,8.091,8.1048,8.1048,8.094,8.0771,8.0662,8.0724,8.0785,8.0597,8.0092,8.0041,8.0131,8.0032,7.9922,8.0132,8.0225,8.0704,8.1003,8.1123,8.1482,8.202,8.232,8.2499,8.2529,8.2559,8.2649,8.2769,8.2769,8.2769,8.2769,8.2769,8.2769,8.2769,8.4606,8.4606,8.464,8.5046,8.5547,8.4377,8.429,8.4986,8.3748,8.2633,8.1825,8.0737,8.0958,8.0984,8.1182,8.1306,8.1124,8.1048,8.1186,8.1186,8.1048,8.1048,8.1048,8.1048,8.1048,8.1048,8.1048,8.1048,8.1048,8.1048,8.1048,8.1048,8.1048,8.1048,8.1048,8.1048,8.1048,8.1048,8.1048,8.1048,8.1048,8.1048,8.1048,8.1048,8.1048,8.1048,8.1048,8.1048,8.1048,8.1048,8.1048,8.1048,8.1048,8.1048,8.1048,8.1048,8.1202,8.1233,8.1233,8.114,8.1079,8.1079,8.1202,8.1356,8.1448,8.1202,8.111,8.1294,8.1448,8.1356,8.1233,8.111,8.1387,8.1479,8.1602,8.1571,8.1571,8.1448,8.1387,8.114,8.1233,8.151,8.154,8.1664,8.1202,8.1033,8.1248,8.1278,8.1371,8.1463,8.1305,8.1146,8.0872,8.1001,8.1081,8.0999,8.0881,8.0943,8.1332,8.1572,8.1721,8.214,8.2469,8.2559,8.2649,8.2709,8.2769,8.2769,8.2769,8.2769,8.2769,8.2769,8.2769,8.2769,8.2769,8.4911,8.5317,8.5351,8.552,8.5824,8.5792,8.6142,8.6746,8.6359,8.5155,8.3545,8.3226,8.2861,8.2654,8.3214,8.3082,8.2481,8.2347,8.1839,8.1323,8.1048,8.1048,8.1048,8.1048,8.1048,8.1048,8.1048,8.1048,8.1048,8.1048,8.1048,8.1048,8.1048,8.1048,8.1048,8.1048,8.1048,8.1048,8.1048,8.1048,8.1048,8.1048,8.1048,8.1048,8.1048,8.1048,8.1048,8.1048,8.1048,8.1048,8.1048,8.1079,8.114,8.111,8.114,8.1233,8.1479,8.1664,8.1571,8.1387,8.1233,8.1756,8.2033,8.2248,8.2156,8.2279,8.231,8.2341,8.2218,8.2125,8.2279,8.231,8.2402,8.231,8.2248,8.2156,8.2125,8.2033,8.2033,8.1941,8.2187,8.2464,8.2433,8.2402,8.1787,8.1155,8.154,8.1787,8.1941,8.2125,8.2139,8.2071,8.1796,8.1516,8.174,8.1657,8.1392,8.1661,8.1931,8.208,8.223,8.2409,8.2679,8.2739,8.2769,8.2769,8.2769,8.2769,8.2769,8.2769,8.2769,8.2769,8.2769,8.2769,8.2769,8.5283,8.5824,8.6264,8.6433,8.6535,8.7008,8.7651,8.826,8.8328,8.7328,8.5603,8.498,8.4347,8.4091,8.4474,8.4219,8.3245,8.2849,8.211,8.1597,8.1048,8.1048,8.1048,8.1048,8.1048,8.1048,8.1048,8.1048,8.1048,8.1048,8.1048,8.1048,8.1048,8.1048,8.1048,8.1048,8.1048,8.1048,8.1048,8.1048,8.1048,8.1048,8.1048,8.1048,8.1048,8.1048,8.1048,8.1048,8.1048,8.1048,8.1079,8.1202,8.1294,8.1387,8.1479,8.1756,8.2033,8.2372,8.2248,8.2064,8.1879,8.2372,8.2679,8.2956,8.311,8.311,8.2895,8.2956,8.3018,8.311,8.3141,8.2926,8.2864,8.2741,8.2772,8.2741,8.2772,8.271,8.2803,8.2833,8.2987,8.2956,8.2926,8.2803,8.2618,8.2125,8.2248,8.2464,8.2587,8.2772,8.2846,8.2888,8.2641,8.2535,8.2279,8.2316,8.232,8.211,8.238,8.2499,8.2649,8.2769,8.2769,8.2769,8.2769,8.2769,8.2769,8.2769,8.2769,8.2769,8.2769,8.2769,8.2769,8.2769,8.2769,8.579,8.596,8.7313,8.7888,8.7854,8.7955,8.8361,8.8903,8.8824,8.8142,8.6579,8.4728,8.4219,8.4854,8.5355,8.4602,8.3606,8.3114,8.2347,8.1323,8.1048,8.1048,8.1048,8.1048,8.1048,8.1048,8.1048,8.1048,8.1048,8.1048,8.1048,8.1048,8.1048,8.1048,8.1048,8.1048,8.1048,8.1048,8.1048,8.1048,8.1048,8.1048,8.1048,8.1048,8.1048,8.1048,8.1048,8.1233,8.1263,8.1263,8.1387,8.1633,8.2002,8.2064,8.2279,8.2772,8.2956,8.308,8.308,8.3049,8.308,8.311,8.3357,8.3449,8.3264,8.3233,8.3357,8.3603,8.3418,8.3326,8.3203,8.3203,8.3326,8.3387,8.3449,8.348,8.3541,8.3572,8.3664,8.3726,8.3387,8.3141,8.3141,8.3172,8.3233,8.311,8.308,8.3172,8.3326,8.351,8.3757,8.3593,8.3519,8.3319,8.3092,8.3159,8.3101,8.286,8.2709,8.2739,8.2769,8.2769,8.2769,8.2769,8.2769,8.2769,8.2769,8.2769,8.2769,8.2769,8.2769,8.2769,8.2769,8.2769,8.2769,8.6366,8.7279,8.7786,8.8294,8.8666,8.8734,8.8869,8.8926,8.8209,8.7478,8.709,8.5972,8.585,8.6338,8.6338,8.5727,8.4474,8.3214,8.2347,8.1186,8.1048,8.1048,8.1048,8.1048,8.1048,8.1079,8.1079,8.111,8.1048,8.1202,8.111,8.1048,8.1263,8.1048,8.1048,8.1048,8.1048,8.1048,8.1048,8.1048,8.1079,8.111,8.114,8.114,8.1171,8.1202,8.1233,8.151,8.1664,8.1756,8.1941,8.2372,8.2679,8.2741,8.2895,8.3233,8.3418,8.4003,8.4249,8.4403,8.4188,8.4065,8.4065,8.4249,8.4403,8.4434,8.4434,8.4342,8.4249,8.4249,8.4465,8.4465,8.4495,8.4526,8.4557,8.4557,8.4588,8.4557,8.4588,8.4619,8.4434,8.428,8.4249,8.4003,8.3972,8.3941,8.388,8.4095,8.428,8.4434,8.4649,8.4536,8.4337,8.4137,8.3847,8.361,8.3371,8.3041,8.289,8.2739,8.2769,8.2769,8.2769,8.2769,8.2769,8.2769,8.2769,8.2769,8.2769,8.2769,8.2769,8.2769,8.2769,8.2769,8.2769,8.6907,8.7989,8.826,8.8632,8.9072,8.9106,8.9106,8.8847,8.7712,8.7327,8.7595,8.7327,8.7327,8.7595,8.7712,8.6612,8.5073,8.4219,8.2615,8.1323,8.1048,8.1048,8.1048,8.1079,8.1048,8.114,8.1325,8.1448,8.151,8.1694,8.1848,8.1879,8.1756,8.191,8.1756,8.151,8.1233,8.1356,8.151,8.1664,8.1787,8.1848,8.1848,8.1848,8.1848,8.1817,8.1848,8.1971,8.2187,8.2433,8.2679,8.3049,8.3233,8.3449,8.3572,8.388,8.4188,8.468,8.4926,8.5019,8.4711,8.4526,8.4896,8.505,8.5111,8.4957,8.4988,8.4988,8.5111,8.508,8.505,8.5111,8.508,8.508,8.505,8.5019,8.5019,8.4957,8.4957,8.505,8.508,8.508,8.5111,8.5019,8.4803,8.4742,8.4711,8.4896,8.5019,8.505,8.5111,8.4935,8.4935,8.4613,8.4172,8.3907,8.3491,8.3071,8.292,8.2769,8.2769,8.2769,8.2769,8.2769,8.2769,8.2769,8.2769,8.2769,8.2769,8.2769,8.2769,8.2769,8.2769,8.2769,8.2769,8.7347,8.8091,8.8767,8.9072,8.9106,8.9106,8.9106,8.8959,8.7829,8.7978,8.8959,8.7712,8.7829,8.8813,8.8813,8.7327,8.5355,8.4854,8.3082,8.1839,8.1461,8.1354,8.1309,8.1202,8.1387,8.151,8.1725,8.2125,8.2187,8.2464,8.2772,8.2895,8.2741,8.271,8.2433,8.2064,8.1756,8.2002,8.2125,8.2341,8.2556,8.2803,8.2741,8.2679,8.2618,8.2556,8.2495,8.2464,8.2587,8.2679,8.271,8.3203,8.3664,8.4095,8.4557,8.4865,8.4988,8.505,8.508,8.508,8.508,8.4926,8.5019,8.5111,8.5111,8.5111,8.5111,8.5111,8.5111,8.5111,8.5111,8.5111,8.5111,8.508,8.508,8.508,8.508,8.508,8.508,8.508,8.508,8.5111,8.5111,8.5111,8.5111,8.505,8.4926,8.4957,8.505,8.505,8.5111,8.5111,8.4935,8.4789,8.4528,8.4086,8.364,8.3221,8.292,8.2769,8.2769,8.2769,8.2769,8.2769,8.2769,8.2769,8.2769,8.2769,8.2769,8.2769,8.2769,8.2769,8.2769,8.2769,8.2769,8.8091,8.8767,8.9004,8.9106,8.9106,8.9106,8.9106,8.9072,8.8586,8.8847,8.9072,8.87,8.87,8.8959,8.709,8.5972,8.5106,8.3994,8.2717,8.1974,8.2307,8.2181,8.2018,8.1926,8.2173,8.2372,8.2649,8.2803,8.2833,8.3141,8.3172,8.308,8.3295,8.3233,8.308,8.2741,8.2741,8.2772,8.2833,8.2987,8.311,8.3203,8.3233,8.3203,8.2772,8.2679,8.2556,8.2679,8.2833,8.2987,8.3849,8.4526,8.4649,8.4803,8.4988,8.5019,8.508,8.508,8.5111,8.5111,8.5111,8.5111,8.5111,8.5111,8.5111,8.5111,8.5111,8.5111,8.5111,8.5111,8.5111,8.5111,8.5111,8.5111,8.5111,8.5111,8.5111,8.5111,8.5111,8.5111,8.5111,8.5111,8.5111,8.5111,8.5111,8.5111,8.5111,8.5111,8.5111,8.5111,8.5111,8.5111,8.5111,8.4966,8.4497,8.4055,8.3789,8.3371,8.3071,8.2769,8.2769,8.2769,8.2769,8.2769,8.2769,8.2769,8.2769,8.2769,8.2769,8.2769,8.2769,8.2769,8.2769,8.2769,8.2769,8.8429,8.9038,8.9106,8.9106,8.9106,8.9106,8.9106,8.9106,8.9106,8.9106,8.9106,8.9072,8.9072,8.8959,8.7595,8.6579,8.5972,8.5355,8.4219,8.3507,8.3698,8.3448,8.3286,8.3007,8.3178,8.33,8.3357,8.348,8.3541,8.3818,8.3941,8.3972,8.388,8.3849,8.3911,8.3941,8.3911,8.3818,8.3726,8.3695,8.3634,8.3603,8.3634,8.3541,8.2926,8.2618,8.2679,8.2987,8.2895,8.3172,8.4218,8.4372,8.4711,8.508,8.508,8.5111,8.5111,8.5111,8.5111,8.5111,8.5111,8.5111,8.5111,8.5111,8.5111,8.5111,8.5111,8.5111,8.5111,8.5111,8.5111,8.5111,8.5111,8.5111,8.5111,8.5111,8.5111,8.5111,8.5111,8.5111,8.5111,8.5111,8.5111,8.5111,8.5111,8.5111,8.5111,8.5111,8.5111,8.5111,8.5111,8.5111,8.5111,8.4966,8.4643,8.4203,8.3938,8.3491,8.3071,8.292,8.2769,8.2769,8.2769,8.2769,8.2769,8.2769,8.2769,8.2769,8.2769,8.2769,8.2769,8.2769,8.2769,8.2769,8.2769,8.8463,8.9106,8.9106,8.9106,8.9106,8.9106,8.9106,8.9106,8.9106,8.9106,8.9106,8.9106,8.9106,8.8959,8.8209,8.7595,8.6971,8.6459,8.5727,8.5106,8.5115,8.4891,8.4251,8.4519,8.3829,8.364,8.3757,8.4188,8.4342,8.4526,8.4773,8.5111,8.4957,8.4803,8.4742,8.4773,8.4711,8.4619,8.428,8.4095,8.4434,8.4465,8.4311,8.4403,8.3726,8.308,8.3295,8.3141,8.271,8.3141,8.3541,8.3695,8.4495,8.5111,8.5111,8.5111,8.5111,8.5111,8.5111,8.5111,8.5111,8.5111,8.5111,8.5111,8.5111,8.5111,8.5111,8.5111,8.5111,8.5111,8.5111,8.5111,8.5111,8.5111,8.5111,8.5111,8.5111,8.5111,8.5111,8.5111,8.5111,8.5111,8.5111,8.5111,8.5111,8.5111,8.5111,8.5111,8.5111,8.5111,8.5111,8.5111,8.5111,8.5111,8.4789,8.4497,8.4055,8.364,8.3191,8.292,8.2769,8.2769,8.2769,8.2769,8.2769,8.2769,8.2769,8.2769,8.2769,8.2769,8.2769,8.2769,8.2769,8.2769,8.2769,8.8903,8.9072,8.9106,8.9106,8.9106,8.9106,8.9106,8.9106,8.9106,8.9106,8.9106,8.9106,8.9106,8.9072,8.8209,8.7595,8.7327,8.7327,8.6338,8.5669,8.5587,8.5407,8.4283,8.4225,8.3891,8.4053,8.4434,8.4803,8.4834,8.4988,8.5111,8.5111,8.5111,8.5111,8.508,8.508,8.4988,8.4926,8.4495,8.4095,8.4095,8.4126,8.4034,8.3603,8.2833,8.2495,8.2679,8.2895,8.2864,8.3203,8.4157,8.4649,8.508,8.508,8.5111,8.5111,8.5111,8.5111,8.5111,8.5111,8.5111,8.5111,8.5111,8.5111,8.5111,8.5111,8.5111,8.5111,8.5111,8.5111,8.5111,8.5111,8.5111,8.5111,8.5111,8.5111,8.5111,8.5111,8.5111,8.5111,8.5111,8.5111,8.5111,8.5111,8.5111,8.5111,8.5111,8.5111,8.5111,8.5111,8.5111,8.5111,8.5111,8.4966,8.4935,8.4643,8.4203,8.3789,8.3341,8.3071,8.2769,8.2769,8.2769,8.2769,8.2769,8.2769,8.2769,8.2769,8.2769,8.2769,8.2769,8.2769,8.2769,8.2769,8.2769,8.9106,8.9106,8.9106,8.9106,8.9106,8.9106,8.9106,8.9106,8.9106,8.9106,8.9106,8.9106,8.9106,8.9072,8.8324,8.7978,8.7978,8.7978,8.7474,8.6732,8.619,8.5857,8.5222,8.4432,8.459,8.4783,8.4803,8.508,8.5111,8.5111,8.5111,8.5111,8.5111,8.505,8.505,8.4865,8.4649,8.4619,8.4249,8.3818,8.3449,8.3264,8.3326,8.2772,8.2341,8.2064,8.2279,8.2556,8.2525,8.308,8.4003,8.4403,8.468,8.4926,8.508,8.5111,8.5111,8.5111,8.5111,8.5111,8.5111,8.5111,8.5111,8.5111,8.5111,8.5111,8.5111,8.5111,8.5111,8.5111,8.5111,8.5111,8.5111,8.5111,8.5111,8.5111,8.5111,8.5111,8.5111,8.5111,8.5111,8.5111,8.5111,8.5111,8.5111,8.5111,8.5111,8.5111,8.5111,8.5111,8.5111,8.5111,8.5111,8.5111,8.4966,8.4643,8.4203,8.3789,8.3341,8.3071,8.292,8.2769,8.2769,8.2769,8.2769,8.2769,8.2769,8.2769,8.2769,8.2769,8.2769,8.2769,8.2769,8.2769,8.2769,8.9106,8.9106,8.9106,8.9106,8.9106,8.9106,8.9106,8.9106,8.9106,8.9106,8.9106,8.9106,8.9106,8.9072,8.9207,8.9173,8.9162,8.9273,8.8897,8.8018,8.7732,8.6629,8.58,8.5547,8.4979,8.4845,8.4957,8.505,8.5111,8.5111,8.5111,8.5111,8.5019,8.4957,8.4773,8.4403,8.4003,8.4065,8.3757,8.3203,8.2679,8.2248,8.2679,8.2525,8.2095,8.2033,8.2341,8.2495,8.231,8.2987,8.4003,8.4342,8.4588,8.4896,8.5019,8.5111,8.5111,8.5111,8.5111,8.5111,8.5111,8.5111,8.5111,8.5111,8.5111,8.5111,8.5111,8.5111,8.5111,8.5111,8.5111,8.5111,8.5111,8.5111,8.5111,8.5111,8.5111,8.5111,8.5111,8.5111,8.5111,8.5111,8.5111,8.5111,8.5111,8.5111,8.5111,8.5111,8.5111,8.5111,8.5111,8.5111,8.5111,8.5111,8.5111,8.482,8.435,8.3938,8.3491,8.3191,8.292,8.292,8.2769,8.2769,8.2769,8.2769,8.2769,8.2769,8.2769,8.2769,8.2769,8.2769,8.2769,8.2769,8.2769,8.9106,8.9106,8.9106,8.9106,8.9106,8.9106,8.9106,8.9106,8.9106,8.9106,8.9106,8.9106,8.9106,8.9106,8.9782,8.9816,8.9444,9.0087,8.9383,8.825,8.77,8.6597,8.5493,8.4605,8.4152,8.4423,8.4834,8.505,8.508,8.5111,8.5111,8.5111,8.4526,8.4372,8.4249,8.388,8.3634,8.3664,8.3233,8.2649,8.3172,8.2987,8.2926,8.2803,8.2587,8.2772,8.3049,8.3387,8.3634,8.4034,8.4403,8.468,8.4865,8.4957,8.505,8.5111,8.5111,8.5111,8.5111,8.5111,8.5111,8.5111,8.5111,8.5111,8.5111,8.5111,8.5111,8.5111,8.5111,8.5111,8.5111,8.5111,8.5111,8.5111,8.5111,8.5111,8.5111,8.5111,8.5111,8.5111,8.5111,8.5111,8.5111,8.5111,8.5111,8.5111,8.5111,8.5111,8.5111,8.5111,8.5111,8.5111,8.5111,8.5111,8.5111,8.4789,8.4497,8.4086,8.364,8.3221,8.292,8.292,8.2769,8.2769,8.2769,8.2769,8.2769,8.2769,8.2769,8.2769,8.2769,8.2769,8.2769,8.2769,8.2769]},{"header":{"parameterUnit":"m.s-1","parameterCategory":1,"la1":31.0,"la2":29.5877,"lo1":-88.7671,"lo2":-86.6584,"dy":0.0162,"dx":0.0185,"nx":115,"ny":88,"refTime":"2024-02-08T18:00:00:Z","depth":0,"parameterNumber":3,"parameterNumberName":"V-component_of_WINDS"},"data":[0.0,0.0,0.0,0.0,0.0,0.0,0.0,0.0,0.0,0.0,0.0,0.0,0.0,0.0,0.0,0.0,0.0,0.0,0.0,0.0,0.0,0.0,0.0,0.0,0.0,0.0,0.0,0.0,0.0,0.0,0.0,0.0,0.0,0.0,0.0,0.0,0.0,0.0,0.0,0.0,0.0,0.0,0.0,0.0,0.0,0.0,0.0,0.0,0.0,0.0,0.0,0.0,0.0,0.0,0.0,0.0,0.0,0.0,0.0,0.0,0.0,0.0,0.0,0.0,0.0,0.0,0.0,0.0,0.0,0.0,0.0,0.0,0.0,0.0,0.0,0.0,0.0,0.0,0.0,0.0,0.0,0.0,0.0,0.0,0.0,0.0,0.0,0.0,0.0,0.0,0.0,0.0,0.0,0.0,0.0,0.0,0.0,0.0,0.0,0.0,0.0,0.0,0.0,0.0,0.0,0.0,0.0,0.0,0.0,0.0,0.0,0.0,0.0,0.0,0.0,0.0,0.0,0.0,0.0,0.0,0.0,0.0,0.0,0.0,0.0,0.0,0.0,0.0,0.0,0.0,0.0,0.0,0.0,0.0,0.0,0.0,0.0,0.0,0.0,0.0,0.0,0.0,0.0,0.0,0.0,0.0,0.0,0.0,0.0,0.0,0.0,0.0,0.0,0.0,0.0,0.0,0.0,0.0,0.0,0.0,0.0,0.0,0.0,0.0,0.0,0.0,0.0,0.0,0.0,0.0,0.0,0.0,0.0,0.0,0.0,0.0,0.0,0.0,0.0,0.0,0.0,0.0,0.0,0.0,0.0,0.0,0.0,0.0,0.0,0.0,0.0,0.0,0.0,0.0,0.0,0.0,0.0,0.0,0.0,0.0,0.0,0.0,0.0,0.0,0.0,0.0,0.0,0.0,0.0,0.0,0.0,0.0,0.0,0.0,0.0,0.0,0.0,0.0,0.0,0.0,0.0,0.0,0.0,0.0,0.0,0.0,0.0,0.0,0.0,0.0,0.0,0.0,0.0,0.0,0.0,0.0,0.0,0.0,0.0,0.0,0.0,0.0,0.0,0.0,0.0,0.0,0.0,0.0,0.0,0.0,0.0,0.0,0.0,0.0,0.0,0.0,0.0,0.0,0.0,0.0,0.0,0.0,0.0,0.0,0.0,0.0,0.0,0.0,0.0,0.0,0.0,0.0,0.0,0.0,0.0,0.0,0.0,0.0,0.0,0.0,0.0,0.0,0.0,0.0,0.0,0.0,0.0,0.0,0.0,0.0,0.0,0.0,0.0,0.0,0.0,0.0,0.0,0.0,0.0,0.0,0.0,0.0,0.0,0.0,0.0,0.0,0.0,0.0,0.0,0.0,0.0,0.0,0.0,0.0,0.0,0.0,0.0,0.0,0.0,0.0,0.0,0.0,0.0,0.0,0.0,0.0,0.0,0.0,0.0,0.0,0.0,0.0,0.0,0.0,0.0,0.0,0.0,0.0,0.0,0.0,0.0,0.0,0.0,0.0,0.0,0.0,0.0,0.0,0.0,0.0,0.0,0.0,0.0,0.0,0.0,0.0,0.0,0.0,0.0,0.0,0.0,0.0,0.0,0.0,0.0,0.0,0.0,0.0,0.0,0.0,0.0,0.0,0.0,0.0,0.0,0.0,0.0,0.0,0.0,0.0,0.0,0.0,0.0,0.0,0.0,0.0,0.0,0.0,0.0,0.0,0.0,0.0,0.0,0.0,0.0,0.0,0.0,0.0,0.0,0.0,0.0,0.0,0.0,0.0,0.0,0.0,0.0,0.0,0.0,0.0,0.0,0.0,0.0,0.0,0.0,0.0,0.0,0.0,0.0,0.0,0.0,0.0,0.0,0.0,0.0,0.0,0.0,0.0,0.0,0.0,0.0,0.0,0.0,0.0,0.0,0.0,0.0,0.0,0.0,0.0,0.0,0.0,0.0,0.0,0.0,0.0,0.0,0.0,0.0,0.0,0.0,0.0,0.0,0.0,0.0,0.0,0.0,0.0,0.0,0.0,0.0,0.0,0.0,0.0,0.0,0.0,0.0,0.0,0.0,0.0,0.0,0.0,0.0,0.0,0.0,0.0,0.0,0.0,0.0,0.0,0.0,0.0,0.0,0.0,0.0,0.0,0.0,0.0,0.0,0.0,0.0,0.0,0.0,0.0,0.0,0.0,0.0,0.0,0.0,0.0,0.0,0.0,0.0,0.0,0.0,0.0,0.0,0.0,0.0,0.0,0.0,0.0,0.0,0.0,0.0,0.0,0.0,0.0,0.0,0.0,0.0,0.0,0.0,0.0,0.0,0.0,0.0,0.0,0.0,0.0,0.0,0.0,0.0,0.0,0.0,0.0,0.0,0.0,0.0,0.0,0.0,0.0,0.0,0.0,0.0,0.0,0.0,0.0,0.0,0.0,0.0,0.0,0.0,0.0,0.0,0.0,0.0,0.0,0.0,0.0,0.0,0.0,0.0,0.0,0.0,0.0,0.0,0.0,0.0,0.0,0.0,0.0,0.0,0.0,0.0,0.0,0.0,0.0,0.0,0.0,0.0,0.0,0.0,0.0,0.0,0.0,0.0,0.0,0.0,0.0,0.0,0.0,0.0,0.0,0.0,0.0,0.0,0.0,0.0,0.0,0.0,0.0,0.0,0.0,0.0,0.0,0.0,0.0,0.0,0.0,0.0,0.0,0.0,0.0,0.0,0.0,0.0,0.0,0.0,0.0,0.0,0.0,0.0,0.0,0.0,0.0,0.0,0.0,0.0,0.0,0.0,0.0,0.0,0.0,0.0,0.0,0.0,0.0,0.0,0.0,0.0,0.0,0.0,0.0,0.0,0.0,0.0,0.0,0.0,0.0,0.0,0.0,0.0,0.0,0.0,0.0,0.0,0.0,0.0,0.0,0.0,0.0,0.0,0.0,0.0,0.0,0.0,0.0,0.0,0.0,0.0,0.0,0.0,0.0,0.0,0.0,0.0,0.0,0.0,0.0,0.0,0.0,0.0,0.0,0.0,0.0,0.0,0.0,0.0,0.0,0.0,0.0,0.0,0.0,0.0,0.0,0.0,0.0,0.0,0.0,0.0,0.0,0.0,0.0,0.0,0.0,0.0,0.0,0.0,0.0,0.0,0.0,0.0,0.0,0.0,0.0,0.0,0.0,0.0,0.0,0.0,0.0,0.0,0.0,0.0,0.0,0.0,0.0,0.0,0.0,0.0,0.0,0.0,0.0,0.0,0.0,0.0,0.0,0.0,0.0,0.0,0.0,0.0,0.0,0.0,0.0,0.0,0.0,0.0,0.0,0.0,0.0,0.0,0.0,0.0,0.0,0.0,0.0,0.0,0.0,0.0,0.0,0.0,0.0,0.0,0.0,0.0,0.0,0.0,0.0,0.0,0.0,0.0,0.0,0.0,0.0,0.0,0.0,0.0,0.0,0.0,0.0,0.0,0.0,0.0,0.0,0.0,0.0,0.0,0.0,0.0,0.0,0.0,0.0,0.0,0.0,0.0,0.0,0.0,0.0,0.0,0.0,0.0,0.0,0.0,0.0,0.0,0.0,0.0,0.0,0.0,0.0,0.0,0.0,0.0,0.0,0.0,0.0,0.0,0.0,0.0,0.0,0.0,0.0,0.0,0.0,0.0,0.0,0.0,0.0,0.0,0.0,0.0,0.0,0.0,0.0,0.0,0.0,0.0,0.0,0.0,0.0,0.0,0.0,0.0,0.0,0.0,0.0,0.0,0.0,0.0,0.0,0.0,0.0,0.0,0.0,0.0,0.0,0.0,0.0,0.0,0.0,0.0,0.0,0.0,0.0,0.0,0.0,0.0,0.0,0.0,0.0,0.0,0.0,0.0,0.0,0.0,0.0,0.0,0.0,0.0,0.0,0.0,0.0,0.0,0.0,0.0,0.0,0.0,0.0,0.0,0.0,0.0,0.0,0.0,0.0,0.0,0.0,0.0,0.0,0.0,0.0,0.0,0.0,0.0,0.0,0.0,0.0,0.0,0.0,0.0,0.0,0.0,0.0,0.0,0.0,0.0,0.0,0.0,0.0,0.0,0.0,0.0,0.0,0.0,0.0,0.0,0.0,0.0,0.0,0.0,0.0,0.0,0.0,0.0,0.0,0.0,0.0,0.0,0.0,0.0,0.0,0.0,0.0,0.0,0.0,0.0,0.0,0.0,0.0,0.0,0.0,0.0,0.0,0.0,0.0,0.0,0.0,0.0,0.0,0.0,0.0,0.0,0.0,0.0,0.0,-3.2742,0.0,0.0,0.0,0.0,0.0,0.0,0.0,0.0,0.0,0.0,0.0,0.0,0.0,0.0,0.0,0.0,0.0,0.0,0.0,0.0,0.0,0.0,0.0,0.0,0.0,0.0,0.0,0.0,0.0,0.0,0.0,0.0,0.0,0.0,0.0,0.0,0.0,0.0,0.0,0.0,0.0,0.0,0.0,0.0,0.0,0.0,0.0,0.0,0.0,0.0,0.0,0.0,0.0,0.0,0.0,0.0,0.0,0.0,0.0,0.0,0.0,0.0,0.0,0.0,0.0,0.0,0.0,0.0,0.0,0.0,0.0,0.0,0.0,0.0,0.0,0.0,0.0,0.0,0.0,0.0,0.0,0.0,0.0,0.0,0.0,0.0,0.0,0.0,0.0,0.0,0.0,0.0,0.0,0.0,0.0,0.0,0.0,0.0,0.0,0.0,0.0,0.0,0.0,0.0,0.0,0.0,0.0,0.0,0.0,0.0,-3.4751,-3.3194,-3.6282,-3.6182,-3.2441,0.0,0.0,0.0,0.0,0.0,0.0,0.0,0.0,0.0,0.0,0.0,0.0,0.0,0.0,0.0,0.0,0.0,0.0,0.0,0.0,0.0,0.0,0.0,0.0,0.0,0.0,0.0,0.0,0.0,0.0,0.0,0.0,0.0,0.0,0.0,0.0,0.0,0.0,0.0,0.0,0.0,0.0,0.0,0.0,0.0,0.0,0.0,0.0,0.0,0.0,0.0,0.0,0.0,0.0,0.0,0.0,0.0,0.0,0.0,0.0,0.0,0.0,0.0,0.0,0.0,0.0,0.0,0.0,0.0,0.0,0.0,0.0,0.0,0.0,0.0,0.0,0.0,0.0,0.0,0.0,0.0,0.0,0.0,0.0,0.0,0.0,0.0,0.0,0.0,0.0,0.0,0.0,0.0,0.0,0.0,0.0,0.0,0.0,0.0,0.0,0.0,0.0,0.0,0.0,0.0,0.0,0.0,0.0,0.0,0.0,0.0,0.0,-3.6107,-3.6056,-3.3144,0.0,0.0,0.0,0.0,0.0,0.0,0.0,0.0,0.0,0.0,0.0,0.0,0.0,0.0,0.0,0.0,0.0,0.0,0.0,0.0,0.0,0.0,0.0,0.0,0.0,0.0,0.0,0.0,0.0,0.0,0.0,0.0,0.0,0.0,0.0,0.0,0.0,0.0,0.0,0.0,0.0,0.0,0.0,0.0,0.0,0.0,0.0,0.0,0.0,0.0,0.0,0.0,0.0,0.0,0.0,0.0,0.0,0.0,0.0,0.0,0.0,0.0,0.0,0.0,0.0,0.0,0.0,0.0,0.0,0.0,0.0,0.0,0.0,0.0,0.0,0.0,0.0,0.0,0.0,0.0,0.0,0.0,0.0,0.0,0.0,0.0,0.0,0.0,0.0,0.0,0.0,0.0,0.0,0.0,0.0,0.0,0.0,0.0,0.0,0.0,0.0,0.0,0.0,0.0,0.0,0.0,0.0,0.0,0.0,0.0,-3.3947,-3.5278,-3.5629,0.0,-3.5203,0.0,0.0,0.0,0.0,0.0,0.0,0.0,0.0,0.0,0.0,0.0,0.0,0.0,0.0,0.0,0.0,0.0,0.0,0.0,0.0,0.0,0.0,0.0,0.0,0.0,0.0,0.0,0.0,0.0,0.0,0.0,0.0,0.0,0.0,0.0,0.0,0.0,0.0,0.0,0.0,0.0,0.0,0.0,0.0,0.0,0.0,0.0,0.0,0.0,0.0,0.0,0.0,0.0,0.0,0.0,0.0,0.0,0.0,0.0,0.0,0.0,0.0,0.0,0.0,0.0,0.0,0.0,0.0,0.0,0.0,0.0,0.0,0.0,0.0,0.0,0.0,0.0,0.0,0.0,0.0,0.0,0.0,0.0,0.0,0.0,0.0,0.0,0.0,0.0,0.0,0.0,0.0,0.0,0.0,0.0,0.0,0.0,0.0,0.0,0.0,0.0,0.0,0.0,0.0,0.0,0.0,0.0,0.0,0.0,0.0,-3.4198,-3.5529,-3.5529,-3.5102,0.0,0.0,0.0,0.0,0.0,0.0,0.0,0.0,0.0,0.0,0.0,0.0,0.0,0.0,0.0,0.0,0.0,0.0,0.0,0.0,0.0,0.0,0.0,0.0,0.0,0.0,0.0,0.0,0.0,0.0,0.0,0.0,0.0,0.0,0.0,0.0,0.0,0.0,0.0,0.0,0.0,0.0,0.0,0.0,0.0,0.0,0.0,0.0,0.0,0.0,0.0,0.0,0.0,0.0,0.0,0.0,0.0,0.0,0.0,0.0,0.0,0.0,0.0,0.0,0.0,0.0,0.0,0.0,0.0,0.0,0.0,0.0,0.0,0.0,0.0,0.0,0.0,0.0,0.0,0.0,0.0,0.0,0.0,0.0,0.0,0.0,0.0,0.0,0.0,0.0,0.0,0.0,0.0,0.0,0.0,0.0,0.0,0.0,0.0,0.0,0.0,0.0,0.0,0.0,0.0,0.0,0.0,0.0,0.0,0.0,-3.4374,-3.4951,-3.6107,-3.5629,-3.4751,-3.3571,0.0,0.0,0.0,0.0,0.0,0.0,0.0,0.0,0.0,0.0,0.0,0.0,0.0,0.0,0.0,0.0,0.0,0.0,0.0,0.0,0.0,0.0,0.0,0.0,0.0,0.0,0.0,0.0,0.0,0.0,0.0,0.0,0.0,0.0,0.0,0.0,0.0,0.0,0.0,0.0,0.0,0.0,0.0,0.0,0.0,0.0,0.0,0.0,0.0,0.0,0.0,0.0,0.0,0.0,0.0,0.0,0.0,0.0,0.0,0.0,0.0,0.0,0.0,0.0,0.0,0.0,0.0,0.0,0.0,0.0,0.0,0.0,0.0,0.0,0.0,0.0,0.0,0.0,0.0,0.0,0.0,0.0,0.0,0.0,0.0,0.0,0.0,0.0,0.0,0.0,0.0,0.0,0.0,0.0,0.0,0.0,0.0,0.0,0.0,0.0,0.0,0.0,0.0,0.0,0.0,0.0,0.0,0.0,-3.7487,-3.6257,-3.6257,-3.7764,-3.5855,-3.4726,0.0,0.0,0.0,0.0,0.0,0.0,0.0,0.0,0.0,0.0,0.0,0.0,0.0,0.0,0.0,0.0,0.0,0.0,0.0,0.0,0.0,0.0,0.0,0.0,0.0,0.0,0.0,0.0,0.0,0.0,0.0,0.0,0.0,0.0,0.0,0.0,0.0,0.0,0.0,0.0,0.0,0.0,0.0,0.0,0.0,0.0,0.0,0.0,0.0,0.0,0.0,0.0,0.0,0.0,0.0,0.0,0.0,0.0,0.0,0.0,0.0,0.0,0.0,0.0,0.0,0.0,0.0,0.0,0.0,0.0,0.0,0.0,0.0,0.0,0.0,0.0,0.0,0.0,0.0,0.0,0.0,0.0,0.0,0.0,0.0,0.0,0.0,0.0,0.0,0.0,0.0,0.0,0.0,0.0,0.0,0.0,0.0,0.0,0.0,0.0,0.0,0.0,0.0,0.0,0.0,0.0,0.0,0.0,0.0,-3.4324,-3.6483,-3.7789,-3.799,-3.7236,-3.6508,0.0,0.0,0.0,0.0,0.0,0.0,0.0,0.0,0.0,0.0,0.0,0.0,0.0,0.0,0.0,0.0,0.0,0.0,0.0,0.0,0.0,0.0,0.0,0.0,0.0,0.0,0.0,0.0,0.0,0.0,0.0,0.0,0.0,0.0,0.0,0.0,0.0,0.0,0.0,0.0,0.0,0.0,0.0,0.0,0.0,0.0,0.0,0.0,0.0,0.0,0.0,0.0,0.0,0.0,0.0,0.0,0.0,0.0,0.0,0.0,0.0,0.0,0.0,0.0,0.0,0.0,0.0,0.0,0.0,0.0,0.0,0.0,0.0,0.0,0.0,0.0,0.0,0.0,0.0,0.0,0.0,0.0,0.0,0.0,0.0,0.0,0.0,0.0,0.0,0.0,0.0,0.0,0.0,0.0,0.0,0.0,0.0,0.0,0.0,0.0,0.0,0.0,0.0,0.0,0.0,0.0,0.0,0.0,0.0,-3.4148,0.0,-3.9747,-3.932,-3.8115,-3.696,0.0,0.0,0.0,0.0,0.0,0.0,0.0,0.0,0.0,0.0,0.0,0.0,0.0,0.0,0.0,0.0,0.0,0.0,0.0,0.0,0.0,0.0,0.0,0.0,0.0,0.0,0.0,0.0,0.0,0.0,0.0,0.0,0.0,0.0,0.0,0.0,0.0,0.0,0.0,0.0,0.0,0.0,0.0,0.0,0.0,0.0,0.0,0.0,0.0,0.0,0.0,0.0,0.0,0.0,0.0,0.0,0.0,0.0,0.0,0.0,0.0,0.0,0.0,0.0,0.0,0.0,0.0,0.0,0.0,0.0,0.0,0.0,0.0,0.0,0.0,0.0,0.0,0.0,0.0,0.0,0.0,0.0,0.0,0.0,0.0,0.0,0.0,0.0,0.0,0.0,0.0,0.0,0.0,0.0,0.0,0.0,0.0,0.0,0.0,0.0,0.0,0.0,0.0,0.0,0.0,0.0,0.0,0.0,-3.3621,-3.7789,-4.0626,-4.2032,-4.2057,-3.8467,-3.5956,0.0,0.0,0.0,0.0,0.0,0.0,0.0,0.0,0.0,0.0,0.0,0.0,0.0,0.0,0.0,0.0,0.0,0.0,0.0,0.0,0.0,0.0,0.0,0.0,0.0,0.0,0.0,0.0,0.0,0.0,0.0,0.0,0.0,0.0,0.0,0.0,0.0,0.0,0.0,0.0,0.0,0.0,0.0,0.0,0.0,0.0,0.0,0.0,0.0,0.0,0.0,0.0,0.0,0.0,0.0,0.0,0.0,0.0,0.0,0.0,0.0,0.0,0.0,0.0,0.0,0.0,0.0,0.0,0.0,0.0,0.0,0.0,0.0,0.0,0.0,0.0,0.0,0.0,0.0,0.0,0.0,0.0,0.0,0.0,0.0,0.0,0.0,0.0,0.0,0.0,0.0,0.0,0.0,0.0,0.0,0.0,0.0,0.0,0.0,0.0,0.0,0.0,0.0,0.0,0.0,0.0,0.0,0.0,0.0,-3.6935,-4.0701,-4.271,-4.2635,-3.9722,-3.8115,0.0,0.0,0.0,0.0,0.0,0.0,0.0,0.0,0.0,0.0,0.0,0.0,0.0,0.0,0.0,0.0,0.0,0.0,0.0,0.0,0.0,0.0,0.0,0.0,0.0,0.0,0.0,0.0,0.0,0.0,0.0,0.0,0.0,0.0,0.0,0.0,0.0,0.0,0.0,0.0,0.0,0.0,0.0,0.0,0.0,0.0,0.0,0.0,0.0,0.0,0.0,0.0,0.0,0.0,0.0,0.0,0.0,0.0,0.0,0.0,0.0,0.0,0.0,0.0,0.0,0.0,0.0,0.0,0.0,0.0,0.0,0.0,0.0,0.0,0.0,0.0,0.0,0.0,0.0,0.0,0.0,0.0,0.0,0.0,0.0,0.0,0.0,0.0,0.0,0.0,0.0,0.0,0.0,0.0,0.0,0.0,0.0,0.0,0.0,0.0,0.0,0.0,0.0,0.0,0.0,0.0,0.0,0.0,0.0,-3.9597,-4.2961,-4.4819,-4.4819,-4.1354,-3.9546,-3.9597,0.0,0.0,0.0,0.0,0.0,0.0,0.0,0.0,0.0,0.0,0.0,0.0,0.0,0.0,0.0,0.0,0.0,0.0,0.0,0.0,0.0,0.0,0.0,0.0,0.0,0.0,0.0,0.0,0.0,0.0,0.0,0.0,0.0,0.0,0.0,0.0,0.0,0.0,0.0,0.0,0.0,0.0,0.0,0.0,0.0,0.0,0.0,0.0,0.0,0.0,0.0,0.0,0.0,0.0,0.0,0.0,0.0,0.0,0.0,0.0,0.0,0.0,0.0,0.0,0.0,0.0,0.0,0.0,0.0,0.0,0.0,0.0,0.0,0.0,0.0,0.0,0.0,0.0,0.0,0.0,0.0,0.0,0.0,0.0,0.0,0.0,0.0,0.0,0.0,0.0,0.0,0.0,0.0,0.0,0.0,0.0,0.0,0.0,0.0,0.0,0.0,0.0,0.0,0.0,0.0,0.0,0.0,0.0,-4.4669,-4.6853,-4.7933,-4.7782,-4.3112,-4.0325,0.0,0.0,0.0,0.0,0.0,0.0,0.0,0.0,0.0,0.0,0.0,0.0,0.0,0.0,0.0,0.0,0.0,0.0,0.0,0.0,0.0,0.0,0.0,0.0,0.0,0.0,0.0,0.0,0.0,0.0,0.0,0.0,0.0,0.0,0.0,0.0,0.0,0.0,0.0,0.0,0.0,0.0,0.0,0.0,0.0,0.0,0.0,0.0,0.0,0.0,0.0,0.0,0.0,0.0,0.0,0.0,0.0,0.0,0.0,0.0,0.0,0.0,0.0,0.0,0.0,0.0,0.0,0.0,0.0,0.0,0.0,0.0,0.0,0.0,0.0,0.0,0.0,0.0,0.0,0.0,0.0,0.0,0.0,0.0,0.0,0.0,0.0,0.0,0.0,0.0,0.0,0.0,0.0,0.0,0.0,0.0,0.0,0.0,0.0,0.0,0.0,0.0,0.0,0.0,0.0,0.0,0.0,0.0,0.0,-4.5799,-4.8008,-4.8761,-4.7857,-4.3514,-4.1053,0.0,0.0,0.0,0.0,0.0,0.0,0.0,0.0,0.0,0.0,0.0,0.0,0.0,0.0,0.0,0.0,0.0,0.0,0.0,0.0,0.0,0.0,0.0,0.0,0.0,0.0,0.0,0.0,0.0,0.0,0.0,0.0,0.0,0.0,0.0,0.0,0.0,0.0,0.0,0.0,0.0,0.0,0.0,0.0,0.0,0.0,0.0,0.0,0.0,0.0,0.0,0.0,0.0,0.0,0.0,0.0,0.0,0.0,0.0,0.0,0.0,0.0,0.0,0.0,0.0,0.0,0.0,0.0,0.0,0.0,0.0,0.0,0.0,0.0,0.0,0.0,0.0,0.0,0.0,0.0,0.0,0.0,0.0,0.0,0.0,0.0,0.0,0.0,0.0,0.0,0.0,0.0,0.0,0.0,0.0,0.0,0.0,0.0,0.0,0.0,0.0,0.0,0.0,0.0,0.0,0.0,0.0,0.0,-4.3966,-4.7606,-4.8937,-4.9289,-4.8636,-4.5246,-4.2861,0.0,0.0,0.0,0.0,0.0,0.0,0.0,0.0,0.0,0.0,0.0,0.0,0.0,0.0,0.0,0.0,0.0,0.0,0.0,0.0,0.0,0.0,0.0,0.0,0.0,0.0,0.0,0.0,0.0,0.0,0.0,0.0,0.0,0.0,0.0,0.0,0.0,0.0,0.0,0.0,0.0,0.0,0.0,0.0,0.0,0.0,0.0,0.0,0.0,0.0,0.0,0.0,0.0,0.0,0.0,0.0,0.0,0.0,0.0,0.0,0.0,0.0,0.0,0.0,0.0,0.0,0.0,0.0,0.0,0.0,0.0,0.0,0.0,0.0,0.0,0.0,0.0,0.0,0.0,0.0,0.0,0.0,0.0,0.0,0.0,0.0,0.0,0.0,0.0,0.0,0.0,0.0,0.0,0.0,0.0,0.0,0.0,0.0,0.0,0.0,0.0,0.0,0.0,0.0,0.0,0.0,0.0,0.0,-4.4694,-4.9464,-4.959,-4.959,-4.954,-4.7456,-4.502,0.0,0.0,0.0,0.0,0.0,0.0,0.0,0.0,0.0,0.0,0.0,0.0,0.0,0.0,0.0,0.0,0.0,0.0,0.0,0.0,0.0,0.0,0.0,0.0,0.0,0.0,0.0,0.0,0.0,0.0,0.0,0.0,0.0,0.0,0.0,0.0,0.0,0.0,0.0,0.0,0.0,0.0,0.0,0.0,0.0,0.0,0.0,0.0,0.0,0.0,0.0,0.0,0.0,0.0,0.0,0.0,0.0,0.0,0.0,0.0,0.0,0.0,0.0,0.0,0.0,0.0,0.0,0.0,0.0,0.0,0.0,0.0,0.0,0.0,0.0,0.0,0.0,0.0,0.0,0.0,0.0,0.0,0.0,0.0,0.0,0.0,0.0,0.0,0.0,0.0,0.0,0.0,0.0,0.0,0.0,0.0,0.0,0.0,0.0,0.0,0.0,0.0,0.0,0.0,0.0,0.0,0.0,0.0,-4.5447,-4.9464,-4.959,-4.959,-4.959,-4.7456,-4.5221,0.0,0.0,0.0,0.0,0.0,0.0,0.0,0.0,0.0,0.0,0.0,0.0,0.0,0.0,0.0,0.0,0.0,0.0,0.0,0.0,0.0,0.0,0.0,0.0,0.0,0.0,0.0,0.0,0.0,0.0,0.0,0.0,0.0,0.0,0.0,0.0,0.0,0.0,0.0,0.0,0.0,0.0,0.0,0.0,0.0,0.0,0.0,0.0,-4.3367,0.0,0.0,0.0,0.0,0.0,0.0,0.0,0.0,0.0,0.0,0.0,0.0,0.0,0.0,0.0,0.0,0.0,0.0,0.0,0.0,0.0,0.0,0.0,0.0,0.0,0.0,0.0,0.0,0.0,0.0,0.0,0.0,0.0,0.0,0.0,0.0,0.0,0.0,0.0,0.0,0.0,0.0,0.0,0.0,0.0,0.0,0.0,0.0,0.0,0.0,0.0,0.0,0.0,0.0,0.0,0.0,0.0,0.0,0.0,-4.6476,-4.9464,-4.959,-4.9715,-4.9916,-4.8837,-4.6602,0.0,0.0,0.0,0.0,0.0,0.0,0.0,0.0,0.0,0.0,0.0,0.0,0.0,0.0,0.0,0.0,0.0,0.0,0.0,0.0,0.0,0.0,0.0,0.0,0.0,0.0,0.0,0.0,0.0,0.0,0.0,0.0,0.0,0.0,0.0,0.0,0.0,0.0,0.0,0.0,0.0,0.0,0.0,0.0,0.0,0.0,0.0,0.0,0.0,0.0,0.0,0.0,0.0,0.0,0.0,0.0,0.0,0.0,0.0,0.0,0.0,0.0,0.0,0.0,0.0,0.0,0.0,0.0,0.0,0.0,0.0,0.0,0.0,0.0,0.0,0.0,0.0,0.0,0.0,0.0,0.0,0.0,0.0,0.0,0.0,0.0,0.0,0.0,0.0,0.0,0.0,0.0,0.0,0.0,0.0,0.0,0.0,0.0,0.0,0.0,0.0,0.0,0.0,0.0,0.0,0.0,0.0,-4.4869,-4.7255,-4.959,-4.9816,-5.0092,-5.0544,-5.0544,-4.8234,-4.3463,0.0,0.0,0.0,0.0,0.0,0.0,0.0,0.0,0.0,0.0,0.0,0.0,0.0,0.0,0.0,0.0,0.0,0.0,0.0,0.0,0.0,0.0,0.0,0.0,0.0,0.0,0.0,0.0,0.0,0.0,0.0,0.0,0.0,0.0,0.0,0.0,0.0,0.0,-4.1846,-4.5913,0.0,0.0,0.0,0.0,0.0,0.0,0.0,0.0,-4.6843,0.0,0.0,0.0,0.0,0.0,0.0,0.0,0.0,0.0,0.0,0.0,0.0,0.0,0.0,0.0,0.0,0.0,0.0,0.0,0.0,0.0,0.0,0.0,0.0,0.0,0.0,0.0,0.0,0.0,0.0,0.0,0.0,0.0,0.0,0.0,0.0,0.0,0.0,0.0,0.0,0.0,0.0,0.0,0.0,0.0,0.0,0.0,0.0,0.0,0.0,0.0,0.0,0.0,0.0,0.0,0.0,-4.3821,-4.4552,-4.6652,-5.0193,-5.0745,-5.1046,-5.1147,-5.1147,-4.9012,-4.4618,0.0,0.0,0.0,0.0,0.0,0.0,0.0,0.0,0.0,0.0,0.0,0.0,0.0,0.0,0.0,0.0,0.0,0.0,0.0,0.0,0.0,0.0,0.0,0.0,0.0,0.0,0.0,0.0,0.0,0.0,0.0,0.0,0.0,0.0,0.0,0.0,0.0,0.0,0.0,-5.0383,-5.1366,0.0,0.0,0.0,0.0,0.0,0.0,0.0,0.0,-4.7095,0.0,0.0,0.0,0.0,0.0,0.0,0.0,0.0,0.0,0.0,0.0,0.0,0.0,0.0,0.0,0.0,0.0,0.0,0.0,0.0,0.0,0.0,0.0,0.0,0.0,0.0,0.0,0.0,0.0,0.0,0.0,0.0,0.0,0.0,0.0,0.0,0.0,0.0,0.0,0.0,0.0,0.0,0.0,0.0,0.0,0.0,0.0,0.0,0.0,0.0,0.0,0.0,0.0,0.0,0.0,-4.3911,-4.6753,-4.8987,-5.0795,-5.1147,-5.1423,-5.1699,-5.1724,-4.9615,0.0,0.0,0.0,0.0,0.0,0.0,0.0,0.0,0.0,0.0,0.0,0.0,0.0,0.0,0.0,0.0,0.0,0.0,0.0,0.0,0.0,0.0,0.0,0.0,0.0,0.0,0.0,0.0,0.0,0.0,0.0,0.0,0.0,0.0,0.0,0.0,0.0,0.0,0.0,0.0,-5.159,-5.3069,-5.3964,0.0,0.0,0.0,0.0,0.0,0.0,-4.7863,-4.6956,0.0,0.0,0.0,0.0,0.0,0.0,0.0,0.0,0.0,0.0,0.0,0.0,0.0,0.0,0.0,0.0,0.0,0.0,0.0,0.0,0.0,0.0,0.0,0.0,0.0,0.0,0.0,0.0,0.0,0.0,0.0,0.0,0.0,0.0,0.0,0.0,0.0,0.0,0.0,0.0,0.0,0.0,0.0,0.0,0.0,0.0,0.0,0.0,0.0,0.0,0.0,0.0,0.0,0.0,0.0,-4.3776,-4.841,-5.0996,-5.1423,-5.1548,-5.1825,-5.2251,-5.2251,-5.0193,0.0,0.0,0.0,0.0,0.0,0.0,0.0,0.0,0.0,0.0,0.0,0.0,0.0,0.0,0.0,0.0,0.0,0.0,0.0,0.0,0.0,0.0,0.0,0.0,0.0,0.0,0.0,0.0,0.0,0.0,0.0,0.0,0.0,0.0,0.0,0.0,0.0,0.0,0.0,0.0,0.0,-5.4433,-5.4973,-5.3914,0.0,0.0,0.0,0.0,-4.9314,-4.8705,0.0,0.0,0.0,0.0,0.0,0.0,0.0,0.0,0.0,0.0,0.0,0.0,0.0,0.0,0.0,0.0,0.0,0.0,0.0,0.0,0.0,0.0,0.0,0.0,0.0,0.0,0.0,0.0,0.0,0.0,0.0,0.0,0.0,0.0,0.0,0.0,0.0,0.0,0.0,0.0,0.0,0.0,0.0,0.0,0.0,0.0,0.0,0.0,0.0,0.0,0.0,0.0,0.0,0.0,0.0,0.0,-4.3078,-4.7009,-5.0017,-5.1925,-5.2477,-5.2779,-5.2854,-5.2829,-5.0745,0.0,0.0,0.0,0.0,0.0,0.0,0.0,0.0,0.0,0.0,0.0,0.0,0.0,0.0,0.0,0.0,0.0,0.0,0.0,0.0,0.0,0.0,0.0,0.0,0.0,0.0,0.0,0.0,0.0,0.0,0.0,0.0,0.0,0.0,0.0,0.0,0.0,0.0,0.0,0.0,0.0,-5.6136,-5.434,-5.3664,-5.3169,0.0,0.0,-5.1618,-5.2742,-5.2283,0.0,0.0,0.0,0.0,0.0,0.0,0.0,0.0,0.0,0.0,0.0,0.0,0.0,0.0,0.0,0.0,0.0,0.0,0.0,0.0,0.0,0.0,0.0,0.0,0.0,0.0,0.0,0.0,0.0,0.0,0.0,0.0,0.0,0.0,0.0,0.0,0.0,0.0,0.0,0.0,0.0,0.0,0.0,0.0,0.0,0.0,0.0,0.0,0.0,0.0,0.0,0.0,0.0,0.0,0.0,-4.1694,-4.4184,-4.8682,-5.1599,-5.2528,-5.2804,-5.2929,-5.2929,-5.2929,-5.0695,0.0,0.0,0.0,0.0,0.0,0.0,0.0,0.0,0.0,0.0,0.0,0.0,0.0,0.0,0.0,0.0,0.0,0.0,0.0,0.0,0.0,0.0,0.0,0.0,0.0,0.0,0.0,0.0,0.0,0.0,0.0,0.0,0.0,0.0,0.0,0.0,0.0,0.0,0.0,0.0,0.0,0.0,-5.7416,-5.6194,0.0,0.0,0.0,-5.2542,-5.0999,0.0,0.0,0.0,0.0,0.0,0.0,0.0,0.0,0.0,0.0,0.0,0.0,0.0,0.0,0.0,0.0,0.0,0.0,0.0,0.0,0.0,0.0,0.0,0.0,0.0,0.0,0.0,0.0,0.0,0.0,0.0,0.0,0.0,0.0,0.0,0.0,0.0,0.0,0.0,0.0,0.0,0.0,0.0,0.0,0.0,0.0,0.0,0.0,0.0,0.0,0.0,0.0,0.0,0.0,0.0,0.0,0.0,-4.4997,-5.0237,-5.2929,-5.2929,-5.2929,-5.2929,-5.2929,-5.2929,0.0,0.0,0.0,0.0,0.0,0.0,0.0,0.0,0.0,0.0,0.0,0.0,0.0,0.0,0.0,0.0,0.0,0.0,0.0,0.0,0.0,0.0,0.0,0.0,0.0,0.0,0.0,-3.163,0.0,0.0,0.0,0.0,0.0,0.0,0.0,0.0,0.0,0.0,0.0,0.0,0.0,0.0,-5.7652,-5.9248,-5.8,-5.6678,0.0,0.0,-5.3225,-5.0097,-5.0805,-5.1094,0.0,0.0,0.0,0.0,0.0,0.0,0.0,0.0,0.0,0.0,0.0,0.0,0.0,0.0,0.0,0.0,0.0,0.0,0.0,0.0,0.0,0.0,0.0,0.0,0.0,0.0,0.0,0.0,0.0,0.0,0.0,0.0,0.0,0.0,0.0,0.0,0.0,0.0,0.0,0.0,0.0,0.0,0.0,0.0,0.0,0.0,0.0,0.0,0.0,0.0,0.0,0.0,0.0,0.0,-4.3128,-4.4833,-5.0131,-5.2929,-5.2929,-5.2929,-5.2929,-5.2929,-5.2929,-5.0594,0.0,0.0,0.0,0.0,0.0,0.0,0.0,0.0,0.0,0.0,0.0,0.0,0.0,0.0,0.0,0.0,0.0,0.0,0.0,0.0,0.0,0.0,0.0,0.0,0.0,0.0,0.0,0.0,0.0,0.0,0.0,0.0,0.0,0.0,0.0,0.0,0.0,0.0,0.0,0.0,0.0,-5.6723,-5.7419,-5.7884,-5.8118,0.0,-5.5744,-5.3751,-5.2297,-5.2046,-5.1833,-5.1179,0.0,0.0,0.0,0.0,0.0,0.0,0.0,0.0,0.0,0.0,0.0,0.0,0.0,0.0,0.0,0.0,0.0,0.0,0.0,0.0,0.0,0.0,0.0,0.0,0.0,0.0,0.0,0.0,0.0,0.0,0.0,0.0,0.0,0.0,0.0,0.0,0.0,0.0,0.0,0.0,0.0,0.0,0.0,0.0,0.0,0.0,0.0,0.0,0.0,0.0,0.0,0.0,0.0,-4.3276,-4.5253,-5.0306,-5.2929,-5.2929,-5.2929,-5.2929,-5.2929,-5.2929,-5.1222,0.0,0.0,0.0,0.0,0.0,0.0,0.0,0.0,0.0,0.0,0.0,0.0,0.0,0.0,0.0,0.0,0.0,0.0,0.0,0.0,0.0,0.0,0.0,0.0,0.0,0.0,0.0,0.0,-3.9677,-4.0236,-3.9321,0.0,0.0,0.0,0.0,0.0,0.0,0.0,0.0,0.0,0.0,-5.9015,-5.799,-5.8492,0.0,0.0,-5.4889,-5.3646,-5.2025,-5.1975,-5.2051,-5.1825,-5.2251,0.0,0.0,0.0,0.0,0.0,0.0,0.0,0.0,0.0,0.0,0.0,0.0,0.0,0.0,0.0,0.0,0.0,0.0,0.0,0.0,0.0,0.0,0.0,0.0,0.0,0.0,0.0,0.0,0.0,0.0,0.0,0.0,0.0,0.0,0.0,0.0,0.0,0.0,0.0,0.0,0.0,0.0,0.0,0.0,0.0,0.0,0.0,0.0,0.0,0.0,0.0,0.0,-4.3431,-4.5306,-5.0273,-5.2929,-5.2792,-5.2792,-5.2929,-5.2929,-5.2929,-5.1624,0.0,0.0,0.0,0.0,0.0,0.0,0.0,0.0,0.0,0.0,0.0,0.0,0.0,0.0,0.0,0.0,0.0,0.0,0.0,0.0,0.0,0.0,0.0,0.0,0.0,0.0,0.0,0.0,-4.153,-4.1354,-4.03,0.0,0.0,0.0,0.0,0.0,0.0,0.0,0.0,0.0,0.0,-5.9643,-5.7951,-5.8062,-5.7322,-5.4575,-5.4198,-5.3519,-5.162,-5.1749,-5.2151,-5.2327,0.0,0.0,0.0,0.0,0.0,0.0,0.0,0.0,0.0,0.0,0.0,0.0,0.0,0.0,0.0,0.0,0.0,0.0,0.0,0.0,0.0,0.0,0.0,0.0,0.0,0.0,0.0,0.0,0.0,0.0,-2.8546,0.0,0.0,0.0,0.0,0.0,0.0,0.0,0.0,0.0,0.0,0.0,0.0,0.0,0.0,0.0,0.0,0.0,0.0,0.0,0.0,0.0,0.0,-4.3659,-4.4963,-5.0141,-5.2792,-5.2515,-5.2792,-5.2929,-5.2929,-5.2929,-5.1624,-4.8837,0.0,0.0,0.0,0.0,0.0,0.0,0.0,0.0,0.0,0.0,0.0,0.0,0.0,0.0,0.0,0.0,0.0,0.0,0.0,0.0,0.0,0.0,0.0,0.0,0.0,0.0,-3.9069,-3.9019,-3.9747,0.0,0.0,0.0,0.0,0.0,0.0,0.0,0.0,0.0,0.0,-5.8502,-5.7896,-5.7058,-5.6623,-5.5761,-5.4263,-5.4079,-5.3503,-5.1639,-5.1774,-5.2302,0.0,0.0,0.0,0.0,0.0,0.0,0.0,0.0,0.0,0.0,0.0,0.0,0.0,0.0,0.0,0.0,0.0,0.0,0.0,0.0,0.0,0.0,0.0,0.0,0.0,0.0,0.0,-3.1048,-3.0855,0.0,0.0,0.0,0.0,0.0,0.0,0.0,0.0,0.0,0.0,0.0,-4.7497,-4.7858,0.0,0.0,0.0,0.0,0.0,0.0,0.0,0.0,0.0,0.0,0.0,0.0,-4.3566,-4.5429,-5.0141,-5.2654,-5.2792,-5.2792,-5.2929,-5.2929,-5.2929,-5.1448,-4.8284,0.0,0.0,0.0,0.0,0.0,0.0,0.0,0.0,0.0,0.0,0.0,0.0,0.0,0.0,0.0,0.0,0.0,0.0,0.0,0.0,0.0,0.0,0.0,0.0,0.0,-4.3564,0.0,0.0,0.0,0.0,0.0,0.0,0.0,0.0,0.0,0.0,0.0,-5.6211,-5.7514,-5.7514,-5.6949,-5.5867,-5.6229,-5.5835,0.0,0.0,0.0,0.0,0.0,0.0,0.0,0.0,0.0,0.0,0.0,0.0,0.0,0.0,-5.1172,-5.0996,-5.0946,-5.1071,-5.1448,0.0,0.0,0.0,0.0,0.0,0.0,0.0,0.0,0.0,0.0,0.0,0.0,0.0,0.0,-3.4871,0.0,-3.3717,0.0,0.0,0.0,0.0,0.0,0.0,0.0,0.0,-4.5958,-4.8315,-4.9638,-4.9998,-4.9974,0.0,-4.9806,-4.8002,0.0,0.0,0.0,0.0,0.0,0.0,0.0,0.0,-4.4817,-4.6284,-5.0111,-5.2377,-5.2515,-5.2654,-5.2867,-5.3181,-5.3406,-5.2377,-4.9992,-4.9012,-4.7481,0.0,0.0,0.0,0.0,0.0,0.0,0.0,0.0,0.0,0.0,0.0,0.0,0.0,0.0,0.0,0.0,0.0,0.0,0.0,0.0,0.0,0.0,0.0,-4.6803,0.0,0.0,0.0,0.0,0.0,0.0,0.0,0.0,0.0,-5.1779,-5.4734,-5.6618,-5.6632,-5.6554,-5.6134,-5.5054,0.0,0.0,0.0,0.0,0.0,0.0,0.0,-5.4059,-5.426,-5.4436,-5.4561,-5.4561,-5.4561,-5.4561,-5.4561,0.0,0.0,-5.4336,-5.4285,-5.4411,-5.4787,-5.5013,-5.5089,-5.4888,-5.5013,-5.5139,0.0,0.0,0.0,0.0,0.0,0.0,0.0,0.0,-3.9898,-3.9922,0.0,-3.7709,0.0,0.0,0.0,0.0,0.0,-4.0306,0.0,0.0,-4.9012,-5.0624,-5.0672,-5.0696,-5.0696,-5.0672,-5.0143,-5.0143,-5.0383,-4.7545,0.0,0.0,0.0,0.0,0.0,0.0,-4.7361,-4.763,-5.0303,-5.1845,-5.1845,-5.2288,-5.2953,-5.3733,-5.426,-5.426,-5.3632,-5.1172,-4.9213,-4.7983,-4.2936,0.0,0.0,0.0,0.0,0.0,0.0,0.0,0.0,0.0,0.0,0.0,0.0,0.0,0.0,0.0,0.0,0.0,0.0,0.0,0.0,-4.7757,0.0,0.0,0.0,0.0,0.0,0.0,0.0,0.0,0.0,0.0,-5.3921,-5.5199,-5.5988,-5.5808,0.0,0.0,0.0,0.0,-5.3758,-5.3758,-5.3758,-5.3783,-5.3808,-5.426,-5.4813,-5.5315,0.0,0.0,-5.4637,-5.4612,-5.4662,-5.4637,-5.4662,-5.4787,-5.5315,-5.534,-5.5365,-5.5415,-5.5792,-5.5993,-5.5591,-5.5767,-5.6118,-4.3673,0.0,0.0,0.0,0.0,-4.0547,-4.1365,-4.2615,-4.2471,-4.2279,-4.2038,-4.1293,0.0,0.0,0.0,0.0,0.0,0.0,-4.4299,-4.6511,-4.7834,-4.9229,-5.0696,-5.0696,-5.0696,-5.0696,-5.0551,-5.0551,-5.0648,-4.9782,-4.7714,-4.4635,0.0,0.0,0.0,0.0,-4.723,-4.804,-5.0807,-5.2502,-5.2808,-5.3603,-5.416,-5.431,-5.4486,-5.4486,-5.431,-5.3557,-5.2076,-4.9791,-4.7832,0.0,0.0,0.0,0.0,0.0,0.0,0.0,0.0,0.0,0.0,0.0,0.0,0.0,0.0,0.0,0.0,0.0,0.0,0.0,-5.0971,-5.1046,-5.0092,0.0,0.0,0.0,0.0,0.0,0.0,0.0,0.0,0.0,-5.3833,-5.4142,-5.4407,0.0,0.0,-5.4772,-5.3984,-5.4486,-5.4913,-5.4913,-5.5239,0.0,-5.5491,-5.5641,-5.5792,-5.5942,-5.5842,-5.5742,-5.5742,-5.5742,-5.5742,-5.5742,-5.5742,-5.5792,-5.5892,-5.5641,-5.5566,-5.5892,-5.6118,-5.6168,-5.6043,-5.6118,-5.6219,-4.7136,-4.4082,-4.3241,-4.3385,-4.4154,-4.4154,-4.4996,-4.6367,-4.6367,-4.6199,-4.5838,-4.4996,-4.4058,-4.3,-4.2182,0.0,0.0,0.0,-4.6247,-4.8315,-4.8628,-4.9469,-5.0648,-5.0696,-5.0696,-5.0696,-5.0479,-5.0503,-5.0696,-5.0479,-4.9517,-4.7906,0.0,0.0,-4.6319,-4.8026,-4.9101,-4.9455,-5.143,-5.2641,-5.3069,-5.4185,-5.4602,-5.4745,-5.5089,-5.5114,-5.4888,-5.4888,-5.4009,-5.2151,-5.0695,-4.9063,0.0,0.0,0.0,0.0,0.0,0.0,0.0,0.0,0.0,0.0,0.0,-4.3363,-4.6652,0.0,0.0,0.0,-4.8736,-5.072,-5.2754,-5.2628,0.0,0.0,0.0,0.0,0.0,0.0,0.0,-5.3607,-5.416,-5.4536,-5.4386,-5.4386,-5.4361,-5.4361,-5.4662,-5.4838,-5.4712,0.0,-5.5792,-5.6018,-5.6319,-5.662,-5.6846,-5.6872,-5.6872,-5.6897,-5.6872,-5.6872,-5.6872,-5.6897,-5.6872,-5.6872,-5.6872,-5.6872,-5.6872,-5.6595,-5.6369,-5.652,-5.6545,-5.6595,-5.6821,-5.6897,-5.6872,-4.9493,-4.9758,-4.7834,-4.7305,-4.7738,-4.7762,-4.8868,-5.0672,-5.0672,-5.0696,-5.0551,-4.8628,-4.7209,-4.6199,-4.4275,0.0,-4.704,-4.7545,-4.8796,-5.0696,-5.0696,-5.0696,-5.0696,-5.0696,-5.0696,-5.0696,-5.0167,-5.0215,-5.072,-5.0263,-5.0287,-5.0888,-5.1369,-5.1562,-5.1537,-5.1994,-5.2043,-5.1562,-5.2067,-5.2623,-5.2962,-5.4178,-5.4886,-5.4862,-5.5651,-5.5968,-5.5491,-5.544,-5.5214,-5.4662,-5.2251,-5.0645,-5.0067,0.0,0.0,0.0,0.0,0.0,0.0,0.0,0.0,0.0,0.0,0.0,0.0,0.0,0.0,0.0,-5.3055,0.0,-5.3055,-5.3055,0.0,0.0,0.0,-5.3984,-5.4511,-5.4587,-5.4637,-5.4637,0.0,0.0,-5.539,-5.5491,-5.5516,-5.5516,-5.5516,-5.5691,-5.6143,-5.6269,-5.652,-5.6997,-5.7097,-5.7298,-5.77,-5.7801,-5.7801,-5.7801,-5.7901,-5.7826,-5.7826,-5.7826,-5.7876,-5.7826,-5.7876,-5.7876,-5.7876,-5.7801,-5.775,-5.7248,-5.7148,-5.7273,-5.77,-5.7801,-5.7801,-5.0383,-5.0455,-4.995,-4.983,-4.9926,-4.995,-5.0239,-5.0696,-5.0696,-5.0696,-5.0672,-5.0167,-4.9806,-4.9541,-4.9036,-4.9157,-4.9758,-4.9878,-5.0215,-5.0696,-5.0696,-5.0696,-5.0696,-5.0696,-5.0696,-5.0696,-5.0576,-5.0768,-5.1273,-5.1177,-5.1586,-5.2475,-5.2644,-5.2307,-5.1537,-5.2018,-5.2235,-5.2091,-5.2889,-5.3643,-5.45,-5.477,-5.5139,-5.5433,-5.5557,-5.5851,-5.6018,-5.6018,-5.5968,-5.5817,-5.5189,-5.4787,-5.4612,-5.1222,0.0,0.0,0.0,0.0,0.0,0.0,0.0,0.0,0.0,-4.9967,-5.3256,0.0,-5.3281,0.0,-5.4185,-5.4185,-5.4185,-5.4185,0.0,0.0,-5.4361,-5.4411,-5.4561,-5.4938,-5.5189,-5.5189,-5.5566,-5.5867,-5.5993,-5.6369,-5.6646,-5.6646,-5.6646,-5.6545,-5.6294,-5.6972,-5.7549,-5.765,-5.77,-5.775,-5.7901,-5.7901,-5.7926,-5.7901,-5.7901,-5.7901,-5.7901,-5.7901,-5.7901,-5.7901,-5.7901,-5.7901,-5.7951,-5.7901,-5.8052,-5.8202,-5.8001,-5.7725,-5.7876,-5.7901,-5.7901,-5.0696,-5.0696,-5.0696,-5.0551,-5.0359,-5.06,-5.0696,-5.0696,-5.0696,-5.0696,-5.0696,-5.0696,-5.0696,-5.0696,-5.0696,-5.0696,-5.0696,-5.0696,-5.0696,-5.0696,-5.0696,-5.0696,-5.0696,-5.0696,-5.0816,-5.1056,-5.1056,-5.1321,-5.1826,-5.185,-5.2139,-5.2716,-5.2956,-5.2788,-5.2259,-5.2716,-5.286,-5.2644,-5.3273,-5.4078,-5.4762,-5.4936,-5.5358,-5.6029,-5.6054,-5.6203,-5.665,-5.64,-5.64,-5.6625,-5.6323,-5.6319,-5.652,-5.431,-5.3708,0.0,0.0,0.0,0.0,0.0,0.0,0.0,0.0,0.0,0.0,0.0,-5.3909,-5.4511,-5.4561,-5.4561,-5.4561,-5.4561,-5.4662,-5.4913,-5.4938,-5.5039,-5.5265,-5.5566,-5.5742,-5.5767,-5.6244,-5.657,-5.6595,-5.7072,-5.7424,-5.7424,-5.7625,-5.7575,-5.7123,-5.7524,-5.7976,-5.8227,-5.8252,-5.8353,-5.8554,-5.8604,-5.8629,-5.8604,-5.8604,-5.8604,-5.8604,-5.8604,-5.8679,-5.8905,-5.8981,-5.9081,-5.9282,-5.9357,-5.9483,-5.9659,-5.9583,-5.9182,-5.8704,-5.8629,-5.8654,-5.0696,-5.0696,-5.0696,-5.0431,-5.0022,-5.0503,-5.0624,-5.0503,-5.0503,-5.0527,-5.06,-5.0672,-5.0696,-5.0696,-5.0696,-5.0696,-5.0696,-5.0696,-5.0696,-5.0696,-5.0768,-5.0816,-5.0816,-5.0864,-5.1129,-5.1586,-5.1586,-5.185,-5.2379,-5.2379,-5.2451,-5.2596,-5.3029,-5.3293,-5.3389,-5.3798,-5.3798,-5.3389,-5.3798,-5.4255,-5.4688,-5.4993,-5.5692,-5.6461,-5.651,-5.6663,-5.7095,-5.6649,-5.66,-5.7197,-5.665,-5.6498,-5.7097,-5.6696,-5.6219,0.0,-5.6093,0.0,0.0,0.0,0.0,0.0,0.0,0.0,0.0,-5.4737,-5.4762,-5.4687,-5.4737,-5.4762,-5.4762,-5.4787,-5.4963,-5.544,-5.5491,-5.5717,-5.6244,-5.6319,-5.6344,-5.642,-5.6846,-5.7148,-5.7173,-5.765,-5.8001,-5.8052,-5.8453,-5.8579,-5.8227,-5.8152,-5.8353,-5.8755,-5.888,-5.9131,-5.9483,-5.9659,-5.9709,-5.9709,-5.9709,-5.9709,-5.9709,-5.9709,-5.9859,-6.0286,-6.0362,-6.0537,-6.1115,-6.1115,-6.1115,-6.1065,-6.1014,-6.0738,-5.996,-5.9709,-5.9859,-5.0696,-5.0696,-5.0696,-5.0648,-5.0551,-5.0672,-5.0191,-4.9397,-4.9373,-4.9614,-5.0046,-5.0503,-5.0696,-5.0696,-5.0696,-5.0696,-5.0696,-5.0696,-5.0696,-5.072,-5.1153,-5.1345,-5.1369,-5.1778,-5.2043,-5.2139,-5.2115,-5.2403,-5.2908,-5.2908,-5.3341,-5.4159,-5.4279,-5.452,-5.4928,0.0,0.0,0.0,-5.5049,-5.5145,-5.5241,-5.5241,-5.5622,-5.6051,-5.6051,0.0,-5.6663,-5.654,-5.6693,-5.7247,-5.7048,0.0,0.0,0.0,0.0,0.0,0.0,0.0,0.0,0.0,0.0,0.0,-5.5968,-5.5717,-5.529,-5.5641,-5.5717,-5.529,-5.5641,-5.5892,-5.5892,-5.5892,-5.5942,-5.6043,-5.6068,-5.6269,-5.6796,-5.6872,-5.7047,-5.7524,-5.7675,-5.775,-5.7775,-5.8227,-5.8554,-5.8604,-5.9031,-5.9282,-5.9207,-5.9156,-5.9232,-5.9357,-5.9709,-6.0035,-6.0136,-6.0537,-6.0763,-6.0864,-6.0864,-6.0839,-6.0814,-6.0814,-6.0839,-6.1014,-6.1014,-6.104,-6.119,-6.119,-6.1266,-6.119,-6.1215,-6.1115,-6.0914,-6.0864,-6.0889,-5.1489,0.0,-5.1489,-5.1177,0.0,-5.0984,-5.0479,-4.9493,-4.9758,-5.0022,-5.0287,-5.0576,-5.0696,-5.0696,-5.0407,-5.0287,-5.0287,-5.0022,-5.0191,-5.072,-5.0984,-5.1369,-5.1898,-5.2163,-5.2548,-5.3029,-5.3053,-5.3437,-5.4183,-5.4207,-5.4496,-5.5001,-5.5001,-5.5145,-5.5385,-5.5674,-5.5674,-5.5385,-5.5385,-5.553,-5.5794,-5.5818,-5.6095,-5.6829,-5.6516,0.0,0.0,0.0,0.0,0.0,0.0,0.0,0.0,-5.7901,0.0,-5.7901,-5.7625,-5.7474,-5.7449,-5.7198,-5.7047,-5.7047,-5.7047,-5.6696,-5.5867,-5.6043,-5.6219,-5.6219,-5.647,-5.6746,-5.6997,-5.7047,-5.7047,-5.7047,-5.7047,-5.7148,-5.7399,-5.7449,-5.7575,-5.7851,-5.8127,-5.8303,-5.8303,-5.878,-5.9081,-5.9131,-5.9558,-5.991,-5.991,-5.991,-5.9985,-6.0261,-6.0537,-6.0738,-6.0763,-6.0964,-6.119,-6.119,-6.119,-6.119,-6.119,-6.119,-6.124,-6.1492,-6.1592,-6.1642,-6.1943,-6.1994,-6.1994,-6.1994,-6.1994,-6.1994,-6.1969,-6.1567,-6.1266,-5.2283,-5.2283,-5.2283,-5.1778,-5.1008,-5.1441,-5.1129,-5.0311,0.0,0.0,0.0,-5.0936,-5.0984,-5.0936,-5.0503,-5.0287,-5.0263,-4.9854,-5.0143,-5.0984,-5.1177,-5.1706,-5.2548,-5.274,-5.3269,-5.4063,-5.4111,-5.4544,-5.5361,-5.5385,-5.5458,-5.553,-5.5554,-5.5602,-5.5698,-5.6155,-5.6155,-5.5722,-5.5674,-5.5914,-5.6347,-5.6371,-5.6722,-5.7473,-5.718,-5.718,-5.7497,-5.7061,-5.7036,-5.7765,-5.758,-5.7769,-5.8345,-5.8276,-5.8177,-5.8177,-5.8102,-5.8052,-5.8027,-5.7951,-5.7901,-5.7901,-5.7901,-5.7499,-5.657,-5.6495,-5.6696,-5.7148,-5.7198,-5.7374,-5.7851,-5.7901,-5.7901,-5.7901,-5.7901,-5.7926,-5.8027,-5.8027,-5.8102,-5.8202,-5.8604,-5.8855,-5.888,-5.9307,-5.9633,-5.9709,-6.0111,-6.0537,-6.0563,-6.0563,-6.0613,-6.0989,-6.119,-6.1316,-6.1341,-6.1492,-6.1466,-6.1567,-6.1542,-6.1466,-6.1466,-6.1466,-6.1667,-6.2069,-6.2144,-6.232,-6.2697,-6.2747,-6.2822,-6.2822,-6.2822,-6.2822,-6.2747,-6.2119,-6.1692,-5.2283,-5.2283,-5.2283,-5.2187,-5.2067,-5.2139,-5.2091,-5.1922,-5.1562,-5.1393,-5.1417,-5.185,-5.2067,-5.2043,-5.197,-5.1946,-5.1946,-5.1874,-5.1922,-5.2115,-5.298,-5.3461,-5.3654,-5.4544,-5.5025,-5.5169,-5.5169,-5.5241,-5.5385,-5.5409,-5.5626,-5.6059,-5.6107,-5.6323,-5.6756,-5.6876,-5.6876,-5.678,-5.6804,-5.6828,-5.69,-5.69,-5.6949,-5.7021,-5.7021,-5.7021,-5.7021,-5.6949,-5.7424,-5.8129,-5.8163,-5.8557,-5.9228,-5.9307,-5.9257,-5.9257,-5.8855,-5.8604,-5.8604,-5.8177,-5.7901,-5.7901,-5.7901,-5.7826,-5.7675,-5.765,-5.77,-5.7775,-5.7775,-5.7801,-5.7901,-5.7951,-5.7976,-5.7926,-5.7926,-5.8077,-5.8529,-5.8604,-5.878,-5.9182,-5.9332,-5.9382,-5.9483,-5.9885,-6.0211,-6.0286,-6.0688,-6.1215,-6.1542,-6.1366,-6.1115,-6.124,-6.1592,-6.1843,-6.1918,-6.2295,-6.2446,-6.2596,-6.2521,-6.2471,-6.2471,-6.2446,-6.2496,-6.2672,-6.2647,-6.2722,-6.2822,-6.2822,-6.2822,-6.2822,-6.2822,-6.2822,-6.2822,-6.2621,-6.2571,-5.3125,-5.3125,-5.3125,-5.2956,-5.274,-5.3004,-5.3437,-5.3942,-5.3726,-5.2956,-5.1994,-5.2163,-5.2427,-5.2668,-5.2403,-5.2283,-5.2283,-5.1994,-5.2163,-5.2716,-5.3197,-5.387,-5.4664,-5.5169,-5.5554,-5.5818,-5.5842,-5.5987,-5.6251,-5.6275,-5.6395,-5.666,-5.666,-5.678,-5.6997,-5.7021,-5.7165,-5.743,-5.7165,-5.7021,-5.7021,-5.7021,-5.7021,-5.7021,-5.7021,-5.7021,-5.7021,-5.7021,-5.718,-5.7497,-5.7813,-5.8104,-5.8418,-5.8887,-5.9173,-5.9173,-5.9128,-5.9131,-5.9131,-5.8905,-5.8755,-5.878,-5.8755,-5.878,-5.8755,-5.8227,-5.8027,-5.8303,-5.8353,-5.8453,-5.873,-5.8755,-5.878,-5.8755,-5.8755,-5.888,-5.9081,-5.9131,-5.9357,-5.9834,-5.9935,-6.006,-6.0362,-6.0638,-6.0788,-6.0839,-6.1291,-6.1843,-6.237,-6.2245,-6.2069,-6.2094,-6.2295,-6.2421,-6.2471,-6.2647,-6.2822,-6.2822,-6.2822,-6.2822,-6.2822,-6.2822,-6.2822,-6.2822,-6.2822,-6.2822,-6.2822,-6.2822,-6.2822,-6.2822,-6.2822,-6.2822,-6.2822,-6.2822,-6.2822,-5.4159,-5.4183,-5.4183,-5.3942,-5.363,-5.4015,-5.464,-5.5361,-5.5361,-5.4496,-5.3101,-5.298,-5.3221,-5.3534,-5.3149,-5.298,-5.2932,-5.2548,-5.2836,-5.3534,-5.3726,-5.4447,-5.5506,-5.5698,-5.5987,-5.6371,-5.6419,-5.6636,-5.6973,-5.7021,-5.7021,-5.7045,-5.7141,-5.7189,-5.7213,-5.7333,-5.7574,-5.7935,-5.7574,-5.7381,-5.7381,-5.7381,-5.7381,-5.7381,-5.7381,-5.7381,-5.7381,-5.7381,-5.7381,-5.7542,-5.7861,-5.7996,-5.8179,-5.8763,-5.9235,-5.9235,-5.9704,-5.9859,-5.9885,-5.9885,-5.9885,-5.9885,-5.9885,-5.9885,-5.9809,-5.9131,-5.8679,-5.888,-5.8905,-5.9056,-5.9357,-5.9458,-5.9508,-5.9508,-5.9608,-5.9659,-5.9684,-5.9784,-6.0035,-6.0437,-6.0512,-6.0688,-6.1065,-6.1291,-6.1441,-6.1617,-6.1943,-6.237,-6.2747,-6.2822,-6.2822,-6.2822,-6.2822,-6.2797,-6.2822,-6.2822,-6.2822,-6.2822,-6.2822,-6.2822,-6.2822,-6.2822,-6.2822,-6.2822,-6.2822,-6.2822,-6.2822,-6.2822,-6.2822,-6.2822,-6.2822,-6.2822,-6.2822,-6.2822,-6.2822,-5.5241,-5.5241,-5.5193,-5.5241,-5.5169,-5.5217,-5.5313,-5.5433,-5.5409,-5.5313,-5.5073,-5.5097,-5.5097,-5.5169,-5.5073,-5.5025,-5.5025,-5.5049,-5.5049,-5.5169,-5.5698,-5.6011,-5.6179,-5.6636,-5.69,-5.6925,-5.6925,-5.6925,-5.7021,-5.7045,-5.7045,-5.7069,-5.7502,-5.7742,-5.779,-5.8199,-5.8464,-5.8512,-5.8488,-5.8464,-5.844,-5.8464,-5.8464,-5.8464,-5.844,-5.8464,-5.8392,-5.8464,-5.8603,-5.8928,-5.9066,-5.9228,-5.9551,-6.0033,-6.0353,-6.0328,-6.0672,-6.104,-6.1014,-6.104,-6.0989,-6.104,-6.0964,-6.0964,-6.0964,-6.0889,-6.0437,-5.9734,-5.9433,-5.9508,-5.9483,-5.9558,-5.9608,-5.9684,-5.9985,-6.0236,-6.0286,-6.0713,-6.1065,-6.109,-6.109,-6.114,-6.1316,-6.1667,-6.2094,-6.2446,-6.2571,-6.2672,-6.2797,-6.2822,-6.2822,-6.2822,-6.2822,-6.2822,-6.2822,-6.2822,-6.2822,-6.2822,-6.2822,-6.2822,-6.2822,-6.2822,-6.2822,-6.2822,-6.2822,-6.2822,-6.2822,-6.2822,-6.2822,-6.2822,-6.2822,-6.2822,-6.2822,-6.2822,-6.2822,-5.5385,-5.5385,-5.5385,-5.5602,-5.5866,-5.589,-5.6059,-5.6347,-5.6347,-5.6347,-5.6371,-5.6371,-5.6179,-5.589,-5.589,-5.589,-5.589,-5.589,-5.589,-5.5914,-5.6131,-5.6395,-5.6708,-5.69,-5.7021,-5.7021,-5.7021,-5.7021,-5.7069,-5.7333,-5.7646,-5.7935,-5.8175,-5.8271,-5.8295,-5.8488,-5.8752,-5.9065,-5.9065,-5.9209,-5.9426,-5.8921,-5.8608,-5.8608,-5.8608,-5.8608,-5.8608,-5.8608,-5.8771,-5.8771,-5.8911,-5.8935,-5.9073,-5.956,-5.9722,-5.9698,-6.0366,-6.0846,-6.0846,-6.1006,-6.119,-6.119,-6.119,-6.119,-6.119,-6.119,-6.0964,-6.0613,-6.0487,-6.0487,-6.0462,-6.0487,-6.0512,-6.0537,-6.0713,-6.0839,-6.0839,-6.104,-6.1291,-6.1592,-6.1667,-6.1818,-6.2094,-6.2345,-6.2571,-6.2797,-6.2822,-6.2822,-6.2822,-6.2822,-6.2822,-6.2822,-6.2822,-6.2822,-6.2822,-6.2822,-6.2822,-6.2822,-6.2822,-6.2822,-6.2822,-6.2822,-6.2822,-6.2847,-6.2873,-6.2873,-6.2822,-6.2822,-6.2822,-6.2873,-6.2847,-6.2822,-6.2822,-6.2822,-6.2822,-5.6059,-5.6083,-5.6203,-5.6492,-5.6876,-5.6876,-5.7021,-5.7213,-5.7237,-5.7165,-5.7021,-5.7021,-5.69,-5.666,-5.6516,-5.6444,-5.6444,-5.6444,-5.6444,-5.6444,-5.6444,-5.6732,-5.7189,-5.7237,-5.7309,-5.743,-5.7478,-5.7478,-5.7502,-5.7814,-5.8223,-5.856,-5.8752,-5.8824,-5.8824,-5.8921,-5.9209,-5.957,-5.9594,-5.9786,-6.0003,-5.9426,-5.9041,-5.9041,-5.9017,-5.9041,-5.9041,-5.9017,-5.9041,-5.9041,-5.9017,-5.9017,-5.9041,-5.9346,-5.9674,-5.9837,-6.0489,-6.0812,-6.0949,-6.1296,-6.1457,-6.1642,-6.1642,-6.1617,-6.1642,-6.1642,-6.1642,-6.1617,-6.1642,-6.1567,-6.119,-6.119,-6.119,-6.119,-6.1291,-6.1416,-6.1416,-6.1517,-6.1818,-6.2144,-6.222,-6.237,-6.2722,-6.2797,-6.2797,-6.2822,-6.2822,-6.2822,-6.2822,-6.2822,-6.2822,-6.2822,-6.2822,-6.2822,-6.2822,-6.2822,-6.2822,-6.2822,-6.2822,-6.2822,-6.2822,-6.2822,-6.2998,-6.3099,-6.3048,-6.3199,-6.3475,-6.34,-6.3249,-6.3274,-6.3274,-6.3274,-6.3425,-6.3299,-6.3299,-5.7718,-5.7742,-5.8223,-5.8343,-5.8464,-5.8416,-5.8175,-5.7766,-5.7766,-5.7502,-5.7117,-5.7093,-5.7309,-5.767,-5.7237,-5.6997,-5.6997,-5.7021,-5.7021,-5.7021,-5.7021,-5.7285,-5.7742,-5.779,-5.8031,-5.8367,-5.8367,-5.844,-5.8488,-5.8536,-5.8584,-5.8656,-5.9137,-5.9353,-5.9402,-5.9786,-6.0099,-6.0075,-6.0075,-6.0147,-6.0171,-6.0099,-6.0027,-6.0003,-6.0075,-6.0027,-6.0051,-6.0075,-6.0075,-6.0075,-6.0027,-6.0051,-6.0075,-6.0386,-6.0861,-6.1193,-6.1408,-6.1573,-6.1853,-6.1993,-6.2181,-6.2534,-6.2458,-6.2697,-6.2596,-6.2596,-6.2596,-6.2697,-6.2621,-6.227,-6.1466,-6.1391,-6.1341,-6.1341,-6.1692,-6.1918,-6.1969,-6.2345,-6.2697,-6.2747,-6.2722,-6.2722,-6.2822,-6.2822,-6.2822,-6.2822,-6.2822,-6.2822,-6.2822,-6.2822,-6.2822,-6.2822,-6.2822,-6.2822,-6.2822,-6.2822,-6.2822,-6.2873,-6.2898,-6.2898,-6.2847,-6.2873,-6.3199,-6.345,-6.3576,-6.3827,-6.4203,-6.4329,-6.4228,-6.4178,-6.4128,-6.4153,-6.3977,-6.4254,-6.4228,-5.8319,-5.8343,-5.8512,-5.8608,-5.8608,-5.8608,-5.8488,-5.8319,-5.8319,-5.8223,-5.8055,-5.8031,-5.8127,-5.8319,-5.8127,-5.8031,-5.8031,-5.8031,-5.8031,-5.8031,-5.8031,-5.8127,-5.8295,-5.8319,-5.8392,-5.856,-5.8608,-5.8776,-5.9089,-5.9089,-5.9281,-5.9594,-5.9786,-5.9883,-5.9931,-6.0075,-6.0171,-6.0171,-6.0171,-6.0171,-6.0171,-6.0171,-6.0171,-6.0171,-6.0171,-6.0171,-6.0171,-6.0171,-6.0171,-6.0171,-6.0171,-6.0171,-6.0171,-6.0339,-6.0507,-6.0674,-6.1174,-6.1506,-6.134,-6.1837,-6.2167,-6.1977,-6.2331,-6.2331,-6.2495,-6.2659,-6.2822,-6.2822,-6.2822,-6.2571,-6.2395,-6.2245,-6.222,-6.227,-6.2395,-6.2521,-6.2546,-6.2722,-6.2822,-6.2822,-6.2822,-6.2822,-6.2822,-6.2822,-6.2822,-6.2822,-6.2822,-6.2822,-6.2822,-6.2822,-6.2822,-6.2822,-6.2822,-6.2822,-6.2822,-6.2822,-6.2847,-6.2973,-6.3048,-6.3324,-6.34,-6.3651,-6.3977,-6.4078,-6.4178,-6.4279,-6.463,-6.468,-6.468,-6.463,-6.4605,-6.4705,-6.4454,-6.4705,-6.463,-5.8945,-5.9113,-5.9113,-5.9113,-5.9113,-5.9089,-5.8993,-5.8872,-5.8848,-5.8752,-5.8632,-5.8608,-5.868,-5.8824,-5.8848,-5.8969,-5.9041,-5.8776,-5.8608,-5.8608,-5.8608,-5.868,-5.8824,-5.8848,-5.8945,-5.9089,-5.9113,-5.9305,-5.9594,-5.9642,-5.9834,-6.0147,-6.0171,-6.0171,-6.0171,-6.0171,-6.0171,-6.0171,-6.0171,-6.0171,-6.0171,-6.0171,-6.0171,-6.0171,-6.0171,-6.0171,-6.0171,-6.0171,-6.0171,-6.0171,-6.0171,-6.0171,-6.0171,-6.0171,-6.0171,-6.0339,-6.065,-6.0983,-6.0817,-6.134,-6.1672,-6.1482,-6.1837,-6.2167,-6.2002,-6.2356,-6.2495,-6.2495,-6.2495,-6.2659,-6.2659,-6.2659,-6.2822,-6.2822,-6.2822,-6.2822,-6.2822,-6.2822,-6.2822,-6.2822,-6.2822,-6.2822,-6.2822,-6.2822,-6.2822,-6.2822,-6.2822,-6.2822,-6.2822,-6.2822,-6.2822,-6.2847,-6.3023,-6.3124,-6.3274,-6.34,-6.3324,-6.34,-6.3626,-6.3852,-6.4028,-6.4329,-6.458,-6.468,-6.4781,-6.4831,-6.4906,-6.4957,-6.4957,-6.4931,-6.5132,-6.5308,-6.5183,-6.5082,-6.5107,-5.969,-6.0051,-6.0171,-6.0075,-6.0027,-6.0027,-5.9834,-5.9426,-5.9402,-5.9161,-5.8848,-5.8704,-5.9017,-5.9329,-5.9402,-5.9642,-5.981,-5.9161,-5.8776,-5.8776,-5.8752,-5.8969,-5.9378,-5.9402,-5.9594,-6.0003,-6.0099,-6.0123,-6.0099,-6.0099,-6.0123,-6.0171,-6.0171,-6.0171,-6.0171,-6.0171,-6.0171,-6.0171,-6.0171,-6.0171,-6.0171,-6.0171,-6.0171,-6.0171,-6.0171,-6.0171,-6.0171,-6.0171,-6.0171,-6.0171,-6.0171,-6.0171,-6.0171,-6.0171,-6.0171,-6.0171,-6.0339,-6.0507,-6.0674,-6.0841,-6.1174,-6.134,-6.1837,-6.1837,-6.1672,-6.1837,-6.2002,-6.1812,-6.2002,-6.2167,-6.2331,-6.2495,-6.2822,-6.2822,-6.2822,-6.2822,-6.2822,-6.2822,-6.2822,-6.2822,-6.2822,-6.2822,-6.2822,-6.2822,-6.2822,-6.2822,-6.2822,-6.2873,-6.2948,-6.2973,-6.2898,-6.3023,-6.3375,-6.3651,-6.3877,-6.4078,-6.3977,-6.3952,-6.4254,-6.4479,-6.4555,-6.4756,-6.5057,-6.5208,-6.5283,-6.5358,-6.5534,-6.5609,-6.5685,-6.571,-6.5886,-6.5835,-6.5735,-6.5634,-6.5785,-5.8799,-6.0171,-6.0171,-6.0171,-6.0171,-6.0171,-6.0075,-5.9931,-5.9931,-5.9834,-5.969,-5.969,-5.9786,-5.9883,-5.9931,-6.0003,-6.0147,-5.981,-5.9666,-5.9642,-5.9666,-5.9738,-5.9883,-5.9931,-6.0027,-6.0147,-6.0171,-6.0171,-6.0171,-6.0171,-6.0171,-6.0171,-6.0171,-6.0171,-6.0171,-6.0171,-6.0171,-6.0171,-6.0171,-6.0171,-6.0171,-6.0171,-6.0171,-6.0171,-6.0171,-6.0171,-6.0171,-6.0171,-6.0171,-6.0171,-6.0171,-6.0171,-6.0171,-6.0171,-6.0171,-6.0171,-6.0507,-6.0507,-6.0339,-6.0674,-6.0674,-6.0674,-6.1008,-6.1174,-6.1174,-6.1506,-6.1672,-6.1482,-6.1672,-6.1862,-6.2167,-6.2331,-6.2495,-6.2822,-6.2822,-6.2822,-6.2822,-6.2822,-6.2822,-6.2822,-6.2822,-6.2822,-6.2822,-6.2847,-6.2873,-6.2898,-6.2898,-6.2998,-6.3324,-6.3425,-6.3601,-6.3902,-6.4153,-6.4228,-6.4379,-6.463,-6.4781,-6.4705,-6.4906,-6.5032,-6.5082,-6.5208,-6.5484,-6.5634,-6.5735,-6.5835,-6.6036,-6.6112,-6.6112,-6.6112,-6.6036,-6.6036,-6.6086,-6.6112,-6.6112,-5.7504,-5.9111,-5.9111,-5.9642,-6.0171,-6.0171,-6.0171,-6.0171,-6.0171,-6.0171,-6.0171,-6.0171,-6.0171,-6.0171,-6.0171,-6.0171,-6.0171,-6.0171,-6.0171,-6.0171,-6.0171,-6.0171,-6.0171,-6.0171,-6.0171,-6.0171,-6.0171,-6.0171,-6.0171,-6.0171,-6.0171,-6.0171,-6.0171,-6.0171,-6.0171,-6.0171,-6.0171,-6.0171,-6.0171,-6.0171,-6.0171,-6.0171,-6.0171,-6.0171,-6.0171,-6.0171,-6.0171,-6.0171,-6.0171,-6.0171,-6.0171,-6.0171,-6.0171,-6.0171,-6.0171,-6.0171,-6.0339,-6.0507,-6.0171,-6.0507,-6.0507,-6.0339,-6.0507,-6.0674,-6.0674,-6.1008,-6.1174,-6.0983,-6.1174,-6.1365,-6.1837,-6.2027,-6.2191,-6.2495,-6.2659,-6.2822,-6.2822,-6.2822,-6.2822,-6.2822,-6.2822,-6.2822,-6.2822,-6.3073,-6.3124,-6.3174,-6.3324,-6.35,-6.3877,-6.3952,-6.4228,-6.4479,-6.463,-6.4731,-6.4806,-6.5132,-6.5534,-6.5559,-6.5559,-6.5609,-6.5634,-6.5735,-6.5936,-6.5911,-6.5986,-6.5961,-6.6112,-6.6112,-6.6112,-6.6112,-6.6112,-6.6112,-6.6112,-6.6112,-6.6112,-5.5575,-5.7355,-5.7527,-5.8747,-6.0171,-6.0171,-6.0171,-6.0171,-6.0171,-6.0171,-6.0171,-6.0171,-6.0171,-6.0171,-6.0171,-6.0171,-6.0171,-6.0171,-6.0171,-6.0171,-6.0171,-6.0171,-6.0171,-6.0171,-6.0171,-6.0171,-6.0171,-6.0171,-6.0171,-6.0171,-6.0171,-6.0171,-6.0171,-6.0171,-6.0171,-6.0171,-6.0171,-6.0171,-6.0171,-6.0171,-6.0171,-6.0171,-6.0171,-6.0171,-6.0171,-6.0171,-6.0171,-6.0171,-6.0171,-6.0171,-6.0171,-6.0171,-6.0171,-6.0171,-6.0171,-6.0171,-6.0171,-6.0171,-6.0171,-6.0171,-6.0171,-6.0171,-6.0507,-6.0674,-6.0339,-6.0507,-6.0674,-6.0339,-6.0674,-6.1032,-6.1438,-6.1629,-6.182,-6.2316,-6.2695,-6.2809,-6.2898,-6.2948,-6.3124,-6.3048,-6.2948,-6.2948,-6.3099,-6.3475,-6.3676,-6.3802,-6.4078,-6.4254,-6.4479,-6.453,-6.4555,-6.4806,-6.5183,-6.5258,-6.5358,-6.5509,-6.586,-6.586,-6.5886,-6.5911,-6.5936,-6.6036,-6.6112,-6.6112,-6.6112,-6.6112,-6.6112,-6.6112,-6.6112,-6.6112,-6.6112,-6.6112,-6.6112,-6.6137,-6.6162,-5.5575,-5.7527,-5.8941,-5.9811,-6.0171,-6.0171,-6.0171,-6.0171,-6.0171,-6.0171,-6.0171,-6.0171,-6.0171,-6.0171,-6.0171,-6.0171,-6.0171,-6.0171,-6.0171,-6.0171,-6.0171,-6.0171,-6.0171,-6.0171,-6.0171,-6.0171,-6.0171,-6.0171,-6.0171,-6.0171,-6.0171,-6.0171,-6.0171,-6.0171,-6.0171,-6.0171,-6.0171,-6.0171,-6.0171,-6.0171,-6.0171,-6.0195,-6.0171,-6.0171,-6.0219,-6.0219,-6.0195,-6.0171,-6.0171,-6.0171,-6.0171,-6.0171,-6.0171,-6.0171,-6.0171,-6.0171,-6.0171,-6.0171,-6.0171,-6.0171,-6.0171,-6.0171,-6.0339,-6.0339,-6.0171,-6.0339,-6.0339,-6.0171,-6.0339,-6.07,-6.1327,-6.1593,-6.1932,-6.2756,-6.2869,-6.3144,-6.336,-6.3802,-6.4028,-6.4028,-6.3977,-6.3952,-6.3977,-6.4103,-6.4254,-6.4279,-6.4454,-6.468,-6.4957,-6.5082,-6.5107,-6.5534,-6.586,-6.586,-6.5911,-6.6011,-6.6086,-6.6061,-6.6061,-6.6036,-6.6061,-6.6086,-6.6112,-6.6112,-6.6112,-6.6112,-6.6112,-6.6112,-6.6112,-6.6162,-6.6212,-6.6262,-6.6187,-6.6162,-6.6262,-5.5202,-5.6272,-5.8236,-5.8941,-5.9111,-5.9835,-6.0171,-6.0171,-6.0171,-6.0171,-6.0171,-6.0171,-6.0171,-6.0171,-6.0171,-6.0171,-6.0171,-6.0171,-6.0171,-6.0171,-6.0171,-6.0171,-6.0171,-6.0171,-6.0171,-6.0171,-6.0171,-6.0171,-6.0171,-6.0171,-6.0171,-6.0171,-6.0171,-6.0171,-6.0171,-6.0171,-6.0171,-6.0171,-6.0171,-6.0171,-6.0171,-6.0412,-6.0508,-6.058,-6.07,-6.0869,-6.0869,-6.0869,-6.0676,-6.0315,-6.0171,-6.0171,-6.0171,-6.0171,-6.0171,-6.0171,-6.0171,-6.0171,-6.0171,-6.0171,-6.0171,-6.0171,-6.0171,-6.0171,-6.0243,-6.0339,-6.0508,-6.0532,-6.07,-6.1159,-6.1692,-6.196,-6.2276,-6.2666,-6.303,-6.3221,-6.3409,-6.3583,-6.3925,-6.4119,-6.4119,-6.4312,-6.4479,-6.4655,-6.4781,-6.4881,-6.5082,-6.5333,-6.5584,-6.5609,-6.5685,-6.5961,-6.6112,-6.6061,-6.6036,-6.6086,-6.6112,-6.6112,-6.6112,-6.6112,-6.6112,-6.6112,-6.6112,-6.6112,-6.6112,-6.6112,-6.6112,-6.6162,-6.6312,-6.6363,-6.6388,-6.6564,-6.6639,-6.6564,-6.6614,-5.4146,-5.4323,-5.6272,-5.7182,-5.7699,-5.9111,-5.9979,-6.0171,-6.0171,-6.0171,-6.0171,-6.0171,-6.0171,-6.0171,-6.0171,-6.0171,-6.0171,-6.0171,-6.0171,-6.0171,-6.0171,-6.0171,-6.0171,-6.0171,-6.0171,-6.0171,-6.0171,-6.0171,-6.0171,-6.0171,-6.0171,-6.0171,-6.0171,-6.0171,-6.0171,-6.0171,-6.0195,-6.0315,-6.0339,-6.0436,-6.058,-6.0869,-6.1037,-6.1109,-6.1398,-6.1614,-6.1662,-6.1662,-6.1326,-6.0412,-6.0339,-6.046,-6.0412,-6.0388,-6.0412,-6.046,-6.0508,-6.0484,-6.0412,-6.0508,-6.0436,-6.0484,-6.046,-6.0339,-6.0532,-6.0845,-6.1061,-6.1061,-6.1518,-6.1834,-6.2347,-6.2396,-6.2517,-6.2662,-6.3102,-6.3227,-6.3106,-6.313,-6.3446,-6.3786,-6.4005,-6.415,-6.4587,-6.5007,-6.5383,-6.5383,-6.5584,-6.5735,-6.5886,-6.5886,-6.5936,-6.6036,-6.6112,-6.6112,-6.6112,-6.6112,-6.6112,-6.6112,-6.6112,-6.6112,-6.6112,-6.6112,-6.6112,-6.6112,-6.6112,-6.6112,-6.6112,-6.6237,-6.6488,-6.6714,-6.6865,-6.7216,-6.7543,-6.7367,-6.7317,-5.2387,-5.2387,-5.4323,-5.6098,-5.7332,-5.787,-5.8771,-6.0003,-6.0171,-6.0003,-6.0171,-6.0171,-6.0171,-6.0171,-6.0171,-6.0171,-6.0171,-6.0171,-6.0171,-6.0171,-6.0171,-6.0171,-6.0171,-6.0171,-6.0171,-6.0171,-6.0171,-6.0171,-6.0171,-6.0171,-6.0171,-6.0171,-6.0243,-6.0195,-6.0219,-6.0315,-6.0412,-6.07,-6.0796,-6.1013,-6.1326,-6.1494,-6.1638,-6.1686,-6.1807,-6.1807,-6.1807,-6.1807,-6.1686,-6.1518,-6.1446,-6.1422,-6.135,-6.135,-6.135,-6.1326,-6.1374,-6.1398,-6.1422,-6.135,-6.1422,-6.135,-6.1301,-6.1446,-6.1446,-6.1518,-6.1614,-6.1638,-6.1758,-6.2047,-6.2534,-6.2944,-6.3016,-6.3064,-6.3185,-6.3257,-6.336,-6.3812,-6.4284,-6.4827,-6.4999,-6.5246,-6.571,-6.571,-6.5886,-6.5936,-6.5986,-6.6086,-6.6112,-6.6112,-6.6112,-6.6112,-6.6112,-6.6112,-6.6112,-6.6112,-6.6112,-6.6112,-6.6112,-6.6112,-6.6112,-6.6112,-6.6112,-6.6112,-6.6112,-6.6137,-6.6237,-6.6538,-6.6815,-6.7066,-6.7367,-6.7719,-6.7995,-6.7945,-6.8045,-5.2566,-5.1868,-5.3792,-5.4499,-5.4873,-5.5749,-5.6618,-5.7676,-5.8577,-5.8941,-5.9111,-5.9642,-6.0171,-6.0171,-6.0171,-6.0171,-6.0171,-6.0171,-6.0171,-6.0171,-6.0171,-6.0171,-6.0171,-6.0171,-6.0171,-6.0195,-6.0171,-6.0171,-6.0171,-6.0195,-6.0171,-6.0219,-6.0412,-6.0556,-6.0628,-6.0772,-6.1085,-6.1277,-6.135,-6.1518,-6.1758,-6.2047,-6.2336,-6.248,-6.2528,-6.2504,-6.2552,-6.2528,-6.2528,-6.2528,-6.2504,-6.2263,-6.1879,-6.1807,-6.1807,-6.1807,-6.1807,-6.1807,-6.1782,-6.1807,-6.1758,-6.1831,-6.1807,-6.1807,-6.1879,-6.1999,-6.2167,-6.2215,-6.2384,-6.2672,-6.2913,-6.3105,-6.3322,-6.3322,-6.3322,-6.3322,-6.3322,-6.3675,-6.4377,-6.4901,-6.5,-6.5347,-6.5742,-6.594,-6.6112,-6.6011,-6.6036,-6.6112,-6.6112,-6.6112,-6.6112,-6.6112,-6.6112,-6.6112,-6.6112,-6.6112,-6.6112,-6.6112,-6.6112,-6.6112,-6.6112,-6.6112,-6.6112,-6.6137,-6.6162,-6.6388,-6.6513,-6.684,-6.7292,-6.7769,-6.812,-6.8296,-6.8472,-6.8673,-6.8748,-5.2745,-5.1326,-5.2924,-5.2924,-5.2027,-5.3437,-5.4499,-5.5377,-5.6641,-5.787,-5.8065,-5.9642,-6.0171,-6.0171,-6.0171,-6.0171,-6.0171,-6.0171,-6.0171,-6.0171,-6.0339,-6.0364,-6.0388,-6.0508,-6.058,-6.0412,-6.0388,-6.0364,-6.0364,-6.0388,-6.0628,-6.0556,-6.0869,-6.1085,-6.1205,-6.1494,-6.1758,-6.1879,-6.1927,-6.2023,-6.2167,-6.2528,-6.2889,-6.3105,-6.3177,-6.3177,-6.3177,-6.3201,-6.3249,-6.3322,-6.3322,-6.2865,-6.2312,-6.2047,-6.2047,-6.2071,-6.2167,-6.2215,-6.2239,-6.2143,-6.2119,-6.2023,-6.2071,-6.2071,-6.2191,-6.2456,-6.2648,-6.2817,-6.2985,-6.3201,-6.3322,-6.3322,-6.3322,-6.3322,-6.3322,-6.3322,-6.3322,-6.3322,-6.3851,-6.4527,-6.4702,-6.505,-6.5594,-6.594,-6.594,-6.594,-6.594,-6.594,-6.594,-6.6112,-6.6112,-6.6112,-6.6112,-6.6112,-6.6112,-6.6112,-6.6112,-6.6112,-6.6112,-6.6112,-6.6112,-6.6112,-6.6112,-6.6187,-6.6262,-6.6538,-6.689,-6.7292,-6.7819,-6.8447,-6.8773,-6.8848,-6.91,-6.9401,-6.9351,-4.9564,-4.94,-4.9748,-5.0439,-5.1688,-5.2048,-5.3969,-5.6641,-5.6987,-5.8236,-5.9473,-6.0003,-6.0171,-6.0171,-6.0171,-6.0171,-6.0219,-6.0315,-6.0315,-6.0388,-6.0628,-6.0845,-6.0893,-6.1157,-6.1398,-6.1398,-6.1133,-6.0893,-6.0965,-6.1277,-6.1326,-6.1494,-6.159,-6.1662,-6.1662,-6.1807,-6.2143,-6.2408,-6.2456,-6.26,-6.2889,-6.3057,-6.3177,-6.3322,-6.3322,-6.3322,-6.3322,-6.3322,-6.3322,-6.3322,-6.3322,-6.3225,-6.3009,-6.2961,-6.2961,-6.2961,-6.2937,-6.2889,-6.2913,-6.2985,-6.3057,-6.3081,-6.2985,-6.3009,-6.3033,-6.3105,-6.3105,-6.3153,-6.3225,-6.3322,-6.3322,-6.3322,-6.3322,-6.3322,-6.3322,-6.3322,-6.3322,-6.3322,-6.3675,-6.4353,-6.4527,-6.4527,-6.505,-6.5594,-6.5421,-6.5594,-6.5594,-6.5594,-6.5594,-6.594,-6.6112,-6.6112,-6.6112,-6.6112,-6.6112,-6.6112,-6.6112,-6.6112,-6.6112,-6.6112,-6.6112,-6.6112,-6.6137,-6.6312,-6.6564,-6.6865,-6.7267,-6.7744,-6.8196,-6.8723,-6.9049,-6.9325,-6.9376,-6.9451,-6.9451,-4.8848,-4.8848,-4.8848,-4.94,-5.0276,-5.1326,-5.2745,-5.4521,-5.6468,-5.787,-5.8771,-5.9642,-6.0171,-6.0171,-6.0171,-6.0315,-6.058,-6.0941,-6.0989,-6.1109,-6.1277,-6.1398,-6.1398,-6.171,-6.1758,-6.1807,-6.1758,-6.1614,-6.1446,-6.1638,-6.1855,-6.1855,-6.2047,-6.2215,-6.2287,-6.2504,-6.2672,-6.2937,-6.2961,-6.3057,-6.3322,-6.3322,-6.3322,-6.3322,-6.3322,-6.3322,-6.3322,-6.3322,-6.3322,-6.3322,-6.3322,-6.3322,-6.3322,-6.3322,-6.3322,-6.3322,-6.3322,-6.3322,-6.3322,-6.3322,-6.3298,-6.3322,-6.3322,-6.3322,-6.3322,-6.3298,-6.3322,-6.3322,-6.3322,-6.3322,-6.3322,-6.3322,-6.3322,-6.3322,-6.3322,-6.3322,-6.3322,-6.3322,-6.3675,-6.4202,-6.4202,-6.4353,-6.4876,-6.505,-6.4876,-6.5075,-6.5248,-6.5248,-6.5248,-6.5594,-6.594,-6.594,-6.5767,-6.594,-6.594,-6.6112,-6.6112,-6.6112,-6.6212,-6.6212,-6.6312,-6.6388,-6.6513,-6.6639,-6.6915,-6.7267,-6.7769,-6.8296,-6.8673,-6.8974,-6.92,-6.9401,-6.9426,-6.9451,-6.9451,-4.8848,-4.8848,-4.8848,-4.8848,-4.9216,-5.0984,-5.2027,-5.2924,-5.5924,-5.7699,-5.8236,-5.9592,-6.0364,-6.0388,-6.0532,-6.0772,-6.1181,-6.1614,-6.1686,-6.1734,-6.1879,-6.1951,-6.1975,-6.2071,-6.2215,-6.236,-6.248,-6.2456,-6.2071,-6.2167,-6.2143,-6.2287,-6.26,-6.2744,-6.2817,-6.3033,-6.3298,-6.3322,-6.3322,-6.3322,-6.3322,-6.3322,-6.3322,-6.3322,-6.3322,-6.3322,-6.3322,-6.3322,-6.3322,-6.3322,-6.3322,-6.3322,-6.3322,-6.3322,-6.3322,-6.3322,-6.3322,-6.3322,-6.3322,-6.3322,-6.3322,-6.3322,-6.3322,-6.3322,-6.3322,-6.3322,-6.3322,-6.3322,-6.3322,-6.3322,-6.3322,-6.3322,-6.3322,-6.3322,-6.3322,-6.3322,-6.3322,-6.3322,-6.3498,-6.3675,-6.3851,-6.4178,-6.4702,-6.4527,-6.4202,-6.4702,-6.4901,-6.4901,-6.5075,-6.5248,-6.5594,-6.5421,-6.5594,-6.5767,-6.594,-6.6112,-6.6112,-6.6112,-6.6338,-6.6488,-6.6639,-6.6789,-6.699,-6.7267,-6.7442,-6.7819,-6.8346,-6.8748,-6.8999,-6.9225,-6.9376,-6.9451,-6.9451,-6.9451,-6.9451,-4.8848,-4.8848,-4.8848,-4.8848,-4.9216,-5.0984,-5.2566,-5.4168,-5.6339,-5.8407,-5.9276,-6.0483,-6.0698,-6.0965,-6.1398,-6.1614,-6.1734,-6.1879,-6.1999,-6.2047,-6.2336,-6.248,-6.2552,-6.2985,-6.2961,-6.2937,-6.3105,-6.2961,-6.2672,-6.2865,-6.3057,-6.3081,-6.3057,-6.3225,-6.3153,-6.3274,-6.3322,-6.3322,-6.3322,-6.3322,-6.3322,-6.3322,-6.3322,-6.3322,-6.3322,-6.3322,-6.3322,-6.3322,-6.3322,-6.3322,-6.3322,-6.3322,-6.3322,-6.3322,-6.3322,-6.3322,-6.3322,-6.3322,-6.3322,-6.3322,-6.3322,-6.3322,-6.3322,-6.3322,-6.3322,-6.3322,-6.3322,-6.3322,-6.3322,-6.3322,-6.3322,-6.3322,-6.3322,-6.3322,-6.3322,-6.3322,-6.3322,-6.3322,-6.3322,-6.3322,-6.3498,-6.4026,-6.4353,-6.4026,-6.3675,-6.4202,-6.4527,-6.4527,-6.4702,-6.4876,-6.5223,-6.5421,-6.5248,-6.5421,-6.6065,-6.6212,-6.6312,-6.6262,-6.6589,-6.6865,-6.7066,-6.7317,-6.7819,-6.807,-6.8196,-6.8296,-6.8673,-6.9024,-6.9275,-6.9401,-6.9426,-6.9451,-6.9451,-6.9451,-6.9451,-4.8848,-4.8848,-4.8848,-4.8848,-4.9216,-5.0984,-5.2194,-5.3464,-5.5291,-5.6705,-5.7854,-5.9134,-6.034,-6.137,-6.1999,-6.2239,-6.2312,-6.2504,-6.2672,-6.2624,-6.2865,-6.2985,-6.3033,-6.3225,-6.3322,-6.3322,-6.3322,-6.3249,-6.3129,-6.3177,-6.3322,-6.3322,-6.3322,-6.3298,-6.3322,-6.3322,-6.3322,-6.3322,-6.3322,-6.3322,-6.3322,-6.3322,-6.3322,-6.3322,-6.3322,-6.3322,-6.3322,-6.3322,-6.3322,-6.3322,-6.3322,-6.3322,-6.3322,-6.3322,-6.3322,-6.3322,-6.3322,-6.3322,-6.3322,-6.3322,-6.3322,-6.3322,-6.3322,-6.3322,-6.3322,-6.3322,-6.3322,-6.3322,-6.3322,-6.3322,-6.3322,-6.3322,-6.3322,-6.3322,-6.3322,-6.3322,-6.3322,-6.3322,-6.3322,-6.3322,-6.3322,-6.3675,-6.4026,-6.3675,-6.3498,-6.3851,-6.4026,-6.4178,-6.4178,-6.4353,-6.4901,-6.5421,-6.5248,-6.5248,-6.5942,-6.6413,-6.6689,-6.6789,-6.7166,-6.7417,-6.7543,-6.7869,-6.8346,-6.8673,-6.8773,-6.8899,-6.9074,-6.92,-6.9376,-6.9426,-6.9451,-6.9451,-6.9451,-6.9451,-6.9451,-4.8848,-4.8848,-4.8848,-4.8906,-4.9208,-5.0986,-5.2122,-5.272,-5.4517,-5.5815,-5.7022,-5.8831,-6.078,-6.1867,-6.2576,-6.2793,-6.2817,-6.3177,-6.3298,-6.3322,-6.3322,-6.3298,-6.3274,-6.3322,-6.3322,-6.3322,-6.3322,-6.3298,-6.3298,-6.3322,-6.3322,-6.3322,-6.3322,-6.3322,-6.3322,-6.3322,-6.3322,-6.3322,-6.3322,-6.3322,-6.3322,-6.3322,-6.3322,-6.3322,-6.3322,-6.3322,-6.3322,-6.3322,-6.3322,-6.3322,-6.3322,-6.3322,-6.3322,-6.3322,-6.3322,-6.3322,-6.3322,-6.3322,-6.3322,-6.3322,-6.3322,-6.3322,-6.3322,-6.3322,-6.3322,-6.3322,-6.3322,-6.3322,-6.3322,-6.3322,-6.3322,-6.3322,-6.3322,-6.3322,-6.3322,-6.3322,-6.3346,-6.3442,-6.3418,-6.3322,-6.3322,-6.3322,-6.3498,-6.3322,-6.3322,-6.3522,-6.3675,-6.3875,-6.3923,-6.3972,-6.4397,-6.5147,-6.5396,-6.547,-6.6267,-6.6766,-6.6941,-6.7317,-6.7719,-6.797,-6.807,-6.8371,-6.8823,-6.9074,-6.9225,-6.925,-6.9275,-6.9351,-6.9451,-6.9451,-6.9451,-6.9451,-6.9451,-6.9451,-6.9451,-4.8848,-4.8848,-4.8867,-4.9101,-4.964,-5.1453,-5.2415,-5.2848,-5.4647,-5.6527,-5.8365,-6.084,-6.1841,-6.2704,-6.2575,-6.2671,-6.3097,-6.3322,-6.3145,-6.3145,-6.3322,-6.3322,-6.3322,-6.3322,-6.3322,-6.3322,-6.3322,-6.3322,-6.3322,-6.3322,-6.3322,-6.3322,-6.3322,-6.3322,-6.3322,-6.3322,-6.3322,-6.3322,-6.3322,-6.3322,-6.3322,-6.3322,-6.3322,-6.3322,-6.3322,-6.3322,-6.3322,-6.3322,-6.3322,-6.3322,-6.3322,-6.3322,-6.3322,-6.3322,-6.3322,-6.3322,-6.3442,-6.3466,-6.3466,-6.3394,-6.3346,-6.3346,-6.3442,-6.3562,-6.3634,-6.3442,-6.337,-6.3514,-6.3634,-6.3562,-6.3466,-6.337,-6.3586,-6.3658,-6.3754,-6.373,-6.373,-6.3634,-6.3586,-6.3394,-6.3466,-6.3682,-6.3706,-6.3803,-6.3442,-6.3595,-6.3764,-6.3788,-6.386,-6.3932,-6.4384,-6.4836,-6.5489,-6.5887,-6.6838,-6.7366,-6.7567,-6.7919,-6.8246,-6.8447,-6.8572,-6.8924,-6.92,-6.9275,-6.9351,-6.9401,-6.9451,-6.9451,-6.9451,-6.9451,-6.9451,-6.9451,-6.9451,-6.9451,-6.9451,-4.9023,-4.9258,-4.9277,-4.9375,-4.9551,-5.0536,-5.1249,-5.1609,-5.2404,-5.4774,-5.7957,-5.9091,-6.0202,-6.0882,-6.0181,-6.0363,-6.1312,-6.1492,-6.2232,-6.2967,-6.3322,-6.3322,-6.3322,-6.3322,-6.3322,-6.3322,-6.3322,-6.3322,-6.3322,-6.3322,-6.3322,-6.3322,-6.3322,-6.3322,-6.3322,-6.3322,-6.3322,-6.3322,-6.3322,-6.3322,-6.3322,-6.3322,-6.3322,-6.3322,-6.3322,-6.3322,-6.3322,-6.3322,-6.3322,-6.3322,-6.3322,-6.3346,-6.3394,-6.337,-6.3394,-6.3466,-6.3658,-6.3803,-6.373,-6.3586,-6.3466,-6.3875,-6.4091,-6.426,-6.4187,-6.4284,-6.4308,-6.4332,-6.4235,-6.4163,-6.4284,-6.4308,-6.438,-6.4308,-6.426,-6.4187,-6.4163,-6.4091,-6.4091,-6.4019,-6.4211,-6.4428,-6.4404,-6.438,-6.3899,-6.3691,-6.3706,-6.3899,-6.4019,-6.4163,-6.4463,-6.499,-6.5648,-6.6306,-6.7082,-6.7612,-6.8296,-6.8522,-6.8748,-6.8874,-6.8999,-6.915,-6.9376,-6.9426,-6.9451,-6.9451,-6.9451,-6.9451,-6.9451,-6.9451,-6.9451,-6.9451,-6.9451,-6.9451,-6.9451,-4.9238,-4.9551,-4.9805,-4.9902,-4.9961,-5.0234,-5.0605,-5.0957,-5.0996,-5.2992,-5.666,-5.759,-5.8514,-5.8881,-5.8329,-5.8697,-6.0204,-6.0748,-6.1874,-6.2612,-6.3322,-6.3322,-6.3322,-6.3322,-6.3322,-6.3322,-6.3322,-6.3322,-6.3322,-6.3322,-6.3322,-6.3322,-6.3322,-6.3322,-6.3322,-6.3322,-6.3322,-6.3322,-6.3322,-6.3322,-6.3322,-6.3322,-6.3322,-6.3322,-6.3322,-6.3322,-6.3322,-6.3322,-6.3322,-6.3322,-6.3346,-6.3442,-6.3514,-6.3586,-6.3658,-6.3875,-6.4091,-6.4356,-6.426,-6.4115,-6.3971,-6.4356,-6.4596,-6.4813,-6.4933,-6.4933,-6.4765,-6.4813,-6.4861,-6.4933,-6.4957,-6.4789,-6.4741,-6.4644,-6.4668,-6.4644,-6.4668,-6.462,-6.4692,-6.4716,-6.4837,-6.4813,-6.4789,-6.4692,-6.4548,-6.4163,-6.426,-6.4428,-6.4524,-6.4668,-6.5018,-6.5343,-6.6031,-6.6538,-6.7225,-6.7856,-6.8465,-6.8899,-6.9125,-6.9225,-6.9351,-6.9451,-6.9451,-6.9451,-6.9451,-6.9451,-6.9451,-6.9451,-6.9451,-6.9451,-6.9451,-6.9451,-6.9451,-6.9451,-6.9451,-4.9531,-4.9629,-5.041,-5.0742,-5.0723,-5.0781,-5.1016,-5.1328,-5.1541,-5.27,-5.5157,-5.796,-5.8697,-5.7775,-5.7033,-5.8145,-5.9635,-6.0386,-6.1492,-6.2967,-6.3322,-6.3322,-6.3322,-6.3322,-6.3322,-6.3322,-6.3322,-6.3322,-6.3322,-6.3322,-6.3322,-6.3322,-6.3322,-6.3322,-6.3322,-6.3322,-6.3322,-6.3322,-6.3322,-6.3322,-6.3322,-6.3322,-6.3322,-6.3322,-6.3322,-6.3322,-6.3322,-6.3466,-6.349,-6.349,-6.3586,-6.3779,-6.4067,-6.4115,-6.4284,-6.4668,-6.4813,-6.4909,-6.4909,-6.4885,-6.4909,-6.4933,-6.5125,-6.5197,-6.5053,-6.5029,-6.5125,-6.5318,-6.5173,-6.5101,-6.5005,-6.5005,-6.5101,-6.5149,-6.5197,-6.5221,-6.527,-6.5294,-6.5366,-6.5414,-6.5149,-6.4957,-6.4957,-6.4981,-6.5029,-6.4933,-6.4909,-6.4981,-6.5101,-6.5246,-6.5438,-6.5899,-6.6434,-6.6871,-6.7587,-6.8247,-6.8808,-6.922,-6.9401,-6.9426,-6.9451,-6.9451,-6.9451,-6.9451,-6.9451,-6.9451,-6.9451,-6.9451,-6.9451,-6.9451,-6.9451,-6.9451,-6.9451,-6.9451,-6.9451,-4.9863,-5.0391,-5.0683,-5.0976,-5.1191,-5.123,-5.1308,-5.16,-5.274,-5.3869,-5.442,-5.6098,-5.6286,-5.5534,-5.5534,-5.6473,-5.8329,-6.0181,-6.1492,-6.3145,-6.3322,-6.3322,-6.3322,-6.3322,-6.3322,-6.3346,-6.3346,-6.337,-6.3322,-6.3442,-6.337,-6.3322,-6.349,-6.3322,-6.3322,-6.3322,-6.3322,-6.3322,-6.3322,-6.3322,-6.3346,-6.337,-6.3394,-6.3394,-6.3418,-6.3442,-6.3466,-6.3682,-6.3803,-6.3875,-6.4019,-6.4356,-6.4596,-6.4644,-6.4765,-6.5029,-6.5173,-6.563,-6.5823,-6.5943,-6.5775,-6.5678,-6.5678,-6.5823,-6.5943,-6.5967,-6.5967,-6.5895,-6.5823,-6.5823,-6.5991,-6.5991,-6.6015,-6.6039,-6.6063,-6.6063,-6.6087,-6.6063,-6.6087,-6.6111,-6.5967,-6.5847,-6.5823,-6.563,-6.5606,-6.5582,-6.5534,-6.5702,-6.5847,-6.5967,-6.6135,-6.6344,-6.6785,-6.7225,-6.7898,-6.8312,-6.8726,-6.9064,-6.9245,-6.9426,-6.9451,-6.9451,-6.9451,-6.9451,-6.9451,-6.9451,-6.9451,-6.9451,-6.9451,-6.9451,-6.9451,-6.9451,-6.9451,-6.9451,-6.9451,-5.0176,-5.0801,-5.0957,-5.1172,-5.1426,-5.1445,-5.1445,-5.1814,-5.3487,-5.404,-5.3678,-5.404,-5.404,-5.3678,-5.3487,-5.5178,-5.7383,-5.8697,-6.1132,-6.2967,-6.3322,-6.3322,-6.3322,-6.3346,-6.3322,-6.3394,-6.3538,-6.3634,-6.3682,-6.3827,-6.3947,-6.3971,-6.3875,-6.3995,-6.3875,-6.3682,-6.3466,-6.3562,-6.3682,-6.3803,-6.3899,-6.3947,-6.3947,-6.3947,-6.3947,-6.3923,-6.3947,-6.4043,-6.4211,-6.4404,-6.4596,-6.4885,-6.5029,-6.5197,-6.5294,-6.5534,-6.5775,-6.6159,-6.6352,-6.6424,-6.6183,-6.6039,-6.6328,-6.6448,-6.6496,-6.6376,-6.64,-6.64,-6.6496,-6.6472,-6.6448,-6.6496,-6.6472,-6.6472,-6.6448,-6.6424,-6.6424,-6.6376,-6.6376,-6.6448,-6.6472,-6.6472,-6.6496,-6.6424,-6.6256,-6.6208,-6.6183,-6.6328,-6.6424,-6.6448,-6.6496,-6.6658,-6.6658,-6.7003,-6.7556,-6.7947,-6.8519,-6.9089,-6.927,-6.9451,-6.9451,-6.9451,-6.9451,-6.9451,-6.9451,-6.9451,-6.9451,-6.9451,-6.9451,-6.9451,-6.9451,-6.9451,-6.9451,-6.9451,-6.9451,-5.043,-5.0859,-5.125,-5.1426,-5.1445,-5.1445,-5.1445,-5.162,-5.3296,-5.3124,-5.162,-5.3487,-5.3296,-5.1794,-5.1794,-5.404,-5.7033,-5.7775,-6.0363,-6.2232,-6.279,-6.2991,-6.3241,-6.3442,-6.3586,-6.3682,-6.3851,-6.4163,-6.4211,-6.4428,-6.4668,-6.4765,-6.4644,-6.462,-6.4404,-6.4115,-6.3875,-6.4067,-6.4163,-6.4332,-6.45,-6.4692,-6.4644,-6.4596,-6.4548,-6.45,-6.4452,-6.4428,-6.4524,-6.4596,-6.462,-6.5005,-6.5366,-6.5702,-6.6063,-6.6304,-6.64,-6.6448,-6.6472,-6.6472,-6.6472,-6.6352,-6.6424,-6.6496,-6.6496,-6.6496,-6.6496,-6.6496,-6.6496,-6.6496,-6.6496,-6.6496,-6.6496,-6.6472,-6.6472,-6.6472,-6.6472,-6.6472,-6.6472,-6.6472,-6.6472,-6.6496,-6.6496,-6.6496,-6.6496,-6.6448,-6.6352,-6.6376,-6.6448,-6.6448,-6.6496,-6.6496,-6.6658,-6.6843,-6.7236,-6.7788,-6.8337,-6.8908,-6.927,-6.9451,-6.9451,-6.9451,-6.9451,-6.9451,-6.9451,-6.9451,-6.9451,-6.9451,-6.9451,-6.9451,-6.9451,-6.9451,-6.9451,-6.9451,-6.9451,-5.0859,-5.125,-5.1387,-5.1445,-5.1445,-5.1445,-5.1445,-5.1426,-5.2181,-5.1814,-5.1426,-5.1988,-5.1988,-5.162,-5.442,-5.6098,-5.7405,-5.9087,-6.0928,-6.2053,-6.1742,-6.2492,-6.3219,-6.372,-6.3912,-6.4356,-6.4572,-6.4692,-6.4716,-6.4957,-6.4981,-6.4909,-6.5077,-6.5029,-6.4909,-6.4644,-6.4644,-6.4668,-6.4716,-6.4837,-6.4933,-6.5005,-6.5029,-6.5005,-6.4668,-6.4596,-6.45,-6.4596,-6.4716,-6.4837,-6.551,-6.6039,-6.6135,-6.6256,-6.64,-6.6424,-6.6472,-6.6472,-6.6496,-6.6496,-6.6496,-6.6496,-6.6496,-6.6496,-6.6496,-6.6496,-6.6496,-6.6496,-6.6496,-6.6496,-6.6496,-6.6496,-6.6496,-6.6496,-6.6496,-6.6496,-6.6496,-6.6496,-6.6496,-6.6496,-6.6496,-6.6496,-6.6496,-6.6496,-6.6496,-6.6496,-6.6496,-6.6496,-6.6496,-6.6496,-6.6496,-6.6496,-6.6496,-6.6682,-6.7212,-6.7764,-6.8154,-6.8726,-6.9089,-6.9451,-6.9451,-6.9451,-6.9451,-6.9451,-6.9451,-6.9451,-6.9451,-6.9451,-6.9451,-6.9451,-6.9451,-6.9451,-6.9451,-6.9451,-6.9451,-5.1055,-5.1406,-5.1445,-5.1445,-5.1445,-5.1445,-5.1445,-5.1445,-5.1445,-5.1445,-5.1445,-5.1426,-5.1426,-5.162,-5.3678,-5.5157,-5.6098,-5.7033,-5.8697,-5.984,-5.9977,-6.1187,-6.2193,-6.3406,-6.3825,-6.4498,-6.5125,-6.5221,-6.527,-6.5486,-6.5582,-6.5606,-6.5534,-6.551,-6.5558,-6.5582,-6.5558,-6.5486,-6.5414,-6.539,-6.5342,-6.5318,-6.5342,-6.527,-6.4789,-6.4548,-6.4596,-6.4837,-6.4765,-6.4981,-6.5799,-6.5919,-6.6183,-6.6472,-6.6472,-6.6496,-6.6496,-6.6496,-6.6496,-6.6496,-6.6496,-6.6496,-6.6496,-6.6496,-6.6496,-6.6496,-6.6496,-6.6496,-6.6496,-6.6496,-6.6496,-6.6496,-6.6496,-6.6496,-6.6496,-6.6496,-6.6496,-6.6496,-6.6496,-6.6496,-6.6496,-6.6496,-6.6496,-6.6496,-6.6496,-6.6496,-6.6496,-6.6496,-6.6496,-6.6496,-6.6496,-6.6496,-6.6496,-6.6682,-6.7027,-6.758,-6.7971,-6.8519,-6.9089,-6.927,-6.9451,-6.9451,-6.9451,-6.9451,-6.9451,-6.9451,-6.9451,-6.9451,-6.9451,-6.9451,-6.9451,-6.9451,-6.9451,-6.9451,-6.9451,-5.1074,-5.1445,-5.1445,-5.1445,-5.1445,-5.1445,-5.1445,-5.1445,-5.1445,-5.1445,-5.1445,-5.1445,-5.1445,-5.162,-5.274,-5.3678,-5.461,-5.5346,-5.6473,-5.7405,-5.8225,-5.9441,-6.1212,-6.1972,-6.3745,-6.4761,-6.5438,-6.5775,-6.5895,-6.6039,-6.6232,-6.6496,-6.6376,-6.6256,-6.6208,-6.6232,-6.6183,-6.6111,-6.5847,-6.5702,-6.5967,-6.5991,-6.5871,-6.5943,-6.5414,-6.4909,-6.5077,-6.4957,-6.462,-6.4957,-6.527,-6.539,-6.6015,-6.6496,-6.6496,-6.6496,-6.6496,-6.6496,-6.6496,-6.6496,-6.6496,-6.6496,-6.6496,-6.6496,-6.6496,-6.6496,-6.6496,-6.6496,-6.6496,-6.6496,-6.6496,-6.6496,-6.6496,-6.6496,-6.6496,-6.6496,-6.6496,-6.6496,-6.6496,-6.6496,-6.6496,-6.6496,-6.6496,-6.6496,-6.6496,-6.6496,-6.6496,-6.6496,-6.6496,-6.6496,-6.6496,-6.6496,-6.6496,-6.6496,-6.6843,-6.7212,-6.7764,-6.8337,-6.8883,-6.927,-6.9451,-6.9451,-6.9451,-6.9451,-6.9451,-6.9451,-6.9451,-6.9451,-6.9451,-6.9451,-6.9451,-6.9451,-6.9451,-6.9451,-6.9451,-5.1328,-5.1426,-5.1445,-5.1445,-5.1445,-5.1445,-5.1445,-5.1445,-5.1445,-5.1445,-5.1445,-5.1445,-5.1445,-5.1426,-5.274,-5.3678,-5.404,-5.404,-5.5534,-5.6703,-5.7458,-5.8973,-6.1235,-6.2894,-6.4372,-6.5375,-6.5967,-6.6256,-6.628,-6.64,-6.6496,-6.6496,-6.6496,-6.6496,-6.6472,-6.6472,-6.64,-6.6352,-6.6015,-6.5702,-6.5702,-6.5727,-6.5654,-6.5318,-6.4716,-6.4452,-6.4596,-6.4765,-6.4741,-6.5005,-6.5751,-6.6135,-6.6472,-6.6472,-6.6496,-6.6496,-6.6496,-6.6496,-6.6496,-6.6496,-6.6496,-6.6496,-6.6496,-6.6496,-6.6496,-6.6496,-6.6496,-6.6496,-6.6496,-6.6496,-6.6496,-6.6496,-6.6496,-6.6496,-6.6496,-6.6496,-6.6496,-6.6496,-6.6496,-6.6496,-6.6496,-6.6496,-6.6496,-6.6496,-6.6496,-6.6496,-6.6496,-6.6496,-6.6496,-6.6496,-6.6496,-6.6496,-6.6496,-6.6682,-6.6658,-6.7027,-6.758,-6.8154,-6.8701,-6.9089,-6.9451,-6.9451,-6.9451,-6.9451,-6.9451,-6.9451,-6.9451,-6.9451,-6.9451,-6.9451,-6.9451,-6.9451,-6.9451,-6.9451,-6.9451,-5.1445,-5.1445,-5.1445,-5.1445,-5.1445,-5.1445,-5.1445,-5.1445,-5.1445,-5.1445,-5.1445,-5.1445,-5.1445,-5.1426,-5.2547,-5.3124,-5.3124,-5.3124,-5.4395,-5.5788,-5.7048,-5.9008,-6.1069,-6.3336,-6.4615,-6.5646,-6.6256,-6.6472,-6.6496,-6.6496,-6.6496,-6.6496,-6.6496,-6.6448,-6.6448,-6.6304,-6.6135,-6.6111,-6.5823,-6.5486,-6.5197,-6.5053,-6.5101,-6.4668,-6.4332,-6.4115,-6.4284,-6.45,-6.4476,-6.4909,-6.563,-6.5943,-6.6159,-6.6352,-6.6472,-6.6496,-6.6496,-6.6496,-6.6496,-6.6496,-6.6496,-6.6496,-6.6496,-6.6496,-6.6496,-6.6496,-6.6496,-6.6496,-6.6496,-6.6496,-6.6496,-6.6496,-6.6496,-6.6496,-6.6496,-6.6496,-6.6496,-6.6496,-6.6496,-6.6496,-6.6496,-6.6496,-6.6496,-6.6496,-6.6496,-6.6496,-6.6496,-6.6496,-6.6496,-6.6496,-6.6496,-6.6496,-6.6496,-6.6496,-6.6682,-6.7027,-6.758,-6.8154,-6.8701,-6.9089,-6.927,-6.9451,-6.9451,-6.9451,-6.9451,-6.9451,-6.9451,-6.9451,-6.9451,-6.9451,-6.9451,-6.9451,-6.9451,-6.9451,-6.9451,-5.1445,-5.1445,-5.1445,-5.1445,-5.1445,-5.1445,-5.1445,-5.1445,-5.1445,-5.1445,-5.1445,-5.1445,-5.1445,-5.1426,-5.1504,-5.1484,-5.1737,-5.2324,-5.3415,-5.5,-5.5892,-5.8708,-6.1201,-6.3013,-6.462,-6.5694,-6.6376,-6.6448,-6.6496,-6.6496,-6.6496,-6.6496,-6.6424,-6.6376,-6.6232,-6.5943,-6.563,-6.5678,-6.5438,-6.5005,-6.4596,-6.426,-6.4596,-6.4476,-6.4139,-6.4091,-6.4332,-6.4452,-6.4308,-6.4837,-6.563,-6.5895,-6.6087,-6.6328,-6.6424,-6.6496,-6.6496,-6.6496,-6.6496,-6.6496,-6.6496,-6.6496,-6.6496,-6.6496,-6.6496,-6.6496,-6.6496,-6.6496,-6.6496,-6.6496,-6.6496,-6.6496,-6.6496,-6.6496,-6.6496,-6.6496,-6.6496,-6.6496,-6.6496,-6.6496,-6.6496,-6.6496,-6.6496,-6.6496,-6.6496,-6.6496,-6.6496,-6.6496,-6.6496,-6.6496,-6.6496,-6.6496,-6.6496,-6.6496,-6.6496,-6.6867,-6.7396,-6.7971,-6.8519,-6.8883,-6.927,-6.927,-6.9451,-6.9451,-6.9451,-6.9451,-6.9451,-6.9451,-6.9451,-6.9451,-6.9451,-6.9451,-6.9451,-6.9451,-6.9451,-5.1445,-5.1445,-5.1445,-5.1445,-5.1445,-5.1445,-5.1445,-5.1445,-5.1445,-5.1445,-5.1445,-5.1445,-5.1445,-5.1445,-5.1836,-5.1855,-5.1641,-5.2012,-5.3441,-5.5145,-5.6953,-5.9517,-6.1829,-6.3755,-6.4864,-6.5663,-6.628,-6.6448,-6.6472,-6.6496,-6.6496,-6.6496,-6.6039,-6.5919,-6.5823,-6.5534,-6.5342,-6.5366,-6.5029,-6.4572,-6.4981,-6.4837,-6.4789,-6.4692,-6.4524,-6.4668,-6.4885,-6.5149,-6.5342,-6.5654,-6.5943,-6.6159,-6.6304,-6.6376,-6.6448,-6.6496,-6.6496,-6.6496,-6.6496,-6.6496,-6.6496,-6.6496,-6.6496,-6.6496,-6.6496,-6.6496,-6.6496,-6.6496,-6.6496,-6.6496,-6.6496,-6.6496,-6.6496,-6.6496,-6.6496,-6.6496,-6.6496,-6.6496,-6.6496,-6.6496,-6.6496,-6.6496,-6.6496,-6.6496,-6.6496,-6.6496,-6.6496,-6.6496,-6.6496,-6.6496,-6.6496,-6.6496,-6.6496,-6.6496,-6.6496,-6.6843,-6.7212,-6.7788,-6.8337,-6.8908,-6.927,-6.927,-6.9451,-6.9451,-6.9451,-6.9451,-6.9451,-6.9451,-6.9451,-6.9451,-6.9451,-6.9451,-6.9451,-6.9451,-6.9451]}]]